[[{"header":{"parameterUnit":"m.s-1","parameterCategory":1,"la1":30.6,"la2":29.2853,"lo1":-89.7004,"lo2":-87.6739,"dy":0.0162,"dx":0.0183,"nx":112,"ny":82,"refTime":"2023-08-03T00:00:00:Z","depth":0,"parameterNumber":2,"parameterNumberName":"U-component_of_WINDS"},"data":[0.0,0.0,0.0,0.0,0.0,0.0,0.0,0.0,0.0,0.0,0.0,0.0,0.0,0.0,0.0,0.0,0.0,0.0,0.0,0.0,0.0,0.0,0.0,0.0,0.0,0.0,0.0,0.0,0.0,0.0,0.0,0.0,0.0,0.0,0.0,0.0,0.0,0.0,0.0,0.0,0.0,0.0,0.0,0.0,0.0,0.0,0.0,0.0,0.0,0.0,0.0,0.0,0.0,0.0,0.0,0.0,0.0,0.0,0.0,0.0,0.0,0.0,0.0,0.0,0.0,0.0,0.0,0.0,0.0,0.0,0.0,0.0,0.0,0.0,0.0,0.0,0.0,0.0,0.0,0.0,0.0,0.0,0.0,0.0,0.0,0.0,0.0,0.0,0.0,0.0,-4.9091,-4.9091,-4.8899,-4.8817,-4.8875,-4.8731,-4.8619,-4.8587,0.0,0.0,0.0,0.0,0.0,0.0,0.0,0.0,0.0,0.0,0.0,0.0,0.0,0.0,0.0,0.0,0.0,0.0,0.0,0.0,0.0,0.0,0.0,0.0,0.0,0.0,0.0,0.0,0.0,0.0,0.0,0.0,0.0,0.0,0.0,0.0,0.0,0.0,0.0,0.0,0.0,0.0,0.0,0.0,0.0,0.0,0.0,0.0,0.0,0.0,0.0,0.0,0.0,0.0,0.0,0.0,0.0,0.0,0.0,0.0,0.0,0.0,0.0,0.0,0.0,0.0,0.0,0.0,0.0,0.0,0.0,0.0,0.0,0.0,0.0,0.0,0.0,0.0,0.0,0.0,0.0,0.0,0.0,0.0,0.0,0.0,0.0,0.0,0.0,0.0,0.0,0.0,0.0,0.0,0.0,0.0,0.0,0.0,0.0,0.0,0.0,0.0,0.0,0.0,-5.0425,-5.0425,-5.0226,-4.9859,-4.9259,-4.9209,-4.911,-4.9028,0.0,0.0,0.0,0.0,0.0,0.0,0.0,0.0,0.0,0.0,0.0,0.0,0.0,0.0,0.0,0.0,0.0,0.0,0.0,0.0,0.0,0.0,0.0,0.0,0.0,0.0,0.0,0.0,0.0,0.0,0.0,0.0,0.0,0.0,0.0,0.0,0.0,0.0,0.0,0.0,0.0,0.0,0.0,0.0,0.0,0.0,0.0,0.0,0.0,0.0,0.0,0.0,0.0,0.0,0.0,0.0,0.0,0.0,0.0,0.0,0.0,0.0,0.0,0.0,0.0,0.0,0.0,0.0,0.0,0.0,0.0,0.0,0.0,0.0,0.0,0.0,0.0,0.0,0.0,0.0,0.0,0.0,0.0,0.0,0.0,0.0,0.0,0.0,0.0,0.0,0.0,0.0,0.0,0.0,0.0,0.0,0.0,0.0,0.0,0.0,0.0,0.0,0.0,-5.0526,-5.0526,-5.0526,-5.0408,-5.0191,-4.9926,-4.9443,-4.9327,-4.9674,-4.8779,0.0,0.0,0.0,0.0,0.0,0.0,0.0,0.0,0.0,0.0,0.0,0.0,0.0,0.0,0.0,0.0,0.0,0.0,0.0,0.0,0.0,0.0,0.0,0.0,0.0,0.0,0.0,0.0,0.0,0.0,0.0,0.0,0.0,0.0,0.0,0.0,0.0,0.0,0.0,0.0,0.0,0.0,0.0,0.0,0.0,0.0,0.0,0.0,0.0,0.0,0.0,0.0,0.0,0.0,0.0,0.0,0.0,0.0,0.0,0.0,0.0,0.0,0.0,0.0,0.0,0.0,0.0,0.0,0.0,0.0,0.0,0.0,0.0,0.0,0.0,0.0,0.0,0.0,0.0,0.0,0.0,0.0,0.0,0.0,0.0,0.0,0.0,0.0,0.0,0.0,0.0,0.0,0.0,0.0,0.0,0.0,0.0,0.0,0.0,0.0,0.0,0.0,-5.0874,-5.0874,-5.0874,-5.077,-5.0669,-5.0624,-4.999,-4.9856,-5.0419,-4.9077,0.0,0.0,0.0,0.0,0.0,0.0,0.0,0.0,0.0,0.0,0.0,0.0,0.0,0.0,0.0,0.0,0.0,0.0,0.0,0.0,0.0,0.0,0.0,0.0,0.0,0.0,0.0,0.0,0.0,0.0,0.0,0.0,0.0,0.0,0.0,0.0,0.0,0.0,0.0,0.0,0.0,0.0,0.0,0.0,0.0,0.0,0.0,0.0,0.0,0.0,0.0,0.0,0.0,0.0,0.0,0.0,0.0,0.0,0.0,0.0,0.0,0.0,0.0,0.0,0.0,0.0,0.0,0.0,0.0,0.0,0.0,0.0,0.0,0.0,0.0,0.0,0.0,0.0,0.0,0.0,0.0,0.0,0.0,0.0,0.0,0.0,0.0,0.0,0.0,0.0,0.0,0.0,0.0,0.0,0.0,0.0,0.0,0.0,0.0,0.0,0.0,0.0,-5.226,-5.226,-5.226,-5.226,-5.1978,-5.1282,-5.1183,-5.1183,-5.1232,-4.9839,0.0,0.0,0.0,0.0,0.0,0.0,0.0,0.0,0.0,0.0,0.0,0.0,0.0,0.0,0.0,0.0,0.0,0.0,0.0,0.0,0.0,0.0,0.0,0.0,0.0,0.0,0.0,0.0,0.0,0.0,0.0,0.0,0.0,0.0,0.0,0.0,0.0,0.0,0.0,0.0,0.0,0.0,0.0,0.0,0.0,0.0,0.0,0.0,0.0,0.0,0.0,0.0,0.0,0.0,0.0,0.0,0.0,0.0,0.0,0.0,0.0,0.0,0.0,0.0,0.0,0.0,0.0,0.0,0.0,0.0,0.0,0.0,0.0,0.0,0.0,0.0,0.0,0.0,0.0,0.0,0.0,0.0,0.0,0.0,0.0,0.0,0.0,0.0,0.0,0.0,0.0,0.0,0.0,0.0,0.0,0.0,0.0,0.0,0.0,0.0,0.0,0.0,-5.2409,-5.2409,0.0,-5.2409,-5.231,-5.2028,-5.158,-5.1514,-5.1978,0.0,0.0,0.0,0.0,0.0,0.0,0.0,0.0,0.0,0.0,0.0,0.0,0.0,0.0,0.0,0.0,0.0,0.0,0.0,0.0,0.0,0.0,0.0,0.0,0.0,0.0,0.0,0.0,0.0,0.0,0.0,0.0,0.0,0.0,0.0,0.0,0.0,0.0,0.0,0.0,0.0,0.0,0.0,0.0,0.0,0.0,0.0,0.0,0.0,0.0,0.0,0.0,0.0,0.0,0.0,0.0,0.0,0.0,0.0,0.0,0.0,0.0,0.0,0.0,0.0,0.0,0.0,0.0,0.0,0.0,0.0,0.0,0.0,0.0,0.0,0.0,0.0,0.0,0.0,0.0,0.0,0.0,0.0,0.0,0.0,0.0,0.0,0.0,0.0,0.0,0.0,0.0,0.0,0.0,0.0,0.0,0.0,0.0,0.0,0.0,0.0,0.0,-5.2409,-5.2409,-5.2409,0.0,-5.2409,-5.2409,-5.2409,-5.1962,-5.1879,-5.2393,0.0,0.0,0.0,0.0,0.0,0.0,0.0,0.0,0.0,0.0,0.0,0.0,0.0,0.0,0.0,0.0,0.0,0.0,0.0,0.0,0.0,0.0,0.0,0.0,0.0,0.0,0.0,0.0,0.0,0.0,0.0,0.0,0.0,0.0,0.0,0.0,0.0,0.0,0.0,0.0,0.0,0.0,0.0,0.0,0.0,0.0,0.0,0.0,0.0,0.0,0.0,0.0,0.0,0.0,0.0,0.0,0.0,0.0,0.0,0.0,0.0,0.0,0.0,0.0,0.0,0.0,0.0,0.0,0.0,0.0,0.0,0.0,0.0,0.0,0.0,0.0,0.0,0.0,0.0,0.0,0.0,0.0,0.0,0.0,0.0,0.0,0.0,0.0,0.0,0.0,0.0,0.0,0.0,0.0,0.0,0.0,0.0,0.0,0.0,0.0,0.0,0.0,-5.2409,-5.2409,-5.2409,-5.2409,-5.2409,-5.2409,-5.2409,-5.2409,-5.2409,0.0,0.0,0.0,0.0,0.0,0.0,0.0,0.0,0.0,0.0,0.0,0.0,0.0,0.0,0.0,0.0,0.0,0.0,0.0,0.0,0.0,0.0,0.0,0.0,0.0,0.0,0.0,0.0,0.0,0.0,0.0,0.0,0.0,0.0,0.0,0.0,0.0,0.0,0.0,0.0,0.0,0.0,0.0,0.0,0.0,0.0,0.0,0.0,0.0,0.0,0.0,0.0,0.0,0.0,0.0,0.0,0.0,0.0,0.0,0.0,0.0,0.0,0.0,0.0,0.0,0.0,0.0,0.0,0.0,0.0,0.0,0.0,0.0,0.0,0.0,0.0,0.0,0.0,0.0,0.0,0.0,0.0,0.0,0.0,0.0,0.0,0.0,0.0,0.0,0.0,0.0,0.0,0.0,0.0,0.0,0.0,0.0,0.0,0.0,0.0,0.0,0.0,0.0,-5.2409,-5.2409,-5.2409,-5.2409,-5.2409,-5.2409,-5.2409,-5.2409,-5.2409,-5.2409,0.0,0.0,0.0,0.0,0.0,0.0,0.0,0.0,0.0,0.0,0.0,0.0,0.0,0.0,0.0,0.0,0.0,0.0,0.0,0.0,0.0,0.0,0.0,0.0,0.0,0.0,0.0,0.0,0.0,0.0,0.0,0.0,0.0,0.0,0.0,0.0,0.0,0.0,0.0,0.0,0.0,0.0,0.0,0.0,0.0,0.0,0.0,0.0,0.0,0.0,0.0,0.0,0.0,0.0,0.0,0.0,0.0,0.0,0.0,0.0,0.0,0.0,0.0,0.0,0.0,0.0,0.0,0.0,0.0,0.0,0.0,0.0,0.0,0.0,0.0,0.0,0.0,0.0,0.0,0.0,0.0,0.0,0.0,0.0,0.0,0.0,0.0,0.0,0.0,0.0,0.0,0.0,0.0,0.0,0.0,0.0,0.0,0.0,0.0,0.0,0.0,0.0,-5.2409,-5.2409,-5.2409,-5.2409,-5.2409,-5.2409,-5.2409,-5.2409,-5.2409,-5.2409,0.0,0.0,0.0,0.0,0.0,0.0,0.0,0.0,0.0,0.0,0.0,0.0,0.0,0.0,0.0,0.0,0.0,0.0,0.0,0.0,0.0,0.0,0.0,0.0,0.0,0.0,0.0,0.0,0.0,0.0,0.0,0.0,0.0,0.0,0.0,0.0,0.0,0.0,0.0,0.0,0.0,0.0,0.0,0.0,0.0,0.0,0.0,0.0,0.0,0.0,0.0,0.0,0.0,0.0,0.0,0.0,0.0,0.0,0.0,0.0,0.0,0.0,0.0,0.0,0.0,0.0,0.0,0.0,0.0,0.0,0.0,0.0,0.0,0.0,0.0,0.0,0.0,0.0,0.0,0.0,0.0,0.0,0.0,0.0,0.0,0.0,0.0,0.0,0.0,0.0,0.0,0.0,0.0,0.0,0.0,0.0,0.0,0.0,0.0,0.0,0.0,0.0,-5.2409,-5.2409,-5.2409,-5.2409,-5.2409,-5.2409,-5.2409,-5.2409,-5.2409,-5.2409,0.0,0.0,0.0,0.0,0.0,0.0,0.0,0.0,0.0,0.0,0.0,0.0,0.0,0.0,0.0,0.0,0.0,0.0,0.0,0.0,0.0,0.0,0.0,0.0,0.0,0.0,0.0,0.0,0.0,0.0,0.0,0.0,0.0,0.0,0.0,0.0,0.0,0.0,0.0,0.0,0.0,0.0,0.0,0.0,0.0,0.0,0.0,0.0,0.0,0.0,0.0,0.0,0.0,0.0,0.0,0.0,0.0,0.0,0.0,0.0,-5.9861,0.0,0.0,0.0,0.0,0.0,0.0,0.0,0.0,0.0,0.0,0.0,0.0,0.0,0.0,0.0,0.0,0.0,0.0,0.0,0.0,0.0,0.0,0.0,0.0,0.0,0.0,0.0,0.0,0.0,0.0,0.0,0.0,0.0,0.0,0.0,0.0,0.0,0.0,0.0,0.0,0.0,-5.2409,-5.2409,-5.2409,-5.2409,-5.2409,-5.2409,-5.2409,-5.2409,-5.2409,-5.2409,-5.1659,0.0,0.0,0.0,0.0,0.0,0.0,0.0,0.0,0.0,0.0,0.0,0.0,0.0,0.0,0.0,0.0,0.0,0.0,0.0,0.0,0.0,0.0,0.0,0.0,0.0,0.0,0.0,0.0,0.0,0.0,0.0,0.0,0.0,0.0,0.0,0.0,0.0,0.0,0.0,0.0,0.0,0.0,0.0,0.0,0.0,0.0,0.0,0.0,0.0,0.0,0.0,0.0,0.0,0.0,0.0,0.0,0.0,0.0,0.0,0.0,-6.0089,0.0,0.0,0.0,0.0,0.0,0.0,0.0,0.0,0.0,0.0,0.0,0.0,0.0,0.0,0.0,0.0,0.0,0.0,0.0,0.0,0.0,0.0,0.0,0.0,0.0,0.0,0.0,0.0,0.0,0.0,0.0,0.0,0.0,0.0,0.0,0.0,0.0,0.0,0.0,0.0,-5.2409,-5.2409,-5.2409,-5.2409,-5.2409,-5.2409,-5.2409,-5.2406,-5.2035,-5.119,-5.0075,0.0,0.0,0.0,0.0,0.0,0.0,0.0,0.0,0.0,0.0,0.0,0.0,0.0,0.0,0.0,0.0,0.0,0.0,0.0,0.0,0.0,0.0,0.0,0.0,0.0,0.0,0.0,0.0,0.0,0.0,0.0,0.0,0.0,0.0,0.0,0.0,0.0,0.0,0.0,0.0,0.0,0.0,0.0,0.0,0.0,0.0,0.0,0.0,0.0,0.0,0.0,0.0,0.0,-6.03,-6.037,-6.0493,-6.0493,-6.0493,-6.0493,-6.037,-6.023,-6.0089,-6.0089,0.0,0.0,0.0,0.0,0.0,0.0,0.0,0.0,0.0,0.0,0.0,0.0,0.0,0.0,0.0,0.0,0.0,0.0,0.0,0.0,0.0,0.0,0.0,0.0,-5.2556,-5.2523,-5.2442,0.0,0.0,0.0,0.0,0.0,0.0,0.0,0.0,0.0,0.0,0.0,-5.2409,-5.2409,-5.2409,-5.2409,-5.2401,-5.2415,-5.2415,-5.2396,-5.1518,-4.9489,-4.8171,-4.7105,0.0,0.0,0.0,0.0,0.0,0.0,0.0,0.0,0.0,0.0,0.0,0.0,0.0,0.0,0.0,0.0,0.0,0.0,0.0,0.0,0.0,0.0,0.0,0.0,0.0,0.0,0.0,0.0,0.0,0.0,0.0,0.0,-5.7095,-5.7241,0.0,0.0,0.0,0.0,0.0,0.0,0.0,0.0,0.0,0.0,0.0,0.0,0.0,-6.0089,-6.0089,-6.0089,-6.044,-6.1142,-6.1142,-6.1476,-6.209,-6.209,-6.209,-6.2055,-6.1423,0.0,-6.0089,-6.0089,0.0,0.0,0.0,0.0,0.0,0.0,0.0,0.0,0.0,0.0,0.0,0.0,0.0,0.0,0.0,0.0,0.0,0.0,0.0,0.0,0.0,0.0,-5.4195,-5.345,-5.3284,-5.3119,0.0,-5.2409,-5.2409,-5.2409,-5.2409,0.0,0.0,0.0,0.0,0.0,0.0,0.0,-5.2409,-5.2409,-5.2409,-5.2409,-5.2404,-5.2387,-5.2387,-5.2381,-5.1031,-4.7832,-4.6361,-4.592,-4.653,-4.5318,0.0,0.0,0.0,0.0,0.0,0.0,0.0,0.0,0.0,0.0,0.0,0.0,0.0,0.0,0.0,0.0,0.0,0.0,0.0,0.0,0.0,0.0,0.0,0.0,0.0,0.0,0.0,0.0,0.0,-5.6758,-5.7015,-5.7571,-5.8007,-5.8572,0.0,0.0,0.0,0.0,0.0,0.0,0.0,0.0,0.0,-6.0756,-6.0774,-6.0967,-6.1388,-6.1388,-6.1564,-6.1915,-6.1915,-6.2073,-6.2389,-6.2389,-6.2389,-6.2371,-6.2055,-6.1704,-6.1318,-6.0458,-6.0089,-6.0089,0.0,0.0,0.0,0.0,-5.9501,-5.9165,-5.8244,-5.7792,-5.7514,-5.6911,0.0,0.0,0.0,0.0,0.0,0.0,0.0,0.0,0.0,0.0,-5.492,-5.4175,-5.3715,-5.3334,-5.3036,-5.2655,-5.2409,0.0,-5.2409,-5.2409,-5.2409,0.0,0.0,0.0,0.0,-5.2409,-5.2409,-5.2409,-5.2409,-5.2409,-5.2409,-5.238,-5.2394,-5.0646,-4.8873,-4.7394,-4.63,-4.5738,-4.5875,-4.4925,-4.4046,0.0,0.0,0.0,0.0,0.0,0.0,0.0,0.0,0.0,0.0,0.0,0.0,0.0,0.0,0.0,0.0,0.0,0.0,0.0,0.0,0.0,0.0,0.0,0.0,0.0,0.0,0.0,0.0,-5.6596,-5.6964,-5.8,-5.865,-5.9159,0.0,0.0,0.0,0.0,0.0,0.0,-6.0388,-6.0405,-6.0774,-6.1564,-6.1581,-6.1827,-6.2371,-6.2389,-6.2494,-6.2687,-6.2687,-6.2793,-6.2986,-6.2986,-6.2986,-6.2968,-6.2775,-6.2687,-6.2582,-6.1248,-6.0581,-6.0405,-6.0405,-6.0282,-6.0025,-5.9518,-5.9199,-5.8909,-5.7937,-5.7514,-5.7289,-5.6834,-5.668,-5.668,-5.668,0.0,0.0,0.0,0.0,-5.6564,-5.6034,-5.5901,-5.5665,-5.4887,-5.4307,-5.3877,-5.3559,-5.3182,-5.2821,0.0,-5.2409,-5.2409,-5.2409,0.0,0.0,0.0,0.0,-5.2409,-5.2409,-5.2409,-5.2404,-5.2392,-5.2415,-5.238,-5.2404,-4.9252,-4.7298,-4.7297,-4.6464,-4.5893,-4.5574,-4.4766,-4.4092,-4.3559,0.0,0.0,0.0,0.0,0.0,0.0,0.0,0.0,0.0,0.0,0.0,0.0,0.0,0.0,0.0,0.0,0.0,0.0,0.0,0.0,0.0,0.0,0.0,0.0,0.0,0.0,0.0,0.0,0.0,-5.8755,-5.8983,0.0,0.0,0.0,0.0,-6.1178,-6.0528,-6.0423,-6.1195,-6.1248,-6.1581,-6.2301,-6.2319,-6.2354,-6.2389,-6.2389,-6.2775,-6.353,-6.353,-6.3916,-6.4601,-6.4601,-6.4601,-6.4566,-6.3846,-6.353,-6.346,-6.2617,-6.1862,-6.1248,-6.1248,-6.0774,-6.0025,-5.9518,-5.8944,-5.8369,-5.7792,-5.7214,-5.6719,-5.6719,-5.668,-5.668,-5.668,-5.668,0.0,0.0,-5.668,-5.668,-5.6647,-5.663,-5.6415,-5.5494,-5.5362,-5.5164,-5.4026,-5.4101,-5.4013,0.0,-5.2409,-5.2409,-5.2409,0.0,-5.2409,-5.2409,-5.2409,-5.2409,-5.2409,-5.2409,-5.2392,-5.2403,-5.2414,-5.2381,-5.2397,-4.9266,-4.7321,-4.7307,-4.6476,-4.606,-4.6234,-4.5005,-4.4302,-4.4272,-4.3604,0.0,0.0,0.0,0.0,0.0,0.0,0.0,0.0,0.0,0.0,0.0,0.0,0.0,0.0,0.0,0.0,0.0,0.0,0.0,0.0,0.0,0.0,0.0,0.0,0.0,0.0,0.0,0.0,-6.03,-6.0493,0.0,-6.1248,-6.1037,-6.0984,-6.1283,-6.1037,-6.1195,-6.1967,-6.2003,-6.2354,-6.3144,-6.3161,-6.3389,-6.3881,-6.3881,-6.4021,-6.432,-6.432,-6.446,-6.4689,-6.4689,-6.4689,-6.4706,-6.4425,-6.432,-6.4302,-6.4004,-6.3144,-6.2003,-6.2003,-6.1529,-6.0764,-5.9823,-5.9009,-5.828,-5.7348,-5.6872,-5.668,-5.668,-5.668,-5.668,-5.668,-5.668,-5.668,-5.668,-5.668,-5.668,-5.668,-5.668,-5.6614,-5.6261,-5.588,-5.5483,-5.5064,-5.4738,-5.4361,-5.3864,-5.3748,-5.3748,-5.3748,-5.3748,-5.3748,-5.3748,-5.3493,-5.3086,-5.249,-5.2388,-5.2404,-5.2397,-5.0418,-4.9126,-4.9099,-4.8009,-4.7289,-4.7279,-4.6997,-4.6683,-4.6294,-4.5816,-4.52,-4.4332,-4.4092,-4.3708,0.0,0.0,0.0,0.0,0.0,0.0,0.0,0.0,0.0,0.0,0.0,0.0,0.0,0.0,0.0,0.0,0.0,0.0,0.0,0.0,0.0,0.0,0.0,0.0,0.0,0.0,-5.9861,-6.116,-6.13,-6.1406,-6.1652,-6.1441,-6.1406,-6.1652,-6.1669,-6.1985,-6.274,-6.2793,-6.3161,-6.3951,-6.3969,-6.4214,-6.4689,-6.4689,-6.4689,-6.4689,-6.4689,-6.4689,-6.4689,-6.4689,-6.4689,-6.4689,-6.4689,-6.4689,-6.4689,-6.4689,-6.4109,-6.3144,-6.2898,-6.2336,-6.152,-6.039,-5.9636,-5.8994,-5.7835,-5.7425,-5.7392,-5.7144,-5.6906,-5.6702,-5.6713,-5.668,-5.668,-5.668,-5.668,-5.668,-5.668,-5.668,-5.668,-5.668,-5.6332,-5.5984,-5.5984,-5.5603,-5.5256,-5.5256,-5.4858,-5.449,-5.449,-5.449,-5.444,-5.4287,-5.4014,-5.3449,-5.2515,-5.2396,-5.2786,-5.377,-5.0721,-4.8254,-4.7382,-4.7566,-4.7588,-4.7337,-4.7309,-4.7115,-4.6681,-4.6399,-4.5798,-4.4661,-4.4212,-4.3723,-4.329,0.0,0.0,0.0,0.0,0.0,0.0,0.0,0.0,0.0,0.0,0.0,0.0,0.0,0.0,0.0,0.0,0.0,0.0,0.0,0.0,0.0,0.0,0.0,-5.9036,-5.965,-6.0405,-6.1248,-6.1318,-6.1581,-6.2319,-6.1739,-6.1634,-6.2371,-6.2424,-6.2775,-6.3583,-6.3618,-6.3969,-6.4688,-6.4689,-6.4689,-6.4689,-6.4689,-6.4689,-6.4689,-6.4689,-6.4689,-6.4689,-6.4689,-6.4689,-6.4689,-6.4689,-6.4689,-6.4689,-6.4689,-6.4689,-6.4653,-6.3916,-6.3126,-6.2273,-6.1146,-6.0694,-6.0492,-5.9303,-5.8899,-5.8784,-5.8055,-5.7341,-5.6705,-5.6685,-5.6697,-5.6697,-5.6697,-5.6697,-5.6697,-5.6697,-5.6697,-5.6697,-5.6697,-5.6697,-5.668,-5.668,-5.668,-5.668,-5.668,-5.5554,-5.4593,-5.4593,-5.4593,-5.4403,-5.396,-5.3874,0.0,-5.2646,-5.2527,-5.359,-5.642,-5.3504,-5.0279,-4.7672,-4.8181,-4.8279,-4.7384,-4.7309,-4.7309,-4.7309,-4.6696,-4.6037,-4.5334,-4.3977,-4.3305,-4.3305,0.0,0.0,0.0,0.0,0.0,0.0,0.0,0.0,0.0,0.0,0.0,0.0,0.0,0.0,0.0,0.0,0.0,0.0,0.0,0.0,0.0,0.0,-5.9791,-5.9791,-5.9966,-6.0598,-6.1932,-6.1634,-6.1581,-6.2319,-6.2213,-6.2406,-6.3196,-6.3267,-6.36,-6.4372,-6.4408,-6.4495,-6.4672,-6.4689,-6.4689,-6.4689,-6.4689,-6.4689,-6.4689,-6.4689,-6.4689,-6.4689,-6.4689,-6.4689,-6.4689,-6.4689,-6.4689,-6.4689,-6.4689,-6.4689,-6.4688,-6.4495,-6.3676,-6.2544,-6.1775,-6.0613,-5.9343,-5.902,-5.8899,-5.8866,-5.8651,-5.7734,-5.6714,-5.6688,-5.6711,-5.6711,-5.6711,-5.6711,-5.6711,-5.6711,-5.6715,-5.6678,-5.6678,-5.6679,-5.668,-5.668,-5.668,-5.668,-5.668,-5.6365,-5.61,-5.61,-5.61,-5.6051,-5.593,-5.5913,0.0,-5.5541,-5.5534,-5.581,-5.6606,-5.5799,-5.3927,-5.0741,-5.0151,-4.9377,-4.8086,-4.7578,-4.7309,-4.7309,-4.713,-4.6726,-4.6052,-4.4247,-4.3293,0.0,0.0,0.0,0.0,0.0,0.0,0.0,0.0,0.0,0.0,0.0,0.0,0.0,0.0,0.0,0.0,0.0,0.0,0.0,0.0,0.0,0.0,-6.0107,-6.0704,-6.102,-6.1055,-6.1265,-6.1862,-6.1827,-6.1932,-6.2354,-6.2687,-6.3091,-6.3547,-6.3881,-6.425,-6.4688,-6.4689,-6.4689,-6.4689,-6.4689,-6.4689,-6.4689,-6.4689,-6.4689,-6.4689,-6.4689,-6.4689,-6.4689,-6.4689,-6.4689,-6.4689,-6.4689,-6.4689,-6.4689,-6.4689,-6.4689,0.0,0.0,0.0,0.0,0.0,-6.1009,-5.9827,-5.9827,-5.9827,-5.9777,-5.9463,-5.8977,-5.8459,-5.8023,-5.8203,-5.8554,-5.8554,-5.8554,-5.8554,-5.8554,-5.8552,-5.8237,-5.6988,-5.6692,-5.6711,-5.6711,-5.6711,-5.6694,-5.6713,-5.6696,0.0,-5.6697,-5.668,-5.668,-5.668,-5.668,-5.6701,-5.6678,-5.5328,-5.4405,-5.4411,-5.4396,-5.3478,-5.1161,-5.0562,0.0,0.0,0.0,-4.7593,-4.7309,-4.704,0.0,0.0,0.0,-4.4247,-4.3875,0.0,0.0,0.0,-4.3643,-4.329,0.0,0.0,0.0,0.0,0.0,0.0,0.0,0.0,0.0,0.0,0.0,0.0,0.0,0.0,0.0,0.0,-6.0826,-6.1529,-6.2161,-6.2266,-6.202,-6.1388,-6.188,-6.2301,-6.2371,-6.3126,-6.3618,-6.3705,-6.4337,-6.4689,-6.4689,0.0,0.0,0.0,0.0,-6.4689,-6.4689,-6.4689,-6.4689,-6.4689,-6.4689,-6.4689,-6.4689,-6.4689,-6.4689,-6.4689,-6.4689,-6.4689,-6.4672,-6.4637,-6.4533,-6.434,-6.3878,-6.3643,-6.3459,-6.2335,-6.1547,-6.1102,-6.1102,0.0,0.0,-6.034,-6.058,-6.0919,-6.0047,-6.0408,-6.1086,-6.1086,-6.1086,-6.1086,-6.1086,-6.111,-6.0448,-5.7795,-5.7173,-5.7197,-5.7197,-5.7197,-5.7122,-5.6758,-5.6692,-5.6705,-5.6718,-5.6713,-5.668,-5.668,-5.6707,-5.6721,-5.6695,-5.3483,-5.12,-5.1196,0.0,0.0,-5.0267,-5.0306,-4.9824,-4.8581,-4.8371,-4.7997,-4.7339,-4.6741,-4.6384,-4.6384,-4.6262,-4.5785,-4.5004,-4.5233,-4.5593,-4.597,-4.4338,-4.3584,0.0,0.0,0.0,0.0,0.0,0.0,0.0,0.0,0.0,0.0,0.0,0.0,0.0,0.0,0.0,-6.0844,-6.1195,-6.1353,-6.1494,-6.1511,-6.1458,-6.1318,-6.1423,-6.1739,-6.2319,-6.3126,-6.3846,-6.446,-6.4636,-6.4689,-6.4689,-6.4689,-6.4689,-6.4689,-6.4689,-6.4689,-6.4689,-6.4689,-6.4689,-6.4689,0.0,0.0,-6.4689,-6.4689,-6.4689,-6.4689,-6.4689,-6.4689,-6.4637,-6.4182,-6.3385,-6.2569,-6.2952,-6.28,-6.2257,-6.1547,-6.1227,-6.1102,-6.1102,-6.1102,-6.1086,-6.0937,-6.0953,-6.1061,-6.0879,-6.097,0.0,-6.1111,-6.1111,-6.1111,-6.1111,-6.1118,-6.0967,-6.0372,-6.0237,-6.0241,-6.0241,-6.0241,-5.9548,-5.7155,-5.6707,-5.669,-5.6697,-5.6717,-5.668,-5.668,-5.6685,-5.6711,-5.6689,-5.3467,-5.1201,-5.119,-5.2103,-5.2544,-5.2103,-5.1615,-5.0892,-4.9913,-4.8865,-4.7997,-4.7339,-4.7189,-4.7115,-4.7115,-4.7087,-4.6976,-4.6786,-4.6169,-4.5898,-4.5985,-4.5642,-4.5289,0.0,0.0,0.0,0.0,0.0,0.0,0.0,0.0,0.0,0.0,0.0,-5.6683,0.0,0.0,-6.0405,-6.1178,-6.13,-6.13,-6.13,-6.13,-6.13,-6.13,-6.1634,-6.2143,-6.2915,-6.3688,-6.4302,-6.4688,-6.4689,-6.4689,-6.4689,-6.4689,-6.4689,-6.4689,-6.4689,-6.4689,-6.4689,-6.4689,-6.4689,-6.4689,-6.4689,-6.4689,-6.4689,-6.4689,-6.4689,-6.4689,-6.4689,-6.4689,-6.4637,-6.4057,-6.3087,-6.2037,-6.2335,-6.2076,-6.1506,-6.121,-6.1102,-6.1102,-6.1102,-6.1102,-6.1102,-6.1102,-6.1102,-6.1102,-6.1102,-6.1102,-6.1102,-6.1102,-6.1102,-6.1102,-6.1102,-6.1119,-6.1119,-6.1119,-6.1118,-6.1093,-6.1093,-6.1093,-6.0645,-5.9199,-5.8887,-5.8911,-5.8916,-5.8877,-5.8385,-5.6911,-5.669,-5.6008,-5.4195,-5.2317,-5.1182,-5.1182,-5.1789,-5.2063,-5.1911,-5.1304,-5.0699,-5.0242,-4.9,-4.8132,-4.7803,-4.7474,-4.7309,-4.7309,-4.7304,-4.7287,-4.7287,-4.6866,-4.6629,-4.6629,-4.6629,-4.6269,0.0,0.0,0.0,0.0,0.0,0.0,0.0,0.0,-5.4107,-5.4585,-5.5891,-5.7117,-5.7859,-5.9505,-6.0827,-6.1084,-6.0979,-6.0957,-6.1055,-6.1195,-6.1353,-6.1494,-6.2161,-6.288,-6.353,-6.4267,-6.4689,-6.4689,-6.4689,-6.4689,-6.4689,-6.4689,-6.4689,-6.4689,-6.4689,-6.4689,-6.4689,-6.4689,-6.4689,-6.4689,-6.4689,-6.4689,-6.4689,-6.4689,-6.4689,-6.4689,-6.4689,-6.4568,-6.4305,-6.3842,-6.2897,-6.1854,-6.1854,-6.1506,-6.1102,-6.1102,-6.1102,-6.1102,-6.1102,-6.1102,-6.1102,-6.1102,-6.1102,-6.1102,-6.1102,-6.1102,-6.1102,-6.1102,-6.1102,-6.1102,-6.1102,-6.1102,-6.1102,-6.1102,-6.1102,-6.1102,-6.1102,-6.1102,-6.1094,-6.1094,-6.1102,-6.1093,-6.1089,-6.1103,-6.0108,-5.7163,-5.6686,-5.5361,-5.1654,-5.1187,-5.1213,-5.1216,-5.1214,-5.1214,-5.1214,-5.0689,-5.033,-5.0196,-4.9254,-4.8611,-4.8476,-4.7848,-4.7489,-4.7489,-4.7369,-4.7309,-4.7309,-4.7309,-4.7309,-4.7309,-4.7309,-4.6931,-5.5062,-5.4512,-5.3825,-5.368,-5.3415,-5.3094,0.0,0.0,-5.4068,-5.3673,-5.5188,-5.6761,-5.7541,-5.8244,-5.9115,-6.0323,-5.994,-5.9673,-6.0165,-6.0844,-6.1546,-6.2196,-6.2968,-6.3495,-6.3583,-6.4267,-6.4689,-6.4689,-6.4689,-6.4689,-6.4689,-6.4689,-6.4689,-6.4689,-6.4689,-6.4689,-6.4689,-6.4689,-6.4689,-6.4689,-6.4689,-6.4689,-6.4689,-6.4689,-6.4689,-6.4689,-6.4689,-6.4075,-6.3104,-6.3028,-6.2274,-6.1227,-6.1227,-6.1144,-6.1102,-6.1102,-6.1102,-6.1102,-6.1102,-6.1102,-6.1102,-6.1102,-6.1102,-6.1102,-6.1102,-6.1102,-6.1102,-6.1102,-6.1102,-6.1102,-6.1102,-6.1102,-6.1102,-6.1102,-6.1102,-6.1102,-6.1102,-6.1102,-6.1102,-6.1127,-6.1111,-6.1111,-6.1078,-6.1094,-6.0113,-5.714,-5.6723,-5.5382,-5.169,-5.1212,-5.1186,-5.1214,-5.1214,-5.1214,-5.1214,-5.1154,-5.0808,-5.0226,-5.0061,-4.9763,-4.9224,-4.8521,-4.8177,-4.8177,-4.7593,-4.7309,-4.7309,-4.7309,-4.7309,-4.7309,-4.7309,-4.7234,-5.4417,-5.3591,-5.3025,0.0,-5.2817,-5.2624,-5.2445,-5.3083,-5.3806,-5.4,-5.5673,-5.722,-5.754,-5.8422,-5.9143,0.0,-5.9253,-5.9524,-6.0176,-6.1226,-6.2213,-6.3003,-6.3776,-6.425,-6.425,-6.453,-6.4689,-6.4689,-6.4689,-6.4689,-6.4689,-6.4689,-6.4689,-6.4689,-6.4689,-6.4689,-6.4689,-6.4689,-6.4689,-6.4689,-6.4689,-6.4689,-6.4689,-6.4689,-6.4533,-6.4182,-6.4182,-6.3496,-6.2374,-6.2374,-6.1854,-6.1102,-6.1102,-6.1102,-6.1102,-6.1102,-6.1102,-6.1102,-6.1102,-6.1102,-6.1102,-6.1102,-6.1102,-6.1102,-6.1102,-6.1102,-6.1102,-6.1102,-6.1102,-6.1102,-6.1102,-6.1102,-6.1102,-6.1102,-6.1102,-6.1102,-6.1102,-6.1102,-6.1102,-6.1102,-6.1102,-6.1102,-6.1102,-6.1119,-6.0696,-5.9461,-5.5963,-5.2953,-5.1404,-5.1213,-5.1214,-5.1214,-5.1214,-5.1214,-5.1214,-5.1214,-5.1094,-5.0779,-5.0405,-5.0076,-4.9838,-4.9209,-4.8686,-4.8297,-4.8012,-4.7683,-4.7309,-4.7309,-4.7309,-4.7309,-4.7309,-4.7309,-5.3802,0.0,0.0,-5.2445,-5.2409,-5.2459,-5.2622,-5.3218,-5.3894,-5.4638,-5.6162,-5.7331,-5.7348,-5.8157,-5.8657,-5.8258,-5.8562,-5.9151,-6.003,-6.1326,-6.2486,-6.3239,-6.4147,-6.4689,-6.4689,-6.4689,-6.4689,-6.4689,-6.4689,-6.4689,-6.4689,-6.4689,-6.4689,-6.4689,-6.4689,-6.4689,-6.4689,-6.4689,-6.4689,-6.4689,-6.4689,-6.4689,-6.4689,-6.4689,-6.4376,-6.3788,-6.3788,-6.3124,-6.1997,-6.1997,-6.1652,-6.1102,-6.1102,-6.1102,-6.1102,-6.1102,-6.1102,-6.1102,-6.1102,-6.1102,-6.1102,-6.1102,-6.1102,-6.1102,-6.1102,-6.1102,-6.1102,-6.1102,-6.1102,-6.1102,-6.1102,-6.1102,-6.1102,-6.1102,-6.1102,-6.1102,-6.1102,-6.1102,-6.1102,-6.1102,-6.1102,-6.1102,-6.1102,-6.1102,-6.0887,-6.034,-5.5809,-5.2389,-5.2154,-5.1592,-5.1214,-5.1214,-5.1214,-5.1214,-5.1214,-5.1214,-5.1214,-5.1214,-5.0719,-5.0465,-5.0465,-4.9883,-4.9314,-4.8835,-4.8476,-4.8057,-4.7578,-4.7399,-4.7309,-4.7309,-4.7309,-4.7309,0.0,0.0,-5.2957,-5.2499,-5.2409,-5.2556,-5.3218,-5.3964,-5.4655,-5.54,-5.6183,-5.6719,-5.6719,-5.6735,-5.6965,-5.7551,-5.7625,-5.8099,-5.9339,-6.0753,-6.19,-6.2628,-6.3886,-6.4689,0.0,-6.4689,-6.4689,-6.4689,-6.4689,-6.4689,-6.4689,-6.4689,-6.4689,-6.4689,-6.4689,-6.4689,-6.4689,-6.4689,-6.4689,-6.4689,-6.4689,-6.4689,-6.4689,-6.4689,-6.4376,-6.3788,-6.3788,-6.3124,-6.1997,-6.1997,-6.1652,-6.1102,-6.1102,-6.1102,-6.1102,-6.1102,-6.1102,-6.1102,-6.1102,-6.1102,-6.1102,-6.1102,-6.1102,-6.1102,-6.1102,-6.1102,-6.1102,-6.1102,-6.1102,-6.1102,-6.1102,-6.1102,-6.1102,-6.1102,-6.1102,-6.1102,-6.1102,-6.1102,-6.1102,-6.1102,-6.1102,-6.1102,-6.1102,-6.1102,-6.0461,-5.848,-5.6731,-5.5375,-5.4501,-5.2535,-5.1214,-5.1214,-5.1214,-5.1214,-5.1214,-5.1214,-5.1214,-5.1214,-5.1199,-5.1184,-5.1184,-5.051,-5.0151,-5.0136,-4.8925,-4.8282,-4.8252,-4.7623,-4.7309,-4.7309,-4.7309,-4.7309,-5.3518,0.0,-5.2589,-5.2445,-5.2721,-5.3135,-5.3367,-5.4361,-5.5284,-5.5532,-5.62,-5.668,-5.668,-5.668,-5.6757,-5.6987,-5.7327,-5.8083,-5.9502,-6.045,-6.1448,-6.2701,-6.3211,0.0,0.0,0.0,0.0,-6.4689,-6.4689,-6.4533,-6.4129,-6.4093,-6.4093,-6.4093,-6.4093,-6.4093,-6.4093,-6.4498,-6.4305,-6.3513,-6.3513,-6.3733,-6.4111,-6.3697,-6.3162,-6.2591,-6.2591,-6.2156,-6.14,-6.14,-6.1293,-6.1102,-6.1102,-6.1102,-6.1102,-6.1102,-6.1102,-6.1102,-6.1102,-6.1102,-6.1102,-6.1102,-6.1102,-6.1102,-6.1102,-6.1102,-6.1102,-6.1102,-6.1102,-6.1102,-6.1102,-6.1102,-6.1102,-6.1102,-6.1102,-6.1102,-6.1102,-6.1102,-6.1102,-6.1102,-6.1102,-6.1109,-6.1097,-5.9989,-5.8638,-5.7307,-5.5643,-5.4144,-5.31,-5.2311,-5.1693,-5.1274,-5.1214,-5.1214,-5.1214,-5.1214,-5.1214,-5.1214,-5.1214,-5.1214,-5.1214,-5.0958,-5.0629,-5.0196,-4.9762,-4.9149,-4.8282,-4.8057,-4.7728,-4.7309,-4.7309,-4.7309,-5.3209,-5.2659,-5.2475,-5.2688,-5.3086,-5.3549,-5.408,-5.514,-5.6001,-5.6001,-5.6581,-5.6995,-5.673,-5.668,-5.6779,-5.7044,-5.7425,-5.821,-5.9644,-6.041,-6.1231,-6.2416,-6.2762,-6.2914,0.0,0.0,0.0,-6.4039,-6.4039,-6.3895,-6.3496,-6.3459,-6.3459,-6.3459,-6.3459,-6.3459,-6.3459,-6.3842,-6.366,-6.2914,-6.2914,-6.3104,-6.3459,-6.3066,-6.2569,-6.1997,-6.1997,-6.1669,-6.1102,-6.1102,-6.1102,-6.1102,-6.1102,-6.1102,-6.1102,-6.1102,-6.1102,-6.1102,-6.1102,-6.1102,-6.1102,-6.1102,-6.1102,-6.1102,-6.1102,-6.1102,-6.1102,-6.1102,-6.1102,-6.1102,-6.1102,-6.1102,-6.1102,-6.1102,-6.1102,-6.1102,-6.1102,-6.1102,-6.1102,-6.1102,-6.1117,-6.11,-6.1088,-5.9245,-5.7492,-5.6721,-5.5308,-5.3926,-5.2699,-5.2351,-5.1947,-5.1289,-5.1214,-5.1214,-5.1214,-5.1214,-5.1214,-5.1214,-5.1214,-5.1214,-5.1214,-5.1214,-5.102,-5.0554,-5.0315,-4.9777,-4.8985,-4.8506,-4.8072,-4.7653,-4.7414,-4.7309,-5.2753,-5.2516,-5.2539,-5.3235,-5.345,-5.3811,-5.5251,-5.62,-5.673,-5.6697,-5.7276,-5.7558,0.0,0.0,-5.6912,-5.7624,-5.7773,-5.8303,-5.9744,-6.0491,-6.1116,0.0,0.0,0.0,0.0,0.0,0.0,-6.28,0.0,-6.2876,-6.2838,-6.2838,-6.2838,-6.2838,-6.2838,-6.2838,-6.2838,-6.2838,-6.2838,-6.2914,-6.2838,-6.2838,-6.2838,-6.2838,-6.2491,-6.1957,-6.1957,-6.1628,-6.1102,-6.1102,-6.1102,-6.1102,-6.1102,-6.1102,-6.1102,-6.1102,-6.1102,-6.1102,-6.1102,-6.1102,-6.1102,-6.1102,-6.1102,-6.1102,-6.1102,-6.1102,-6.1102,-6.1102,-6.1102,-6.1102,-6.1102,-6.1102,-6.1102,-6.1102,-6.1102,-6.1102,-6.1102,-6.1102,-6.1061,-6.0969,-6.0879,-6.0792,-6.0792,-5.8685,-5.6869,-5.6572,-5.5785,-5.47,-5.3354,-5.2636,-5.1977,-5.1289,-5.1214,-5.1214,-5.1214,-5.1214,-5.1214,-5.1214,-5.1214,-5.1229,-5.1274,-5.1274,-5.1289,-5.1319,-5.0659,-5.0315,-5.024,-4.9045,-4.8386,-4.8267,-4.7653,-4.7339,-5.2734,-5.2409,-5.2539,-5.3235,-5.3831,-5.444,-5.5383,-5.6614,-5.7342,-5.6796,-5.7276,-5.7558,0.0,0.0,0.0,-5.6945,-5.7425,0.0,-5.9049,-5.9807,0.0,-6.1235,0.0,-6.1564,-6.1564,-6.1564,0.0,0.0,-6.2391,-6.2685,-6.2257,-6.2218,-6.2218,-6.2218,-6.2218,-6.2218,-6.2218,-6.1773,-6.2014,-6.2876,-6.1974,-6.1773,-6.2218,-6.1773,-6.1482,-6.1334,-6.1334,-6.1252,-6.1102,-6.1102,-6.1102,-6.1102,-6.1102,-6.1102,-6.1102,-6.1102,-6.1102,-6.1102,-6.1102,-6.1102,-6.1102,-6.1102,-6.1102,-6.1102,-6.1102,-6.1102,-6.1102,-6.1102,-6.1102,-6.1102,-6.1102,-6.1102,-6.1102,-6.1102,-6.1102,-6.1102,-6.1102,-6.1102,-6.0686,-5.9145,-5.77,-5.6715,-5.6715,-5.6143,-5.5661,-5.5566,-5.5365,-5.47,-5.3354,-5.3039,-5.2501,-5.1334,-5.1214,-5.1214,-5.1214,-5.1214,-5.1214,-5.1214,-5.1214,-5.1439,-5.1932,-5.1947,-5.2172,-5.2665,-5.2516,-5.1947,-5.0928,-5.0631,-4.9718,-4.8282,-4.8117,-4.7773,-5.2663,-5.2605,-5.3003,-5.3715,-5.4423,-5.5251,-5.6332,-5.7458,-5.8154,-5.774,-5.7988,0.0,-5.7309,0.0,0.0,0.0,0.0,0.0,-5.928,-6.0026,-6.0639,0.0,-6.1102,0.0,-6.1102,-6.1102,-6.1102,0.0,-6.1709,-6.1974,-6.1628,-6.1588,-6.1588,-6.1588,-6.1588,-6.1588,-6.1588,-6.1252,-6.1458,-6.2076,-6.14,-6.1293,-6.1588,-6.1252,-6.1102,-6.1102,0.0,-6.1102,-6.1102,-6.1102,-6.1102,-6.1102,-6.1102,-6.1102,-6.1102,-6.1102,-6.1102,-6.1102,-6.1102,-6.1102,-6.1102,-6.1102,-6.1102,-6.1102,-6.1102,-6.1102,-6.1102,-6.1102,-6.1102,-6.1102,-6.1102,-6.1102,-6.1102,-6.1102,-6.1102,-6.1102,-6.1102,-6.0652,-5.9529,-5.7279,-5.5951,-5.5196,-5.519,-5.519,-5.5194,-5.5194,-5.5194,-5.47,-5.3354,-5.3174,-5.268,-5.1349,-5.1214,-5.1214,-5.1214,-5.1214,-5.1214,-5.1214,-5.1214,-5.1379,-5.1753,-5.1768,-5.2082,-5.274,-5.2755,-5.2531,-5.2082,-5.1498,-5.0661,-4.9568,-4.8985,-4.8356,-5.2539,-5.2887,-5.3599,-5.4345,-5.5036,-5.5979,-5.7458,-5.8369,-5.8899,-5.8899,0.0,-5.8668,-5.7939,-5.7193,-5.6895,-5.7541,0.0,-5.9115,-5.9761,-6.0572,-6.1102,-6.1102,-6.1102,-6.1102,-6.1102,-6.1102,-6.1102,-6.1102,-6.1102,-6.1102,-6.1102,-6.1102,-6.1102,-6.1102,-6.1102,-6.1102,-6.1102,-6.1102,-6.1102,-6.1102,-6.1102,-6.1102,-6.1102,-6.1102,-6.1102,-6.1102,-6.1102,-6.1102,-6.1102,-6.1102,-6.1102,-6.1102,-6.1102,-6.1102,-6.1102,-6.1102,-6.1102,-6.1102,-6.1102,-6.1102,-6.1102,-6.1102,-6.1102,-6.1102,-6.1102,-6.1102,-6.1102,-6.1102,-6.1102,-6.1102,-6.1102,-6.1102,-6.1102,-6.1102,-6.1102,-6.1061,-6.0919,-5.9778,-5.8101,-5.5835,-5.5274,-5.5213,-5.519,-5.5194,-5.5194,-5.5194,-5.5215,-5.4735,-5.3447,-5.3174,-5.2636,-5.1349,-5.1214,-5.1214,-5.1214,-5.1214,-5.1214,-5.1214,-5.1214,-5.1259,-5.1349,-5.1349,-5.1663,-5.2321,-5.2411,-5.271,-5.3174,-5.2037,-5.1394,-5.1184,-4.9972,-4.9045,-5.2442,-5.2887,-5.3599,-5.4345,-5.5036,-5.5979,-5.7458,-5.8369,0.0,0.0,-5.8899,-5.8668,-5.7939,-5.7193,0.0,-5.6862,0.0,0.0,0.0,0.0,-6.1102,0.0,0.0,0.0,0.0,0.0,0.0,0.0,0.0,-6.1102,-6.1102,-6.1102,-6.1102,-6.1102,-6.1102,-6.1102,-6.1102,-6.1102,-6.1102,-6.1102,-6.1102,-6.1102,-6.1102,-6.1102,-6.1102,-6.1102,-6.1102,0.0,-6.1102,-6.1102,-6.1102,-6.1102,-6.1102,-6.1102,-6.1102,-6.1102,-6.1102,-6.1102,-6.1102,-6.1102,-6.1102,-6.1102,-6.1102,-6.1102,-6.1102,-6.1102,-6.1102,-6.1102,-6.1102,-6.1102,-6.1102,-6.1102,-6.1102,-6.1102,-6.1102,-6.0877,-6.0028,-5.836,-5.6881,-5.6451,-5.5717,-5.521,-5.5215,-5.5194,-5.5194,-5.5194,-5.52,-5.4849,-5.3883,-5.3114,-5.2282,-5.1287,-5.1214,-5.1214,-5.1214,-5.1214,-5.1214,-5.1214,-5.1214,-5.1468,-5.2007,-5.2037,-5.2336,-5.2995,-5.3563,-5.3638,-5.3174,-5.295,-5.2276,-5.1199,-5.0375,-4.9718,-5.2821,-5.345,-5.4125,-5.487,-5.5636,-5.6564,-5.8038,0.0,0.0,0.0,-5.9429,-5.8784,-5.8436,0.0,0.0,0.0,0.0,0.0,0.0,0.0,0.0,0.0,0.0,0.0,0.0,0.0,0.0,0.0,0.0,-6.1102,-6.1102,-6.1102,-6.1102,-6.1102,-6.1102,-6.1102,-6.1102,-6.1102,-6.1102,-6.1102,-6.1102,-6.1102,-6.1102,-6.1102,-6.1102,-6.1102,-6.1102,-6.1102,-6.1102,-6.1102,-6.1102,-6.1102,-6.1102,-6.1102,-6.1102,-6.1102,-6.1102,-6.1102,-6.1102,-6.1102,-6.1102,-6.1102,-6.1102,-6.1102,-6.1102,-6.1102,-6.1102,-6.1102,-6.1102,-6.1102,-6.1102,-6.1102,-6.1102,-6.1102,-6.0692,-5.9881,-5.8362,-5.7292,-5.646,-5.5967,-5.5516,-5.5194,-5.5194,-5.5194,-5.52,-5.5215,-5.518,-5.4797,-5.3649,-5.2528,-5.1631,-5.1242,-5.1214,-5.1214,-5.1214,-5.1214,-5.1214,-5.1214,-5.1214,-5.1364,-5.1678,-5.1693,-5.1992,-5.265,-5.2995,-5.3339,-5.3713,-5.301,-5.2516,-5.2217,-5.1214,-5.0391,-5.3218,-5.3964,-5.4655,-5.54,-5.615,-5.7028,-5.8353,-5.8784,0.0,0.0,-5.9827,-5.8899,-5.8899,0.0,0.0,0.0,0.0,0.0,0.0,0.0,0.0,0.0,0.0,0.0,0.0,0.0,0.0,0.0,0.0,0.0,-6.1102,-6.1102,-6.1102,-6.1102,-6.1102,-6.1102,-6.1102,-6.1102,-6.1102,-6.1102,-6.1102,-6.1102,-6.1102,-6.1102,-6.1102,-6.1102,-6.1102,0.0,0.0,-6.1102,-6.1102,-6.1102,-6.1102,-6.1102,-6.1102,-6.1102,-6.1102,-6.1102,-6.1102,-6.1102,-6.1102,-6.1102,-6.1102,-6.1102,-6.1102,-6.1102,-6.1102,-6.1102,-6.1102,-6.1102,-6.1102,-6.1102,-6.1061,-6.0835,-6.0173,-5.904,-5.7054,-5.6669,-5.6424,-5.5381,-5.5194,-5.5194,-5.5194,-5.5074,-5.496,-5.4999,-5.4838,-5.4375,-5.3368,-5.2052,-5.1217,-5.1197,-5.1214,-5.1214,-5.1214,-5.1214,-5.1214,-5.1214,-5.1214,-5.1214,-5.1214,-5.1214,-5.1468,-5.1977,-5.2127,-5.2725,-5.3773,-5.271,-5.2471,-5.295,-5.1768,-5.0945,-5.3218,-5.3964,-5.4655,-5.54,-5.615,-5.6895,-5.7707,0.0,0.0,-5.9943,-5.9463,-5.8899,-5.8899,-5.7674,0.0,0.0,0.0,0.0,0.0,0.0,0.0,0.0,0.0,0.0,0.0,0.0,0.0,0.0,0.0,0.0,-6.1102,-6.1102,-6.1102,-6.1102,-6.1102,-6.1102,-6.1102,-6.1102,-6.1102,-6.1102,-6.1102,-6.1102,-6.1102,-6.1102,-6.1102,-6.1102,-6.1102,0.0,0.0,-6.1102,-6.1102,-6.1102,-6.1102,-6.1102,-6.1102,-6.1102,-6.1102,-6.1102,-6.1102,-6.1102,-6.1102,-6.1102,-6.1102,-6.1102,-6.1102,-6.1102,-6.1102,-6.1102,-6.1102,-6.1102,-6.1102,-6.1102,-6.0877,-5.9984,-5.9647,-5.904,-5.7054,-5.684,-5.669,-5.5461,-5.5194,-5.5194,-5.5194,-5.47,-5.4296,-5.4266,-5.3762,-5.3368,-5.3233,-5.203,-5.1197,-5.1182,-5.1214,-5.1214,-5.1214,-5.1214,-5.1214,-5.1214,-5.1214,-5.1214,-5.1214,-5.1214,-5.1244,-5.1304,-5.1887,-5.2261,-5.2381,-5.2261,-5.2232,-5.2276,-5.1558,-5.1184,-5.3881,-5.4258,-5.4792,-5.5968,-5.6481,-5.6879,-5.7624,0.0,0.0,-5.9844,-5.9413,-5.8899,-5.8899,-5.7674,-5.7077,0.0,0.0,0.0,0.0,0.0,0.0,0.0,0.0,0.0,0.0,0.0,0.0,0.0,0.0,0.0,-6.1102,-6.1102,-6.1102,-6.1102,-6.1102,-6.1102,-6.1102,-6.1102,-6.1102,-6.1102,-6.1102,-6.1102,-6.1102,-6.1102,-6.1102,-6.1102,-6.1102,0.0,0.0,-6.1102,-6.1102,-6.1102,-6.1102,-6.1102,-6.1102,-6.1102,-6.1102,-6.1102,-6.1102,-6.1102,-6.1102,-6.1102,-6.1102,-6.1102,-6.1102,-6.1102,-6.1102,-6.1102,-6.1102,-6.1102,-6.1102,-6.1102,-6.0548,-5.8316,-5.8254,-5.8162,-5.6198,-5.5845,-5.5791,-5.5295,-5.5194,-5.5194,-5.5194,-5.464,-5.4336,-5.4726,-5.3881,-5.2896,-5.2107,-5.1531,-5.1214,-5.1214,-5.1214,-5.1214,-5.1214,-5.1214,-5.1214,-5.1214,-5.1214,-5.1214,-5.1214,-5.1214,-5.1214,-5.1214,-5.1468,-5.1813,-5.2202,-5.1798,-5.1813,-5.2187,-5.1528,-5.0958,-5.4262,-5.449,-5.4858,-5.6316,-5.668,-5.6829,0.0,0.0,0.0,-5.9247,-5.8933,-5.8568,-5.8568,-5.7541,-5.7094,0.0,0.0,0.0,0.0,0.0,0.0,0.0,0.0,0.0,0.0,0.0,0.0,0.0,0.0,0.0,-6.1102,-6.1102,-6.1102,-6.1102,-6.1102,-6.1102,-6.1102,-6.1102,-6.1102,-6.1102,-6.1102,-6.1102,-6.1102,-6.1102,-6.1102,-6.1102,-6.1102,0.0,0.0,-6.1102,-6.1235,-6.1401,-6.1202,-6.1235,-6.1401,-6.1185,-6.1102,-6.1102,-6.1102,-6.1102,-6.1102,-6.1102,-6.1102,-6.1102,-6.1102,-6.1102,-6.1102,-6.1102,-6.0877,-6.0649,-6.0649,-6.0447,-5.9603,-5.7197,-5.7371,-5.7559,-5.5601,-5.5511,-5.5626,-5.5295,-5.5194,-5.5134,-5.494,-5.4341,-5.4025,-5.4374,-5.3383,-5.2242,-5.1319,-5.1214,-5.1214,-5.1214,-5.1214,-5.1214,-5.1214,-5.1214,-5.1214,-5.1214,-5.1214,-5.1214,-5.1214,-5.1214,-5.1214,-5.1214,-5.1214,-5.1454,-5.1902,-5.1439,-5.1454,-5.1887,-5.1439,-5.0765,-5.4129,-5.449,-5.4858,-5.6316,-5.668,-5.668,0.0,0.0,0.0,-5.7806,-5.7806,-5.7806,-5.7806,-5.7193,-5.6928,-5.7674,0.0,0.0,0.0,0.0,0.0,0.0,0.0,0.0,0.0,0.0,0.0,0.0,0.0,0.0,-6.1102,-6.1102,-6.1102,-6.1102,-6.1102,-6.1102,-6.1102,-6.1102,-6.1102,-6.1102,-6.1102,-6.1102,-6.1102,-6.1102,-6.1102,-6.1102,0.0,0.0,0.0,-6.1102,-6.1516,-6.2138,-6.1384,-6.1533,-6.2122,-6.1367,-6.1102,-6.1102,-6.1102,-6.1102,-6.1102,-6.1102,-6.1102,-6.1102,-6.1102,-6.1102,-6.1102,-6.1102,-6.0404,-5.9603,-5.9603,-5.8889,-5.7869,-5.6863,-5.7371,-5.7559,-5.5601,-5.6169,-5.6705,-5.5461,-5.5194,-5.4985,-5.4326,-5.3653,-5.3058,-5.263,-5.1785,-5.1229,-5.1214,-5.1214,-5.1214,-5.1214,-5.1214,-5.1214,-5.1214,-5.1214,-5.1214,-5.1214,-5.1214,-5.1214,-5.1214,-5.1214,-5.1214,-5.1214,-5.1214,-5.1214,-5.1229,-5.1214,-5.1214,-5.1229,-5.1214,-5.0526,-5.4394,-5.4854,-5.5466,-5.6448,-5.668,-5.668,-5.668,0.0,0.0,0.0,-5.779,-5.779,-5.779,-5.7193,-5.6928,-5.7674,0.0,0.0,0.0,0.0,0.0,0.0,0.0,0.0,0.0,0.0,0.0,0.0,0.0,0.0,-6.1102,-6.1566,-6.1616,-6.1136,-6.1102,-6.1102,-6.1102,-6.1102,-6.1102,-6.1102,-6.1102,-6.1102,-6.1102,-6.1102,-6.1384,0.0,0.0,0.0,0.0,-6.2593,-6.2411,-6.2188,-6.1914,-6.1682,-6.1417,-6.1202,-6.1102,-6.1102,-6.1102,-6.1102,-6.1102,-6.1102,-6.1102,-6.1102,-6.1102,-6.1102,-6.0977,-6.0259,-5.9838,-5.9278,-5.7885,-5.7823,-5.7683,-5.6051,-5.6378,-5.6735,-5.5466,-5.5526,-5.554,-5.466,-5.4521,-5.4421,-5.4074,-5.3166,-5.2318,-5.1679,-5.1404,-5.1214,-5.1214,-5.1214,-5.1214,-5.1214,-5.1214,-5.1214,-5.1214,-5.1214,-5.1214,-5.1214,-5.1214,-5.1214,-5.1214,-5.1214,-5.1214,-5.1214,-5.1214,-5.1214,-5.1214,-5.1214,-5.0943,-5.048,-4.9628,-4.8985,0.0,-5.5019,-5.5764,-5.6514,-5.668,0.0,0.0,0.0,0.0,0.0,0.0,0.0,0.0,0.0,0.0,0.0,0.0,0.0,0.0,0.0,0.0,0.0,0.0,0.0,0.0,0.0,0.0,0.0,0.0,0.0,-6.1914,-6.2345,-6.2378,-6.1931,-6.1931,-6.1931,-6.1931,-6.1931,-6.1931,-6.1931,-6.1931,-6.1931,-6.1931,-6.1931,-6.2162,0.0,0.0,0.0,0.0,-6.3017,-6.2801,-6.2569,-6.198,-6.1741,-6.1592,-6.1235,-6.1102,-6.1102,-6.1102,-6.1102,-6.1102,-6.1102,-6.1102,-6.1102,-6.1102,-6.0835,-6.0404,-5.9794,-5.904,-5.8162,-5.6927,-5.6815,-5.6686,-5.5516,-5.5651,-5.5842,-5.5,-5.482,-5.4625,-5.3952,-5.3817,-5.3717,-5.3305,-5.2687,-5.1989,-5.1307,-5.1178,-5.1214,-5.1214,-5.1214,-5.1214,-5.1214,-5.1214,-5.1214,-5.1214,-5.1214,-5.1214,-5.1214,-5.1214,-5.1214,-5.1214,-5.1214,-5.1214,-5.1214,-5.1214,-5.1214,-5.1214,-5.0928,-5.0511,-4.9853,-4.8775,-4.8282,0.0,0.0,0.0,0.0,0.0,0.0,0.0,0.0,0.0,0.0,0.0,0.0,0.0,0.0,0.0,0.0,0.0,0.0,0.0,0.0,0.0,0.0,0.0,0.0,0.0,0.0,0.0,0.0,0.0,0.0,-6.3136,-6.3235,-6.3252,-6.3252,-6.3318,-6.3328,-6.3315,-6.3315,-6.3315,-6.3315,-6.3315,-6.3315,-6.3315,-6.3315,-6.3348,0.0,0.0,0.0,0.0,-6.2586,-6.2669,-6.3116,-6.1715,-6.1674,-6.228,-6.1401,-6.1102,-6.1102,-6.1102,-6.1102,-6.1102,-6.1102,-6.1102,-6.1102,-6.1102,-6.0404,-5.9603,-5.9499,-5.8116,-5.659,-5.6508,-5.5869,-5.5194,-5.5194,-5.5149,-5.4955,-5.4341,-5.4177,-5.3937,-5.3249,-5.3114,-5.2905,-5.2247,-5.2127,-5.1917,-5.1304,-5.1214,-5.1214,-5.1214,-5.1214,-5.1214,-5.1214,-5.1214,-5.1214,-5.1214,-5.1214,-5.1214,-5.1214,-5.1214,-5.1214,-5.1214,-5.1214,-5.1214,-5.1214,-5.1169,-5.1154,-5.1154,-5.039,-4.9793,-4.9224,-4.8521,-4.8222,-5.4311,0.0,-5.5764,-5.6514,-5.668,0.0,0.0,0.0,0.0,0.0,0.0,0.0,0.0,0.0,0.0,0.0,0.0,0.0,0.0,0.0,0.0,0.0,0.0,0.0,0.0,0.0,0.0,0.0,0.0,-6.0465,-6.1995,-6.2594,-6.2903,-6.2903,-6.344,-6.3592,-6.3289,-6.3315,-6.3315,-6.3315,-6.3315,-6.3315,-6.3315,-6.3315,-6.3587,0.0,0.0,0.0,-6.4067,-6.3365,-6.2835,-6.2437,-6.2105,-6.1715,-6.1384,-6.1185,-6.1102,-6.1102,-6.1102,-6.1102,-6.1102,-6.1102,-6.1102,-6.1102,-6.1102,-6.0404,-5.9455,-5.8664,-5.7559,-5.6411,-5.5735,-5.5381,-5.5194,-5.5194,-5.4805,-5.4401,-5.4236,-5.3803,-5.3234,-5.2561,-5.2441,-5.2217,-5.1558,-5.1454,-5.1394,-5.1244,-5.1214,-5.1214,-5.1214,-5.1214,-5.1214,-5.1214,-5.1214,-5.1214,-5.1214,-5.1214,-5.1214,-5.1214,-5.1214,-5.1214,-5.1214,-5.1214,-5.1214,-5.1214,-5.0689,-5.042,-5.042,-4.9314,-4.8671,-4.8506,-4.7848,-4.7534,-5.4229,-5.5019,-5.5764,-5.6514,-5.668,-5.668,0.0,0.0,0.0,0.0,0.0,0.0,0.0,0.0,0.0,0.0,0.0,0.0,0.0,0.0,0.0,0.0,0.0,0.0,0.0,0.0,0.0,0.0,0.0,-5.9837,-6.1435,-6.1915,-6.2267,-6.2556,-6.2668,-6.2728,-6.2866,-6.285,-6.285,-6.285,-6.3011,-6.3059,-6.3088,-6.3231,-6.3547,0.0,0.0,0.0,-6.3862,-6.3116,-6.2569,-6.2188,-6.1815,-6.145,-6.1102,-6.1102,-6.1102,-6.1102,-6.1102,-6.1102,-6.1102,-6.1102,-6.1102,-6.1002,-6.0548,-5.9691,-5.8799,-5.8238,-5.7054,-5.5819,-5.533,-5.497,-5.4745,-5.4745,-5.4221,-5.3653,-5.3354,-5.2995,-5.2531,-5.1872,-5.1753,-5.1633,-5.1274,-5.1214,-5.1214,-5.1214,-5.1214,-5.1214,-5.1214,-5.1214,-5.1214,-5.1214,-5.1214,-5.1214,-5.1214,-5.1214,-5.1214,-5.1214,-5.1214,-5.1214,-5.1214,-5.1214,-5.1079,-5.0734,-5.0122,-4.9643,-4.9344,-4.8626,-4.8132,-4.7833,-4.7474,-4.7309,-5.4129,-5.4861,-5.5463,-5.6443,-5.668,-5.668,0.0,0.0,0.0,0.0,0.0,0.0,0.0,0.0,0.0,0.0,0.0,0.0,0.0,0.0,0.0,0.0,0.0,0.0,0.0,0.0,0.0,0.0,0.0,-5.9379,-6.0814,-6.0877,-6.1145,-6.1743,-6.1192,-6.1112,-6.1495,-6.1858,-6.2005,-6.2005,-6.2298,-6.2509,-6.2631,-6.2935,-6.3169,-6.3272,0.0,0.0,-6.3083,-6.2354,-6.2056,-6.1989,-6.1334,-6.1102,-6.1102,-6.1102,-6.1102,-6.1102,-6.1102,-6.1102,-6.1061,-6.0919,-6.0877,-6.0692,-5.9691,-5.8664,-5.7838,-5.7744,-5.6451,-5.5044,-5.5044,-5.4551,-5.4057,-5.4057,-5.3533,-5.2875,-5.2321,-5.2127,-5.1887,-5.1334,-5.1214,-5.1214,-5.1214,-5.1214,-5.1214,-5.1214,-5.1214,-5.1214,-5.1214,-5.1214,-5.1214,-5.1214,-5.1214,-5.1214,-5.1214,-5.1214,-5.1214,-5.1214,-5.1214,-5.1169,-5.1065,-5.1065,-5.0765,-5.0061,-4.9449,-4.888,-4.8282,-4.8192,-4.7848,-4.7309,-4.7309,-4.7309,-5.4129,-5.4049,-5.4056,-5.6195,-5.668,-5.668,0.0,0.0,0.0,0.0,0.0,0.0,0.0,0.0,0.0,0.0,0.0,0.0,0.0,0.0,0.0,0.0,0.0,0.0,0.0,0.0,0.0,0.0,0.0,-5.7339,-5.9027,-5.9123,-5.917,-5.9262,-5.917,-5.8719,-5.7937,-5.9692,-6.0614,-6.0614,-6.0646,-6.1132,-6.1964,-6.2003,-6.2463,-6.3282,0.0,-6.2387,-6.2321,-6.1566,-6.1268,-6.1268,-6.1152,-6.1102,-6.1102,-6.1102,-6.1102,-6.1102,-6.1102,-6.1102,-6.0977,-6.0114,-5.9838,-5.9647,-5.8664,-5.7652,-5.6692,-5.623,-5.5262,-5.4356,-5.4356,-5.3847,-5.3339,-5.3339,-5.283,-5.2321,-5.2217,-5.1753,-5.1334,-5.1244,-5.1214,-5.1214,-5.1214,-5.1214,-5.1214,-5.1214,-5.1214,-5.1214,-5.1214,-5.1214,-5.1214,-5.1214,-5.1214,-5.1214,-5.1214,-5.1214,-5.1214,-5.1214,-5.1214,-5.0928,-5.036,-5.0345,-5.0077,-4.9434,-4.8775,-4.8386,-4.8282,-4.7728,-4.7399,-4.7309,-4.7309,-4.7309,-5.3536,-5.349,-5.354,-5.4907,-5.5247,-5.5247,-5.5247,0.0,0.0,0.0,0.0,0.0,0.0,0.0,0.0,0.0,0.0,0.0,0.0,0.0,0.0,0.0,0.0,0.0,0.0,0.0,0.0,0.0,0.0,0.0,-5.7294,-5.7324,-5.7491,-5.7825,-5.7506,-5.7136,-5.66,-5.7247,-5.7897,-5.8589,-5.8763,-5.9061,-5.9539,-5.972,-6.0351,-6.1268,0.0,-6.111,-6.1566,-6.1251,-6.1102,-6.1102,-6.1102,-6.1102,-6.1102,-6.1102,-6.1102,-6.1102,-6.1102,-6.0734,-6.0216,-5.9734,-5.9218,-5.8619,-5.759,-5.6743,-5.5942,-5.5104,-5.4571,-5.4117,-5.3743,-5.3159,-5.265,-5.265,-5.2157,-5.1678,-5.1678,-5.1439,-5.1214,-5.1214,-5.1214,-5.1214,-5.1214,-5.1214,-5.1214,-5.1214,-5.1214,-5.1214,-5.1214,-5.1214,-5.1214,-5.1214,-5.1214,-5.1214,-5.1214,-5.1214,-5.1214,-5.1214,-5.0838,-5.051,-5.0196,-4.9553,-4.9045,-4.879,-4.8087,-4.7758,-4.7758,-4.7459,-4.7309,-4.7309,-4.7309,-4.7309,-5.2783,-5.2837,-5.2954,-5.3506,0.0,-5.3976,-5.3976,0.0,0.0,0.0,0.0,0.0,0.0,0.0,0.0,0.0,0.0,0.0,0.0,0.0,0.0,0.0,0.0,0.0,0.0,0.0,0.0,0.0,0.0,0.0,-5.5912,-5.5993,-5.6166,-5.663,-5.6196,-5.5993,-5.5993,-5.5284,-5.5523,-5.6645,-5.6905,-5.7128,-5.7392,-5.7652,-5.8284,-5.9278,-5.9278,-5.9838,-6.0734,-6.0734,-6.0877,-6.1102,-6.1102,-6.1102,-6.1102,-6.1102,-6.082,-6.0419,-6.0685,-6.0071,-5.9218,-5.8995,-5.828,-5.7355,-5.6359,-5.5625,-5.4916,-5.4003,-5.3743,-5.3623,-5.3084,-5.2456,-5.1977,-5.1977,-5.1588,-5.1214,-5.1214,-5.1214,-5.1214,-5.1214,-5.1214,-5.1214,-5.1214,-5.1214,-5.1214,-5.1214,-5.1214,-5.1214,-5.1214,-5.1214,-5.1214,-5.1214,-5.1214,-5.1154,-5.1005,-5.099,-5.093,-5.0765,-5.0287,-4.9942,-4.9747,-4.882,-4.8222,-4.8057,-4.7563,-4.7309,-4.7309,-4.7309,-4.7309,-4.7309,-4.7309,-4.7309,-5.2027,-5.182,-5.1814,-5.251,0.0,0.0,-5.3976,-5.3343,0.0,-5.268,0.0,0.0,0.0,0.0,0.0,0.0,0.0,0.0,0.0,0.0,0.0,0.0,0.0,0.0,0.0,0.0,0.0,0.0,0.0,0.0,-5.5269,-5.5269,-5.5284,-5.5329,-5.5284,-5.5269,-5.5269,-5.461,-5.464,-5.5329,-5.537,-5.5845,-5.6651,-5.6702,-5.7276,-5.8193,-5.8193,-5.8799,-5.9691,-5.9691,-6.0259,-6.1102,-6.1102,-6.1102,-6.1102,-6.1102,-5.9909,-5.8441,-5.9376,-5.904,-5.8054,-5.7149,-5.6398,-5.5683,-5.4681,-5.3886,-5.3211,-5.2564,-5.2336,-5.2336,-5.2276,-5.1783,-5.1289,-5.1289,-5.1259,-5.1214,-5.1214,-5.1214,-5.1214,-5.1214,-5.1214,-5.1214,-5.1214,-5.1214,-5.1214,-5.1214,-5.1214,-5.1214,-5.1214,-5.1214,-5.1214,-5.1214,-5.1214,-5.0928,-5.0315,-5.0255,-5.0047,-4.9494,-4.9404,-4.9105,-4.8446,-4.8341,-4.7997,-4.7384,-4.7324,-4.7309,-4.7309,-4.7309,-4.7309,-4.7309,-4.7309,-4.7309,-5.1095,-5.1268,-5.1523,-5.1698,0.0,0.0,0.0,0.0,0.0,-5.1742,-5.1433,0.0,0.0,0.0,0.0,0.0,0.0,0.0,0.0,0.0,0.0,0.0,0.0,0.0,0.0,0.0,0.0,0.0,0.0,0.0,-5.5194,-5.5194,-5.5194,-5.5194,-5.5194,-5.4999,-5.4581,-5.4341,-5.4117,-5.3937,-5.3937,-5.4119,-5.448,-5.448,-5.5012,-5.6,-5.642,-5.7148,-5.8087,-5.8489,-5.8889,-5.9355,-6.0631,-6.0343,-5.9214,-5.922,-5.8482,-5.7587,-5.8382,-5.8008,-5.7024,-5.6289,-5.5437,-5.4627,-5.383,-5.3208,-5.2717,-5.2291,-5.1902,-5.1588,-5.1588,-5.1409,-5.1214,-5.1214,-5.1214,-5.1214,-5.1214,-5.1214,-5.1214,-5.1214,-5.1214,-5.1214,-5.1214,-5.1214,-5.1214,-5.1214,-5.1214,-5.1214,-5.1214,-5.1214,-5.1214,-5.1214,-5.0808,-5.0465,-5.0211,-4.9494,-4.8925,-4.8671,-4.87,-4.8536,-4.8297,-4.7893,-4.7563,-4.7309,-4.7309,-4.7309,-4.7309,-4.7309,-4.7309,-4.7309,-4.7309,-4.7309,-5.0059,-5.0482,-5.1016,0.0,0.0,0.0,0.0,0.0,0.0,0.0,0.0,0.0,0.0,0.0,0.0,0.0,0.0,0.0,0.0,0.0,0.0,0.0,0.0,0.0,0.0,0.0,0.0,0.0,0.0,0.0,0.0,-5.5194,-5.5089,-5.488,-5.488,-5.4566,-5.3892,-5.3683,-5.3339,-5.2875,-5.2665,-5.277,-5.3174,-5.3174,-5.3595,-5.4246,-5.4704,-5.5456,-5.6381,-5.7087,-5.7509,-5.7927,-5.9284,-5.9116,-5.8068,-5.786,-5.7249,-5.6591,-5.7136,-5.6681,-5.5755,-5.5132,-5.4283,-5.3488,-5.3103,-5.2549,-5.204,-5.1917,-5.1558,-5.1214,-5.1214,-5.1214,-5.1214,-5.1214,-5.1214,-5.1214,-5.1214,-5.1214,-5.1214,-5.1214,-5.1214,-5.1214,-5.1214,-5.1214,-5.1214,-5.1214,-5.1214,-5.1214,-5.1214,-5.1214,-5.1139,-5.0883,-5.0465,-5.0031,-4.9658,-4.8805,-4.8192,-4.7997,-4.7982,-4.7982,-4.7982,-4.7534,-4.7309,-4.7309,-4.7309,-4.7309,-4.7309,-4.7309,-4.7309,-4.7309,-4.7309,-4.7309,-4.894,-4.9397,-5.005,0.0,0.0,0.0,0.0,0.0,0.0,0.0,0.0,0.0,0.0,0.0,0.0,0.0,0.0,0.0,0.0,0.0,0.0,0.0,0.0,0.0,0.0,0.0,0.0,0.0,0.0,0.0,0.0,-5.5179,-5.488,-5.4221,-5.4206,-5.3862,-5.3174,-5.2531,-5.2202,-5.2187,-5.1528,-5.1902,-5.3159,-5.3159,-5.3159,-5.3159,-5.3174,-5.3771,-5.473,-5.5408,-5.6217,-5.7071,-5.7055,-5.746,-5.7976,-5.7304,-5.6263,-5.5219,-5.5574,-5.4998,-5.4087,-5.3399,-5.2725,-5.2217,-5.2432,-5.1875,-5.1214,-5.1214,-5.1214,-5.1214,-5.1214,-5.1214,-5.1214,-5.1214,-5.1214,-5.1214,-5.1214,-5.1214,-5.1214,-5.1214,-5.1214,-5.1214,-5.1214,-5.1214,-5.1214,-5.1214,-5.1214,-5.1214,-5.1214,-5.1214,-5.0913,-5.0255,-5.0181,-4.9643,-4.8401,-4.8282,-4.7997,-4.7339,-4.7309,-4.7309,-4.7309,-4.7309,-4.7309,-4.7309,-4.7309,-4.7309,-4.7309,-4.7309,-4.7309,-4.7309,-4.7309,-4.7309,-4.9209,-4.9985,0.0,0.0,0.0,0.0,0.0,0.0,0.0,0.0,0.0,0.0,0.0,0.0,0.0,0.0,0.0,0.0,0.0,0.0,0.0,0.0,0.0,0.0,0.0,0.0,0.0,0.0,0.0,0.0,0.0,-5.4506,-5.4192,-5.3503,-5.3488,-5.3159,-5.2501,-5.2291,-5.1962,-5.1513,-5.1319,-5.1424,-5.1798,-5.1798,-5.1798,-5.1828,-5.2291,-5.2678,-5.2993,-5.3658,-5.4679,-5.5695,-5.5085,-5.4758,-5.4561,-5.4066,-5.3844,-5.3829,-5.3896,-5.3751,-5.3384,-5.271,-5.2351,-5.2112,-5.1693,-5.1409,-5.1214,-5.1214,-5.1214,-5.1214,-5.1214,-5.1214,-5.1214,-5.1214,-5.1214,-5.1214,-5.1214,-5.1214,-5.1214,-5.1214,-5.1214,-5.1214,-5.1214,-5.1214,-5.1214,-5.1214,-5.1214,-5.105,-5.0539,-5.048,-5.0272,-4.9628,-4.9134,-4.8716,-4.8312,-4.7863,-4.7519,-4.7309,-4.7309,-4.7309,-4.7309,-4.7309,-4.7309,-4.7309,-4.7309,-4.7309,-4.7309,-4.7309,-4.7309,-4.7309,-4.7309,-4.7309,-4.8656,0.0,0.0,0.0,0.0,0.0,0.0,0.0,0.0,0.0,0.0,0.0,0.0,0.0,0.0,0.0,0.0,0.0,0.0,0.0,0.0,0.0,0.0,0.0,0.0,0.0,0.0,0.0,0.0,0.0,0.0,-5.3803,-5.3488,-5.2815,-5.2785,-5.2471,-5.1813,-5.1813,-5.1618,-5.1214,-5.1214,-5.1214,-5.1214,-5.1214,-5.1214,-5.1244,-5.1633,-5.1947,-5.2232,-5.2636,-5.3537,-5.4604,-5.3882,-5.3353,-5.2916,-5.2788,-5.2936,-5.3144,-5.289,-5.2785,-5.268,-5.2022,-5.1813,-5.1738,-5.1334,-5.1214,-5.1214,-5.1214,-5.1214,-5.1214,-5.1214,-5.1214,-5.1214,-5.1214,-5.1214,-5.1214,-5.1214,-5.1214,-5.1214,-5.1214,-5.1214,-5.1214,-5.1214,-5.1214,-5.1214,-5.1214,-5.0943,-5.0644,-5.024,-5.0017,-4.9598,-4.8985,-4.8521,-4.8177,-4.7923,-4.7534,-4.7309,-4.7309,-4.7309,-4.7309,-4.7309,-4.7309,-4.7309,-4.7309,-4.7309,-4.7309,-4.7309,-4.7309,-4.7309,-4.7309,-4.7309,-4.7309,0.0,0.0,0.0,0.0,0.0,0.0,0.0,0.0,0.0,0.0,0.0,0.0,0.0,0.0,0.0,0.0,0.0,0.0,0.0,0.0,0.0,0.0,0.0,0.0,0.0,0.0,0.0,0.0,0.0,0.0,0.0,-5.3099,-5.2785,-5.2127,-5.2112,-5.1828,-5.1229,-5.1214,-5.1214,-5.1214,-5.1214,-5.1214,-5.1214,-5.1214,-5.1214,-5.1214,-5.1214,-5.1558,-5.2112,-5.2112,-5.2702,-5.3597,-5.3196,-5.2748,-5.2409,-5.2856,-5.2995,-5.292,-5.2321,-5.2112,-5.2007,-5.1409,-5.1214,-5.1214,-5.1214,-5.1214,-5.1214,-5.1214,-5.1214,-5.1214,-5.1214,-5.1214,-5.1214,-5.1214,-5.1214,-5.1214,-5.1214,-5.1214,-5.1214,-5.1214,-5.1214,-5.1214,-5.1214,-5.1214,-5.1199,-5.1139,-5.0524,-5.0091,-5.0016,-4.9553,-4.897,-4.8267,-4.8192,-4.7952,-4.7354,-4.7309,-4.7309,-4.7309,-4.7309,-4.7309,-4.7309,-4.7309,-4.7309,-4.7309,-4.7309,-4.7309,-4.7309,-4.7309,-4.7309,-4.7309,-4.7309,-4.7309,0.0,0.0,0.0,0.0,0.0,0.0,0.0,0.0,0.0,0.0,0.0,0.0,0.0,0.0,0.0,0.0,0.0,0.0,0.0,0.0,0.0,0.0,0.0,0.0,0.0,0.0,0.0,0.0,0.0,0.0,-5.2441,-5.2411,-5.2112,-5.1454,-5.1439,-5.1364,-5.1214,-5.1214,-5.1214,0.0,-5.1214,-5.1214,-5.1214,-5.1214,-5.1214,-5.1214,-5.1214,-5.1304,-5.1439,-5.1439,-5.1543,-5.177,-5.1663,-5.1556,-5.1511,-5.1571,-5.1633,-5.1618,-5.1483,-5.1439,-5.1409,-5.1274,-5.1214,-5.1214,-5.1214,-5.1214,-5.1214,-5.1214,-5.1214,-5.1214,-5.1214,-5.1214,-5.1214,-5.1214,-5.1214,-5.1214,-5.1214,-5.1214,-5.1214,-5.1214,-5.1214,-5.1214,-5.1214,-5.1214,-5.1003,-5.048,-4.9898,-4.9284,-4.8775,-4.8581,-4.8252,-4.7593,-4.7519,-4.7459,-4.7309,-4.7309,-4.7309,-4.7309,-4.7309,-4.7309,-4.7309,-4.7309,-4.7309,-4.7309,-4.7309,-4.7309,-4.7309,-4.7309,-4.7309,-4.7309,-4.7309,-4.7309,0.0,0.0,0.0,0.0,0.0,0.0,0.0,0.0,0.0,0.0,0.0,0.0,0.0,0.0,0.0,0.0,0.0,0.0,0.0,0.0,0.0,0.0,0.0,0.0,0.0,0.0,0.0,0.0,0.0,-5.2561,-5.2217,-5.1902,-5.1573,-5.1229,-5.1214,-5.1214,-5.1214,-5.1214,-5.1214,-5.1214,-5.1214,-5.1214,-5.1214,-5.1214,-5.1214,-5.1214,-5.1214,-5.1214,-5.1214,-5.1214,-5.1214,-5.1214,-5.1214,-5.1214,-5.1214,-5.1214,-5.1214,-5.1214,-5.1214,-5.1214,-5.1214,-5.1214,-5.1214,-5.1214,-5.1214,-5.1214,-5.1214,-5.1214,-5.1214,-5.1214,-5.1214,-5.1214,-5.1214,-5.1214,-5.1214,-5.1214,-5.1214,-5.1214,-5.1214,-5.1214,-5.1214,-5.1214,-5.1214,-5.0913,-5.0526,-4.9868,-4.9209,-4.8671,-4.8327,-4.8012,-4.7683,-4.7339,-4.7309,-4.7309,-4.7309,-4.7309,-4.7309,-4.7309,-4.7309,-4.7309,-4.7309,-4.7309,-4.7309,-4.7309,-4.7309,-4.7309,-4.7309,-4.7309,-4.7309,-4.7309,-4.7309,-4.7309,0.0,0.0,0.0,0.0,0.0,0.0,0.0,0.0,0.0,0.0,0.0,0.0,0.0,0.0,0.0,0.0,0.0,0.0,0.0,0.0,0.0,0.0,0.0,0.0,0.0,0.0,0.0,0.0,0.0,-5.2366,-5.2366,-5.1858,-5.1498,-5.1394,-5.1394,-5.1394,-5.1394,-5.1394,-5.1439,-5.1558,-5.1439,-5.1394,-5.1379,-5.1274,-5.1214,-5.1214,-5.1214,-5.1214,-5.1214,-5.1214,-5.1214,-5.1214,-5.1214,-5.1214,-5.1214,-5.1214,-5.1214,-5.1214,-5.1214,-5.1214,-5.1214,-5.1214,-5.1214,-5.1214,-5.1214,-5.1214,-5.1214,-5.1214,-5.1214,-5.1214,-5.1214,-5.1214,-5.1214,-5.1214,-5.1214,-5.1214,-5.1214,-5.1214,-5.1214,-5.1214,-5.1124,-5.1005,-5.09,-5.0331,-4.9718,-4.9179,-4.8536,-4.8117,-4.8117,-4.7638,-4.7309,-4.7309,-4.7309,-4.7309,-4.7309,-4.7309,-4.7309,-4.7309,-4.7309,-4.7309,-4.7309,-4.7309,-4.7309,-4.7309,-4.7309,-4.7309,-4.7309,-4.7309,-4.7309,-4.7309,-4.7309,-4.7309,0.0,0.0,0.0,0.0,0.0,0.0,0.0,0.0,0.0,0.0,0.0,0.0,0.0,0.0,0.0,0.0,0.0,0.0,0.0,0.0,0.0,0.0,0.0,0.0,0.0,0.0,0.0,0.0,-5.3443,-5.3054,-5.3054,-5.2965,-5.265,-5.2082,-5.2067,-5.2067,-5.2067,-5.2067,-5.2351,-5.292,-5.2336,-5.2067,-5.2052,-5.1468,-5.1214,-5.1214,-5.1214,-5.1214,-5.1214,-5.1214,-5.1214,-5.1214,-5.1214,-5.1214,-5.1214,-5.1214,-5.1214,-5.1214,-5.1214,-5.1214,-5.1214,-5.1214,-5.1214,-5.1214,-5.1214,-5.1214,-5.1214,-5.1214,-5.1214,-5.1214,-5.1214,-5.1214,-5.1214,-5.1214,-5.1214,-5.1214,-5.1214,-5.1214,-5.1214,-5.1214,-5.0704,-5.0197,-4.9628,-4.8985,-4.8521,-4.8431,-4.7863,-4.7429,-4.7429,-4.7354,-4.7309,-4.7309,-4.7309,-4.7309,-4.7309,-4.7309,-4.7309,-4.7309,-4.7309,-4.7309,-4.7309,-4.7309,-4.7309,-4.7309,-4.7309,-4.7309,-4.7309,-4.7309,-4.7309,-4.7309,-4.7309,-4.7309,0.0,0.0,0.0,0.0,0.0,0.0,0.0,0.0,0.0,0.0,0.0,0.0,0.0,0.0,0.0,0.0,0.0,0.0,0.0,0.0,0.0,0.0,0.0,0.0,0.0,0.0,0.0,0.0,-5.4132,-5.3758,-5.3758,-5.3384,-5.3039,-5.2755,-5.2755,-5.2755,-5.2755,-5.2755,-5.289,-5.3174,-5.289,-5.2755,-5.2725,-5.2067,-5.1573,-5.1214,-5.1214,-5.1214,-5.1214,-5.1214,-5.1214,-5.1214,-5.1214,-5.1214,-5.1214,-5.1214,-5.1214,-5.1214,-5.1214,-5.1214,-5.1214,-5.1214,-5.1214,-5.1214,-5.1214,-5.1214,-5.1214,-5.1214,-5.1214,-5.1214,-5.1214,-5.1214,-5.1214,-5.1214,-5.1214,-5.1214,-5.1214,-5.1214,-5.1109,-5.0689,-5.0137,-4.9494,-4.8835,-4.8476,-4.8162,-4.7803,-4.7489,-4.7309,-4.7309,-4.7309,-4.7309,-4.7309,-4.7309,-4.7309,-4.7309,-4.7309,-4.7309,-4.7309,-4.7309,-4.7309,-4.7309,-4.7309,-4.7309,-4.7309,-4.7309,-4.7309,-4.7309,-4.7309,-4.7309,-4.7309,-4.7309,-4.7309,0.0,0.0,0.0,0.0,0.0,0.0,0.0,0.0,0.0,0.0,0.0,0.0,0.0,0.0,0.0,0.0,0.0,0.0,0.0,0.0,0.0,0.0,0.0,0.0,0.0,0.0,0.0,0.0,-5.4745,-5.4461,-5.4461,-5.3967,-5.3608,-5.3443,-5.3443,-5.3443,-5.3443,-5.3443,-5.3354,-5.3174,-5.301,-5.2935,-5.2905,-5.2247,-5.1678,-5.1214,-5.1214,-5.1214,-5.1214,-5.1214,-5.1214,-5.1214,-5.1214,-5.1214,-5.1214,-5.1214,-5.1214,-5.1214,-5.1214,-5.1214,-5.1214,-5.1214,-5.1214,-5.1214,-5.1214,-5.1214,-5.1214,-5.1214,-5.1214,-5.1214,-5.1214,-5.1214,-5.1214,-5.1214,-5.1094,-5.0928,-5.0928,-5.0928,-5.0674,-4.9898,-4.9344,-4.8805,-4.8147,-4.8042,-4.7878,-4.7384,-4.7309,-4.7309,-4.7309,-4.7309,-4.7309,-4.7309,-4.7309,-4.7309,-4.7309,-4.7309,-4.7309,-4.7309,-4.7309,-4.7309,-4.7309,-4.7309,-4.7309,-4.7309,-4.7309,-4.7309,-4.7309,-4.7309,-4.7309,-4.7309,-4.7019,-4.6916,0.0,0.0,0.0,0.0,0.0,0.0,0.0,0.0,0.0,0.0,0.0,0.0,0.0,0.0,0.0,0.0,0.0,0.0,0.0,0.0,0.0,0.0,0.0,0.0,0.0,0.0,0.0,0.0,-5.5164,-5.5149,-5.5149,-5.5104,-5.4805,-5.4177,-5.4162,-5.4162,-5.4162,-5.4162,-5.3832,-5.3174,-5.2546,-5.2247,-5.2232,-5.1573,-5.1244,-5.1214,-5.1214,-5.1214,-5.1214,-5.1214,-5.1214,-5.1214,-5.1214,-5.1214,-5.1214,-5.1214,-5.1214,-5.1214,-5.1214,-5.1214,-5.1214,-5.1214,-5.1214,-5.1214,-5.1214,-5.1214,-5.1214,-5.1214,-5.1214,-5.1214,-5.1214,-5.1214,-5.1214,-5.1214,-5.0689,-5.024,-5.024,-5.024,-4.9867,-4.8626,-4.8356,-4.8132,-4.7474,-4.7354,-4.7339,-4.7309,-4.7309,-4.7309,-4.7309,-4.7309,-4.7309,-4.7309,-4.7309,-4.7309,-4.7309,-4.7309,-4.7309,-4.7309,-4.7309,-4.7309,-4.7309,-4.7309,-4.7309,-4.7309,-4.7309,-4.7309,-4.7309,-4.7309,-4.7309,-4.7266,-4.6299,-4.5869,0.0,0.0,0.0,0.0,0.0,0.0,0.0,0.0,0.0,0.0,0.0,0.0,0.0,0.0,0.0,0.0,0.0,0.0,0.0,0.0,0.0,0.0,0.0,0.0,0.0,0.0,0.0,0.0,0.0,-5.4087,-5.4536,-5.4566,-5.4461,-5.4221,-5.4206,-5.3997,-5.3548,-5.3548,-5.3428,-5.3174,-5.295,-5.283,-5.2815,-5.2157,-5.1843,-5.1828,-5.1409,-5.1214,-5.1214,-5.1214,-5.1214,-5.1214,-5.1214,-5.1214,-5.1214,-5.1214,-5.1214,-5.1214,-5.1214,-5.1214,-5.1214,-5.1214,-5.1214,-5.1214,-5.1214,-5.1214,-5.1214,-5.1214,-5.1214,-5.1214,-5.1214,-5.1214,-5.1109,-5.0644,-5.0092,-4.9494,-4.9075,-4.8985,-4.885,-4.8371,-4.7938,-4.7578,-4.7339,-4.7309,-4.7309,-4.7309,-4.7309,-4.7309,-4.7309,-4.7309,-4.7309,-4.7309,-4.7309,-4.7309,-4.7309,-4.7309,-4.7309,-4.7309,-4.7309,-4.7309,-4.7309,-4.7309,-4.7309,-4.7309,-4.7309,-4.7309,-4.7309,-4.7309,-4.6975,-4.6344,-4.5973,-4.5463,0.0,0.0,0.0,0.0,0.0,0.0,0.0,0.0,0.0,0.0,0.0,0.0,0.0,0.0,0.0,0.0,0.0,0.0,0.0,0.0,0.0,0.0,0.0,0.0,0.0,0.0,0.0,0.0,0.0,0.0,-5.3189,-5.3204,-5.3204,-5.3204,-5.3428,-5.3204,-5.2531,-5.274,-5.274,-5.2516,-5.2516,-5.2516,-5.2501,-5.2067,-5.1872,-5.1843,-5.1409,-5.1214,-5.1214,-5.1214,-5.1214,-5.1214,-5.1214,-5.1214,-5.1214,-5.1214,-5.1214,-5.1214,-5.1214,-5.1214,-5.1214,-5.1214,-5.1214,-5.1214,-5.1214,-5.1214,-5.1214,-5.1214,-5.1214,-5.1169,-5.0898,-5.072,-5.0391,-4.9733,-4.9254,-4.8805,-4.8102,-4.8132,-4.8222,-4.7997,-4.7593,-4.7309,-4.7309,-4.7309,-4.7309,-4.7309,-4.7309,-4.7309,-4.7309,-4.7309,-4.7309,-4.7309,-4.7309,-4.7309,-4.7309,-4.7309,-4.7309,-4.7309,-4.7309,-4.7309,-4.7309,-4.7309,-4.7309,-4.7309,-4.7309,-4.7309,-4.7309,-4.7309,-4.6975,-4.6299,-4.5973,-4.497,0.0,0.0,0.0,0.0,0.0,0.0,0.0,0.0,0.0,0.0,0.0,0.0,0.0,0.0,0.0,0.0,0.0,0.0,0.0,0.0,0.0,0.0,0.0,0.0,0.0,0.0,0.0,0.0,-5.2112,-5.1843,-5.1214,-5.1184,-5.1184,-5.1184,-5.1783,-5.1813,-5.1169,-5.1798,-5.1798,-5.1169,-5.1184,-5.1199,-5.1214,-5.1214,-5.1214,-5.1214,-5.1214,-5.1214,-5.1214,-5.1214,-5.1214,-5.1214,-5.1214,-5.1214,-5.1214,-5.1214,-5.1214,-5.1214,-5.1214,-5.1214,-5.1214,-5.1214,-5.1214,-5.1214,-5.1214,-5.1214,-5.1214,-5.1214,-5.1214,-5.1035,-5.033,-4.9718,-4.912,-4.8431,-4.8267,-4.8072,-4.7444,-4.7803,-4.8072,-4.7429,-4.7309,-4.7309,-4.7309,-4.7309,-4.7309,-4.7309,-4.7309,-4.7309,-4.7309,-4.7309,-4.7309,-4.7309,-4.7309,-4.7309,-4.7309,-4.7309,-4.7309,-4.7309,-4.7309,-4.7309,-4.7309,-4.7309,-4.7309,-4.7309,-4.7309,-4.7309,-4.7309,-4.7309,-4.7266,-4.7164,-4.6137,-4.4256,-4.6639,0.0,0.0,0.0,0.0,0.0,0.0,0.0,0.0,0.0,0.0,0.0,0.0,0.0,0.0,0.0,0.0,0.0,0.0,0.0,0.0,0.0,0.0,0.0,0.0,0.0,0.0,0.0,-5.0123,-5.0212,-5.045,-5.0465,-5.0465,-5.0465,-5.0227,-4.9987,-4.9808,-4.9987,-5.0169,-5.0245,-5.0407,-5.0753,-5.1224,-5.1171,-5.1214,-5.1214,-5.1214,-5.1214,-5.1214,-5.1214,-5.1214,-5.1214,-5.1214,-5.1214,-5.1214,-5.1214,-5.1214,-5.1214,-5.1214,-5.1214,-5.1214,-5.1214,-5.1214,-5.1214,-5.1214,-5.1214,-5.1214,-5.1214,-5.0823,-5.0315,-4.9703,-4.906,-4.8506,-4.8327,-4.7923,-4.7534,-4.7339,-4.7459,-4.7519,-4.7339,-4.7309,-4.7309,-4.7309,-4.7309,-4.7309,-4.7309,-4.7309,-4.7309,-4.7309,-4.7309,-4.7309,-4.7309,-4.7309,-4.7309,-4.7309,-4.7309,-4.7309,-4.7309,-4.7309,-4.7309,-4.7309,-4.7309,-4.7309,-4.7309,-4.7309,-4.7309,-4.7309,-4.7309,-4.655,-4.5098,-4.2901,-4.1285,0.0,0.0,0.0,0.0,0.0,0.0,-4.6006,-4.6402,0.0,0.0,0.0,0.0,0.0,0.0,0.0,0.0,0.0,0.0,0.0,0.0,0.0,0.0,0.0,0.0,0.0,-4.9314,-4.9194,-4.8925,-4.885,-4.903,-4.9404,-4.9419,-4.9419,-4.9419,-4.906,-4.885,-4.885,-4.9179,-4.9434,-4.9659,-4.9763,-5.0139,-5.0652,-5.0468,-5.0497,-5.0633,-5.0497,-5.0556,-5.0764,-5.0764,-5.0928,-5.1214,-5.1214,-5.1214,-5.1214,-5.1214,-5.1214,-5.1214,-5.1214,-5.1214,-5.1214,-5.1214,-5.1214,-5.1214,-5.1214,-5.102,-5.0764,-5.0764,-5.0137,-4.9344,-4.8955,-4.8371,-4.7878,-4.7878,-4.7578,-4.7309,-4.7309,-4.7309,-4.7309,-4.7309,-4.7309,-4.7309,-4.7309,-4.7309,-4.7309,-4.7309,-4.7309,-4.7309,-4.7309,-4.7309,-4.7309,-4.7309,-4.7309,-4.7309,-4.7309,-4.7309,-4.7309,-4.7309,-4.7309,-4.7309,-4.7309,-4.7309,-4.7309,-4.7309,-4.704,-4.6569,-4.5898,-4.6569,-4.5961,-4.4103,-4.1773,-4.0399,0.0,0.0,0.0,0.0,0.0,0.0,-4.4497,-4.5181,-4.5883,0.0,0.0,0.0,0.0,0.0,0.0,0.0,0.0,0.0,0.0,0.0,0.0,0.0,0.0,0.0,-4.909,-4.909,-4.885,-4.8222,-4.8252,-4.8312,-4.8401,-4.8401,-4.8401,-4.8401,-4.8327,-4.8282,-4.8282,-4.8835,-4.909,-4.909,-4.9179,-4.9419,-4.9749,-4.9389,-4.9449,-4.9794,-4.9449,-4.9583,-5.0091,-5.0091,-5.051,-5.1214,-5.1214,-5.1214,-5.1214,-5.1214,-5.1214,-5.1214,-5.1214,-5.1214,-5.1214,-5.1124,-5.1109,-5.1094,-5.102,-5.0586,-5.0061,-5.0001,-4.9179,-4.8267,-4.8192,-4.7743,-4.7309,-4.7309,-4.7309,-4.7309,-4.7309,-4.7309,-4.7309,-4.7309,-4.7309,-4.7309,-4.7309,-4.7309,-4.7309,-4.7309,-4.7309,-4.7309,-4.7309,-4.7309,-4.7309,-4.7309,-4.7309,-4.7309,-4.7309,-4.7309,-4.7309,-4.7309,-4.7309,-4.7279,-4.7189,-4.7189,-4.716,-4.7085,-4.6501,-4.5463,-4.3961,-4.5235,-4.5035,-4.3474,-4.1671,-4.0516,0.0,0.0,0.0,0.0,0.0,0.0,-4.35,-4.4171,-4.4638,0.0,0.0,0.0,0.0,0.0,0.0,0.0,0.0,0.0,0.0,0.0,0.0,0.0,0.0,0.0,0.0,-4.7683,-4.7638,-4.7504,-4.7997,-4.8521,-4.909,-4.912,-4.912,-4.912,-4.8566,-4.8282,-4.8282,-4.7893,-4.7683,-4.7698,-4.8415,-4.8774,-4.8863,-4.8761,-4.9,-4.9419,-4.9329,-4.9389,-4.9464,-4.9464,-5.0152,-5.1214,-5.1214,-5.1214,-5.1214,-5.1214,-5.1214,-5.1214,-5.1214,-5.1214,-5.1124,-5.0554,-5.039,-5.0285,-4.9808,-4.9553,-4.9344,-4.8805,-4.8476,-4.8162,-4.7638,-4.7399,-4.7309,-4.7309,-4.7309,-4.7309,-4.7309,-4.7309,-4.7309,-4.7309,-4.7309,-4.7309,-4.7309,-4.7309,-4.7309,-4.7309,-4.7309,-4.7309,-4.7309,-4.7309,-4.7309,-4.7309,-4.7309,-4.7309,-4.7309,-4.7309,-4.7309,-4.7309,-4.7309,-4.707,-4.6531,-4.6516,-4.6262,-4.5693,-4.5559,-4.5072,-4.4236,-4.3546,-4.2465,-4.0869,-3.9726,-3.8846,0.0,0.0,0.0,-4.0065,0.0,0.0,0.0,-4.2251,-4.2916,0.0,0.0,0.0,0.0,0.0,0.0,0.0,0.0,0.0,0.0,0.0,0.0,0.0,0.0,0.0,0.0,-4.6829,-4.6358,-4.5853,-4.7224,-4.7959,-4.7727,-4.8483,-4.8953,-4.8953,-4.8319,-4.8117,-4.8432,-4.8013,-4.7611,-4.7286,-4.7758,-4.7965,-4.7936,-4.7939,-4.8074,-4.8282,-4.8282,-4.8476,-4.882,-4.882,-4.9359,-5.0242,-5.0242,-5.0242,-5.0242,-5.0242,-5.0242,-5.0242,-5.0242,-5.0242,-5.0197,-4.9868,-4.9748,-4.9688,-4.9404,-4.909,-4.8641,-4.7982,-4.7803,-4.7713,-4.7399,-4.7309,-4.7309,-4.7309,-4.7309,-4.7309,-4.7309,-4.7309,-4.7309,-4.7309,-4.7309,-4.7309,-4.7309,-4.7309,-4.7309,-4.7309,-4.7309,-4.7309,-4.7309,-4.7309,-4.7309,-4.7309,-4.7309,-4.7309,-4.7309,-4.6995,-4.6815,-4.6815,-4.6501,-4.6157,-4.5828,-4.5813,-4.5499,-4.4811,-4.4811,-4.4262,-4.3145,-4.2081,-4.1157,-4.0382,-3.9402,-3.8568,0.0,0.0,0.0,0.0,0.0,-3.821,0.0,0.0,0.0,0.0,0.0,0.0,0.0,0.0,0.0,0.0,0.0,0.0,0.0,0.0,0.0,0.0,0.0,0.0,0.0,-4.6299,-4.552,-4.4808,-4.6383,-4.6952,-4.6187,-4.7429,-4.8192,-4.8322,-4.7858,-4.7946,-4.8592,-4.8552,-4.8208,-4.757,-4.7374,-4.7297,-4.7297,-4.7281,-4.7309,-4.7309,-4.7309,-4.7608,-4.8102,-4.8102,-4.8416,-4.8955,-4.9209,-4.9314,-4.9314,-4.9314,-4.9314,-4.9314,-4.9314,-4.9314,-4.9284,-4.9164,-4.9045,-4.8925,-4.8925,-4.8521,-4.7982,-4.7459,-4.7309,-4.7309,-4.7309,-4.7309,-4.7309,-4.7309,-4.7309,-4.7309,-4.7309,-4.7309,-4.7309,-4.7309,-4.7309,-4.7309,-4.7309,-4.7309,-4.7309,-4.7309,-4.7309,-4.7309,-4.7309,-4.7189,-4.7115,-4.7115,-4.6995,-4.692,-4.692,-4.6441,-4.6127,-4.6127,-4.5603,-4.5229,-4.511,-4.499,-4.4661,-4.4137,-4.4122,-4.3393,-4.199,-4.1254,-4.0689,-4.0289,-3.9387,-3.8549,0.0,0.0,0.0,0.0,-3.7891,0.0,0.0,0.0,-3.9803,-3.9999,0.0,0.0,0.0,0.0,0.0,0.0,0.0,0.0,0.0,0.0,0.0,0.0,0.0,0.0,0.0,-4.5869,-4.598,-4.6483,-4.593,-4.5816,-4.6256,-4.6452,-4.6783,-4.7236,-4.7602,-4.8065,-4.8607,-4.9009,-4.8925,-4.8447,-4.7644,-4.7302,-4.7302,-4.7283,-4.7309,-4.7309,-4.7309,-4.7339,-4.7414,-4.7414,-4.7459,-4.7653,-4.8865,-4.9314,-4.9314,-4.9314,-4.9314,-4.9314,-4.9314,-4.9314,-4.9209,-4.8596,-4.7997,-4.7534,-4.7534,-4.7474,-4.7399,-4.7324,-4.7309,-4.7309,-4.7309,-4.7309,-4.7309,-4.7309,-4.7309,-4.7309,-4.7309,-4.7309,-4.7309,-4.7309,-4.7309,-4.7309,-4.7309,-4.7309,-4.7309,-4.7309,-4.7309,-4.7309,-4.7309,-4.68,-4.6384,-4.6384,-4.5888,-4.5529,-4.5529,-4.5454,-4.5409,-4.5409,-4.5334,-4.5035,-4.4451,-4.3828,-4.3484,-4.3409,-4.3409,-4.2949,-4.199,-4.1908,-4.0986,-3.9343,-3.8472,-3.7979,0.0,0.0,0.0,0.0,0.0,0.0,-3.7911,0.0,-3.871,0.0,0.0,0.0,0.0,0.0,0.0,0.0,0.0,0.0,0.0,0.0,0.0,0.0,0.0,0.0,0.0,0.0,0.0,0.0,-4.3119,-4.3279,-4.2912,-4.4129,-4.4967,-4.5181,-4.6242,-4.7851,-5.0096,-4.9548,-4.9554,-5.0079,-4.9015,-4.8477,-4.8447,-4.7643,-4.7522,-4.7863,-4.7474,-4.7309,-4.7309,-4.7309,-4.7309,-4.7354,-4.7923,-4.8132,-4.8132,-4.8132,-4.8132,-4.8132,-4.8132,-4.8132,-4.8072,-4.7803,-4.7534,-4.7309,-4.7309,-4.7309,-4.7309,-4.7309,-4.7309,-4.7309,-4.7309,-4.7309,-4.7309,-4.7309,-4.7309,-4.7309,-4.7309,-4.7309,-4.7309,-4.7309,-4.6995,-4.6741,-4.6741,-4.6741,-4.6741,-4.6741,-4.6396,-4.6142,-4.6142,-4.5903,-4.5723,-4.5723,-4.5469,-4.5289,-4.5289,-4.4945,-4.4721,-4.4721,-4.4362,-4.3992,-4.3723,-4.3439,-4.329,-4.329,-4.329,-4.3115,-4.2739,-4.1713,-4.0774,-3.9986,-3.906,-3.8395,-4.0267,0.0,0.0,0.0,0.0,0.0,0.0,0.0,0.0,0.0,0.0,0.0,0.0,0.0,0.0,0.0,0.0,0.0,0.0,0.0,0.0,0.0,0.0,0.0,0.0,0.0,0.0,-4.005,-4.0883,-4.1077,-4.0236,-4.1759,-4.2735,-4.2883,-4.4484,-4.6643,-4.9256,-4.8952,-4.9599,-5.1167,-5.026,-4.9658,-4.9253,-4.8311,-4.7909,-4.7997,-4.7519,-4.7309,-4.7309,-4.7309,-4.7309,-4.7309,-4.7309,-4.7309,-4.7309,-4.7309,-4.7309,-4.7309,-4.7309,-4.7309,-4.7309,-4.7309,-4.7309,-4.7309,-4.7309,-4.7309,-4.7309,-4.7309,-4.7309,-4.7309,-4.7309,-4.7309,-4.7309,-4.7309,-4.7309,-4.7309,-4.7309,-4.716,-4.704,-4.704,-4.6501,-4.6037,-4.6037,-4.6037,-4.6037,-4.6037,-4.5618,-4.5289,-4.5289,-4.514,-4.5035,-4.5035,-4.487,-4.4751,-4.4751,-4.4317,-4.4047,-4.4047,-4.3559,-4.329,-4.329,-4.329,-4.329,-4.329,-4.329,-4.3076,-4.2563,-4.1239,-4.0346,-3.9839,-3.9135,-3.8517,0.0,0.0,0.0,-3.8449,0.0,0.0,0.0,0.0,-3.7913,0.0,0.0,0.0,0.0,0.0,0.0,0.0,0.0,0.0,0.0,0.0,0.0,0.0,0.0,0.0,0.0,0.0,0.0,-4.1061,-4.0205,-3.9686,-3.9638,-3.9712,-3.9974,-4.0497,-4.2469,-4.3796,-4.4518,-4.6402,-4.8657,-5.1184,-5.1138,-5.0506,-4.9296,-4.9265,-4.8538,-4.7339,-4.7309,-4.7309,-4.7309,-4.7309,-4.7309,-4.7309,-4.7309,-4.7309,-4.7309,-4.7309,-4.7309,-4.7309,-4.7309,-4.7309,-4.7309,-4.7309,-4.7309,-4.7309,-4.7309,-4.7309,-4.7309,-4.7309,-4.7309,-4.7309,-4.7309,-4.7309,-4.7309,-4.7309,-4.7309,-4.7309,-4.7309,-4.68,-4.6309,-4.6309,-4.5798,-4.5334,-4.5334,-4.5334,-4.5334,-4.5334,-4.5304,-4.5289,-4.5289,-4.4736,-4.4347,-4.4347,-4.3738,-4.3349,-4.3349,-4.3334,-4.3319,-4.3319,-4.3305,-4.329,-4.329,-4.329,-4.329,-4.329,-4.329,-4.2441,-4.0689,-4.0646,-3.9722,-3.7992,-3.7946,-3.7946,0.0,0.0,-4.0736,-3.8497,0.0,0.0,0.0,0.0,0.0,0.0,0.0,0.0,0.0,0.0,0.0,0.0,0.0,0.0,0.0,0.0,0.0,0.0,0.0,0.0,0.0,0.0,0.0,-3.8991,-3.8648,-3.8475,-3.8475,-3.8815,-3.9102,-3.9285,-4.097,-4.2191,-4.2857,-4.5032,-4.6947,-4.864,-5.0378,-5.0057,-4.7959,-4.7959,-4.8048,-4.8136,-4.7546,-4.7309,-4.7309,-4.7309,-4.7309,-4.7309,-4.7309,-4.7309,-4.7309,-4.7309,-4.7309,-4.7309,-4.7309,-4.7309,-4.7309,-4.7309,-4.7309,-4.7309,-4.7309,-4.7309,-4.7309,-4.7309,-4.7309,-4.7309,-4.7309,-4.7309,-4.7309,-4.7309,-4.698,-4.6651,-4.6651,-4.6112,-4.5648,-4.5648,-4.511,-4.4646,-4.4646,-4.4287,-4.4152,-4.4586,-4.4272,-4.4003,-4.4003,-4.3768,-4.3618,-4.3618,-4.3424,-4.329,-4.329,-4.329,-4.329,-4.329,-4.329,-4.329,-4.329,-4.329,-4.329,-4.329,-4.329,-4.2699,-4.1505,-4.0901,-3.9956,-3.876,-3.8194,-3.79,-4.1311,-4.1297,0.0,-3.8482,-3.7903,0.0,-3.79,0.0,-3.79,0.0,0.0,0.0,0.0,0.0,0.0,0.0,0.0,0.0,0.0,-3.79,0.0,0.0,0.0,0.0,0.0,0.0,-3.79,-3.79,-3.79,-3.79,0.0,0.0,-3.8423,-3.8423,-3.9744,-4.0782,-4.1576,-4.3225,-4.4673,-4.5882,-4.7616,-4.7507,-4.5868,-4.5873,-4.6518,-4.7634,-4.6914,-4.6726,-4.695,-4.695,-4.71,-4.7309,-4.7309,-4.7309,-4.7309,-4.7309,-4.7309,-4.7309,-4.7309,-4.7309,-4.7309,-4.7309,-4.7309,-4.7309,-4.7309,-4.7309,-4.7309,-4.7309,-4.7309,-4.7309,-4.7309,-4.713,-4.695,-4.695,-4.6441,-4.5963,-4.5963,-4.5424,-4.4945,-4.4945,-4.4407,-4.3917,-4.3917,-4.3574,-4.3439,-4.3898,-4.3559,-4.329,-4.329,-4.329,-4.329,-4.329,-4.329,-4.329,-4.329,-4.329,-4.329,-4.329,-4.329,-4.329,-4.329,-4.329,-4.329,-4.329,-4.2996,-4.2578,-4.199,-4.0731,-3.9768,-3.9166,-3.8317,-3.79]},{"header":{"parameterUnit":"m.s-1","parameterCategory":1,"la1":30.6,"la2":29.2853,"lo1":-89.7004,"lo2":-87.6739,"dy":0.0162,"dx":0.0183,"nx":112,"ny":82,"refTime":"2023-08-03T00:00:00:Z","depth":0,"parameterNumber":3,"parameterNumberName":"V-component_of_WINDS"},"data":[0.0,0.0,0.0,0.0,0.0,0.0,0.0,0.0,0.0,0.0,0.0,0.0,0.0,0.0,0.0,0.0,0.0,0.0,0.0,0.0,0.0,0.0,0.0,0.0,0.0,0.0,0.0,0.0,0.0,0.0,0.0,0.0,0.0,0.0,0.0,0.0,0.0,0.0,0.0,0.0,0.0,0.0,0.0,0.0,0.0,0.0,0.0,0.0,0.0,0.0,0.0,0.0,0.0,0.0,0.0,0.0,0.0,0.0,0.0,0.0,0.0,0.0,0.0,0.0,0.0,0.0,0.0,0.0,0.0,0.0,0.0,0.0,0.0,0.0,0.0,0.0,0.0,0.0,0.0,0.0,0.0,0.0,0.0,0.0,0.0,0.0,0.0,0.0,0.0,0.0,-2.8989,-2.8989,-2.9236,-2.926,-2.8933,-2.9136,-2.9285,-2.9338,0.0,0.0,0.0,0.0,0.0,0.0,0.0,0.0,0.0,0.0,0.0,0.0,0.0,0.0,0.0,0.0,0.0,0.0,0.0,0.0,0.0,0.0,0.0,0.0,0.0,0.0,0.0,0.0,0.0,0.0,0.0,0.0,0.0,0.0,0.0,0.0,0.0,0.0,0.0,0.0,0.0,0.0,0.0,0.0,0.0,0.0,0.0,0.0,0.0,0.0,0.0,0.0,0.0,0.0,0.0,0.0,0.0,0.0,0.0,0.0,0.0,0.0,0.0,0.0,0.0,0.0,0.0,0.0,0.0,0.0,0.0,0.0,0.0,0.0,0.0,0.0,0.0,0.0,0.0,0.0,0.0,0.0,0.0,0.0,0.0,0.0,0.0,0.0,0.0,0.0,0.0,0.0,0.0,0.0,0.0,0.0,0.0,0.0,0.0,0.0,0.0,0.0,0.0,0.0,-3.0224,-3.0224,-3.0478,-3.0479,-3.0038,-3.0008,-3.0169,-3.0414,0.0,0.0,0.0,0.0,0.0,0.0,0.0,0.0,0.0,0.0,0.0,0.0,0.0,0.0,0.0,0.0,0.0,0.0,0.0,0.0,0.0,0.0,0.0,0.0,0.0,0.0,0.0,0.0,0.0,0.0,0.0,0.0,0.0,0.0,0.0,0.0,0.0,0.0,0.0,0.0,0.0,0.0,0.0,0.0,0.0,0.0,0.0,0.0,0.0,0.0,0.0,0.0,0.0,0.0,0.0,0.0,0.0,0.0,0.0,0.0,0.0,0.0,0.0,0.0,0.0,0.0,0.0,0.0,0.0,0.0,0.0,0.0,0.0,0.0,0.0,0.0,0.0,0.0,0.0,0.0,0.0,0.0,0.0,0.0,0.0,0.0,0.0,0.0,0.0,0.0,0.0,0.0,0.0,0.0,0.0,0.0,0.0,0.0,0.0,0.0,0.0,0.0,0.0,-3.0736,-3.0736,-3.0736,-3.0966,-3.0984,-3.0595,-3.0522,-3.0673,-3.104,-3.0112,0.0,0.0,0.0,0.0,0.0,0.0,0.0,0.0,0.0,0.0,0.0,0.0,0.0,0.0,0.0,0.0,0.0,0.0,0.0,0.0,0.0,0.0,0.0,0.0,0.0,0.0,0.0,0.0,0.0,0.0,0.0,0.0,0.0,0.0,0.0,0.0,0.0,0.0,0.0,0.0,0.0,0.0,0.0,0.0,0.0,0.0,0.0,0.0,0.0,0.0,0.0,0.0,0.0,0.0,0.0,0.0,0.0,0.0,0.0,0.0,0.0,0.0,0.0,0.0,0.0,0.0,0.0,0.0,0.0,0.0,0.0,0.0,0.0,0.0,0.0,0.0,0.0,0.0,0.0,0.0,0.0,0.0,0.0,0.0,0.0,0.0,0.0,0.0,0.0,0.0,0.0,0.0,0.0,0.0,0.0,0.0,0.0,0.0,0.0,0.0,0.0,0.0,-3.1328,-3.1328,-3.1328,-3.1571,-3.1585,-3.1175,-3.1086,-3.1153,-3.1505,-3.0667,0.0,0.0,0.0,0.0,0.0,0.0,0.0,0.0,0.0,0.0,0.0,0.0,0.0,0.0,0.0,0.0,0.0,0.0,0.0,0.0,0.0,0.0,0.0,0.0,0.0,0.0,0.0,0.0,0.0,0.0,0.0,0.0,0.0,0.0,0.0,0.0,0.0,0.0,0.0,0.0,0.0,0.0,0.0,0.0,0.0,0.0,0.0,0.0,0.0,0.0,0.0,0.0,0.0,0.0,0.0,0.0,0.0,0.0,0.0,0.0,0.0,0.0,0.0,0.0,0.0,0.0,0.0,0.0,0.0,0.0,0.0,0.0,0.0,0.0,0.0,0.0,0.0,0.0,0.0,0.0,0.0,0.0,0.0,0.0,0.0,0.0,0.0,0.0,0.0,0.0,0.0,0.0,0.0,0.0,0.0,0.0,0.0,0.0,0.0,0.0,0.0,0.0,-3.2576,-3.2576,-3.2576,-3.2576,-3.2401,-3.1967,-3.1905,-3.1905,-3.1936,-3.1143,0.0,0.0,0.0,0.0,0.0,0.0,0.0,0.0,0.0,0.0,0.0,0.0,0.0,0.0,0.0,0.0,0.0,0.0,0.0,0.0,0.0,0.0,0.0,0.0,0.0,0.0,0.0,0.0,0.0,0.0,0.0,0.0,0.0,0.0,0.0,0.0,0.0,0.0,0.0,0.0,0.0,0.0,0.0,0.0,0.0,0.0,0.0,0.0,0.0,0.0,0.0,0.0,0.0,0.0,0.0,0.0,0.0,0.0,0.0,0.0,0.0,0.0,0.0,0.0,0.0,0.0,0.0,0.0,0.0,0.0,0.0,0.0,0.0,0.0,0.0,0.0,0.0,0.0,0.0,0.0,0.0,0.0,0.0,0.0,0.0,0.0,0.0,0.0,0.0,0.0,0.0,0.0,0.0,0.0,0.0,0.0,0.0,0.0,0.0,0.0,0.0,0.0,-3.2669,-3.2669,0.0,-3.2669,-3.2607,-3.2432,-3.2153,-3.2112,-3.2401,0.0,0.0,0.0,0.0,0.0,0.0,0.0,0.0,0.0,0.0,0.0,0.0,0.0,0.0,0.0,0.0,0.0,0.0,0.0,0.0,0.0,0.0,0.0,0.0,0.0,0.0,0.0,0.0,0.0,0.0,0.0,0.0,0.0,0.0,0.0,0.0,0.0,0.0,0.0,0.0,0.0,0.0,0.0,0.0,0.0,0.0,0.0,0.0,0.0,0.0,0.0,0.0,0.0,0.0,0.0,0.0,0.0,0.0,0.0,0.0,0.0,0.0,0.0,0.0,0.0,0.0,0.0,0.0,0.0,0.0,0.0,0.0,0.0,0.0,0.0,0.0,0.0,0.0,0.0,0.0,0.0,0.0,0.0,0.0,0.0,0.0,0.0,0.0,0.0,0.0,0.0,0.0,0.0,0.0,0.0,0.0,0.0,0.0,0.0,0.0,0.0,0.0,-3.2669,-3.2669,-3.2669,0.0,-3.2669,-3.2669,-3.2669,-3.239,-3.2339,-3.2659,0.0,0.0,0.0,0.0,0.0,0.0,0.0,0.0,0.0,0.0,0.0,0.0,0.0,0.0,0.0,0.0,0.0,0.0,0.0,0.0,0.0,0.0,0.0,0.0,0.0,0.0,0.0,0.0,0.0,0.0,0.0,0.0,0.0,0.0,0.0,0.0,0.0,0.0,0.0,0.0,0.0,0.0,0.0,0.0,0.0,0.0,0.0,0.0,0.0,0.0,0.0,0.0,0.0,0.0,0.0,0.0,0.0,0.0,0.0,0.0,0.0,0.0,0.0,0.0,0.0,0.0,0.0,0.0,0.0,0.0,0.0,0.0,0.0,0.0,0.0,0.0,0.0,0.0,0.0,0.0,0.0,0.0,0.0,0.0,0.0,0.0,0.0,0.0,0.0,0.0,0.0,0.0,0.0,0.0,0.0,0.0,0.0,0.0,0.0,0.0,0.0,0.0,-3.2669,-3.2669,-3.2669,-3.2669,-3.2669,-3.2669,-3.2669,-3.2669,-3.2669,0.0,0.0,0.0,0.0,0.0,0.0,0.0,0.0,0.0,0.0,0.0,0.0,0.0,0.0,0.0,0.0,0.0,0.0,0.0,0.0,0.0,0.0,0.0,0.0,0.0,0.0,0.0,0.0,0.0,0.0,0.0,0.0,0.0,0.0,0.0,0.0,0.0,0.0,0.0,0.0,0.0,0.0,0.0,0.0,0.0,0.0,0.0,0.0,0.0,0.0,0.0,0.0,0.0,0.0,0.0,0.0,0.0,0.0,0.0,0.0,0.0,0.0,0.0,0.0,0.0,0.0,0.0,0.0,0.0,0.0,0.0,0.0,0.0,0.0,0.0,0.0,0.0,0.0,0.0,0.0,0.0,0.0,0.0,0.0,0.0,0.0,0.0,0.0,0.0,0.0,0.0,0.0,0.0,0.0,0.0,0.0,0.0,0.0,0.0,0.0,0.0,0.0,0.0,-3.2669,-3.2669,-3.2669,-3.2669,-3.2669,-3.2669,-3.2669,-3.2669,-3.2669,-3.2669,0.0,0.0,0.0,0.0,0.0,0.0,0.0,0.0,0.0,0.0,0.0,0.0,0.0,0.0,0.0,0.0,0.0,0.0,0.0,0.0,0.0,0.0,0.0,0.0,0.0,0.0,0.0,0.0,0.0,0.0,0.0,0.0,0.0,0.0,0.0,0.0,0.0,0.0,0.0,0.0,0.0,0.0,0.0,0.0,0.0,0.0,0.0,0.0,0.0,0.0,0.0,0.0,0.0,0.0,0.0,0.0,0.0,0.0,0.0,0.0,0.0,0.0,0.0,0.0,0.0,0.0,0.0,0.0,0.0,0.0,0.0,0.0,0.0,0.0,0.0,0.0,0.0,0.0,0.0,0.0,0.0,0.0,0.0,0.0,0.0,0.0,0.0,0.0,0.0,0.0,0.0,0.0,0.0,0.0,0.0,0.0,0.0,0.0,0.0,0.0,0.0,0.0,-3.2669,-3.2669,-3.2669,-3.2669,-3.2669,-3.2669,-3.2669,-3.2669,-3.2669,-3.2669,0.0,0.0,0.0,0.0,0.0,0.0,0.0,0.0,0.0,0.0,0.0,0.0,0.0,0.0,0.0,0.0,0.0,0.0,0.0,0.0,0.0,0.0,0.0,0.0,0.0,0.0,0.0,0.0,0.0,0.0,0.0,0.0,0.0,0.0,0.0,0.0,0.0,0.0,0.0,0.0,0.0,0.0,0.0,0.0,0.0,0.0,0.0,0.0,0.0,0.0,0.0,0.0,0.0,0.0,0.0,0.0,0.0,0.0,0.0,0.0,0.0,0.0,0.0,0.0,0.0,0.0,0.0,0.0,0.0,0.0,0.0,0.0,0.0,0.0,0.0,0.0,0.0,0.0,0.0,0.0,0.0,0.0,0.0,0.0,0.0,0.0,0.0,0.0,0.0,0.0,0.0,0.0,0.0,0.0,0.0,0.0,0.0,0.0,0.0,0.0,0.0,0.0,-3.2669,-3.2669,-3.2669,-3.2669,-3.2669,-3.2669,-3.2669,-3.2669,-3.2669,-3.2669,0.0,0.0,0.0,0.0,0.0,0.0,0.0,0.0,0.0,0.0,0.0,0.0,0.0,0.0,0.0,0.0,0.0,0.0,0.0,0.0,0.0,0.0,0.0,0.0,0.0,0.0,0.0,0.0,0.0,0.0,0.0,0.0,0.0,0.0,0.0,0.0,0.0,0.0,0.0,0.0,0.0,0.0,0.0,0.0,0.0,0.0,0.0,0.0,0.0,0.0,0.0,0.0,0.0,0.0,0.0,0.0,0.0,0.0,0.0,0.0,-2.9196,0.0,0.0,0.0,0.0,0.0,0.0,0.0,0.0,0.0,0.0,0.0,0.0,0.0,0.0,0.0,0.0,0.0,0.0,0.0,0.0,0.0,0.0,0.0,0.0,0.0,0.0,0.0,0.0,0.0,0.0,0.0,0.0,0.0,0.0,0.0,0.0,0.0,0.0,0.0,0.0,0.0,-3.2669,-3.2669,-3.2669,-3.2669,-3.2669,-3.2669,-3.2669,-3.2669,-3.2669,-3.2669,-3.2359,0.0,0.0,0.0,0.0,0.0,0.0,0.0,0.0,0.0,0.0,0.0,0.0,0.0,0.0,0.0,0.0,0.0,0.0,0.0,0.0,0.0,0.0,0.0,0.0,0.0,0.0,0.0,0.0,0.0,0.0,0.0,0.0,0.0,0.0,0.0,0.0,0.0,0.0,0.0,0.0,0.0,0.0,0.0,0.0,0.0,0.0,0.0,0.0,0.0,0.0,0.0,0.0,0.0,0.0,0.0,0.0,0.0,0.0,0.0,0.0,-2.9307,0.0,0.0,0.0,0.0,0.0,0.0,0.0,0.0,0.0,0.0,0.0,0.0,0.0,0.0,0.0,0.0,0.0,0.0,0.0,0.0,0.0,0.0,0.0,0.0,0.0,0.0,0.0,0.0,0.0,0.0,0.0,0.0,0.0,0.0,0.0,0.0,0.0,0.0,0.0,0.0,-3.2669,-3.2669,-3.2669,-3.2669,-3.2669,-3.2669,-3.2669,-3.3226,-3.3551,-3.3561,-3.3617,0.0,0.0,0.0,0.0,0.0,0.0,0.0,0.0,0.0,0.0,0.0,0.0,0.0,0.0,0.0,0.0,0.0,0.0,0.0,0.0,0.0,0.0,0.0,0.0,0.0,0.0,0.0,0.0,0.0,0.0,0.0,0.0,0.0,0.0,0.0,0.0,0.0,0.0,0.0,0.0,0.0,0.0,0.0,0.0,0.0,0.0,0.0,0.0,0.0,0.0,0.0,0.0,0.0,-2.941,-2.9444,-2.9504,-2.9504,-2.9504,-2.9504,-2.9444,-2.9376,-2.9307,-2.9307,0.0,0.0,0.0,0.0,0.0,0.0,0.0,0.0,0.0,0.0,0.0,0.0,0.0,0.0,0.0,0.0,0.0,0.0,0.0,0.0,0.0,0.0,0.0,0.0,-3.284,-3.282,-3.269,0.0,0.0,0.0,0.0,0.0,0.0,0.0,0.0,0.0,0.0,0.0,-3.2669,-3.2669,-3.2669,-3.2669,-3.2903,-3.2991,-3.2991,-3.4108,-3.4831,-3.4814,-3.5079,-3.5175,0.0,0.0,0.0,0.0,0.0,0.0,0.0,0.0,0.0,0.0,0.0,0.0,0.0,0.0,0.0,0.0,0.0,0.0,0.0,0.0,0.0,0.0,0.0,0.0,0.0,0.0,0.0,0.0,0.0,0.0,0.0,0.0,-2.3796,-2.5336,0.0,0.0,0.0,0.0,0.0,0.0,0.0,0.0,0.0,0.0,0.0,0.0,0.0,-2.9307,-2.9307,-2.9307,-2.9479,-2.9821,-2.9821,-2.9984,-3.0283,-3.0283,-3.0283,-3.0266,-2.9958,0.0,-2.9307,-2.9307,0.0,0.0,0.0,0.0,0.0,0.0,0.0,0.0,0.0,0.0,0.0,0.0,0.0,0.0,0.0,0.0,0.0,0.0,0.0,0.0,0.0,0.0,-3.3865,-3.3399,-3.3296,-3.3192,0.0,-3.2669,-3.2669,-3.2669,-3.2669,0.0,0.0,0.0,0.0,0.0,0.0,0.0,-3.2669,-3.2669,-3.2669,-3.2669,-3.3627,-3.4265,-3.4265,-3.5332,-3.5982,-3.5963,-3.5254,-3.5156,-3.6027,-3.5327,0.0,0.0,0.0,0.0,0.0,0.0,0.0,0.0,0.0,0.0,0.0,0.0,0.0,0.0,0.0,0.0,0.0,0.0,0.0,0.0,0.0,0.0,0.0,0.0,0.0,0.0,0.0,0.0,0.0,-2.5792,-2.5983,-2.6922,-2.728,-2.7546,0.0,0.0,0.0,0.0,0.0,0.0,0.0,0.0,0.0,-2.9633,-2.9641,-2.9736,-2.9941,-2.9941,-3.0027,-3.0198,-3.0198,-3.0275,-3.0429,-3.0429,-3.0429,-3.042,-3.0266,-3.0095,-2.9907,-2.9487,-2.9307,-2.9307,0.0,0.0,0.0,0.0,-3.0399,-3.1046,-3.2702,-3.3534,-3.4047,-3.5046,0.0,0.0,0.0,0.0,0.0,0.0,0.0,0.0,0.0,0.0,-3.4401,-3.3935,-3.3565,-3.3327,-3.3141,-3.2903,-3.2669,0.0,-3.2669,-3.2669,-3.2669,0.0,0.0,0.0,0.0,-3.2669,-3.2669,-3.2669,-3.2669,-3.2669,-3.3147,-3.3773,-3.4433,-3.5545,-3.6495,-3.7112,-3.7077,-3.7121,-3.7232,-3.6542,-3.6228,0.0,0.0,0.0,0.0,0.0,0.0,0.0,0.0,0.0,0.0,0.0,0.0,0.0,0.0,0.0,0.0,0.0,0.0,0.0,0.0,0.0,0.0,0.0,0.0,0.0,0.0,0.0,0.0,-2.7604,-2.7783,-2.8289,-2.8605,-2.8854,0.0,0.0,0.0,0.0,0.0,0.0,-2.9453,-2.9462,-2.9641,-3.0027,-3.0035,-3.0155,-3.042,-3.0429,-3.048,-3.0575,-3.0575,-3.0626,-3.072,-3.072,-3.072,-3.0712,-3.0617,-3.0575,-3.0523,-2.9873,-2.9547,-2.9462,-2.9462,-2.9402,-2.9438,-3.0408,-3.0982,-3.1488,-3.3282,-3.4047,-3.4423,-3.517,-3.5418,-3.5418,-3.5418,0.0,0.0,0.0,0.0,-3.5345,-3.5014,-3.4931,-3.4868,-3.438,-3.4017,-3.3748,-3.363,-3.3312,-3.3006,0.0,-3.2669,-3.2669,-3.2669,0.0,0.0,0.0,0.0,-3.2669,-3.2669,-3.2669,-3.2825,-3.3137,-3.3392,-3.4097,-3.5264,-3.6444,-3.7454,-3.83,-3.8729,-3.868,-3.8241,-3.7563,-3.6998,-3.6631,0.0,0.0,0.0,0.0,0.0,0.0,0.0,0.0,0.0,0.0,0.0,0.0,0.0,0.0,0.0,0.0,0.0,0.0,0.0,0.0,0.0,0.0,0.0,0.0,0.0,0.0,0.0,0.0,0.0,-2.8657,-2.8768,0.0,0.0,0.0,0.0,-2.9838,-2.9521,-2.947,-2.9847,-2.9873,-3.0035,-3.0386,-3.0395,-3.0412,-3.0429,-3.0429,-3.0617,-3.0986,-3.0986,-3.1174,-3.1508,-3.1508,-3.1508,-3.1491,-3.114,-3.0986,-3.0951,-3.054,-3.0172,-2.9873,-2.9873,-2.9641,-2.9438,-3.0408,-3.1423,-3.2438,-3.3534,-3.4548,-3.5356,-3.5356,-3.5418,-3.5418,-3.5418,-3.5418,0.0,0.0,-3.5418,-3.5418,-3.5397,-3.5387,-3.5252,-3.4845,-3.4762,-3.4638,-3.4171,-3.4053,-3.3751,0.0,-3.2669,-3.2669,-3.2669,0.0,-3.2669,-3.2669,-3.2669,-3.2669,-3.2669,-3.2669,-3.3137,-3.4275,-3.5354,-3.6507,-3.7634,-3.8838,-3.9531,-3.9608,-3.9171,-3.8906,-3.8881,-3.7764,-3.7174,-3.7149,-3.6669,0.0,0.0,0.0,0.0,0.0,0.0,0.0,0.0,0.0,0.0,0.0,0.0,0.0,0.0,0.0,0.0,0.0,0.0,0.0,0.0,0.0,0.0,0.0,0.0,0.0,0.0,0.0,0.0,-2.941,-2.9504,0.0,-2.9873,-2.977,-2.9744,-2.989,-2.977,-2.9847,-3.0224,-3.0241,-3.0412,-3.0797,-3.0806,-3.0917,-3.1157,-3.1157,-3.1225,-3.1371,-3.1371,-3.1439,-3.1638,-3.1638,-3.1638,-3.1559,-3.1422,-3.1371,-3.1362,-3.1217,-3.0797,-3.0241,-3.0241,-3.001,-2.9883,-3.1558,-3.229,-3.2638,-3.4288,-3.5108,-3.5418,-3.5418,-3.5418,-3.5418,-3.5418,-3.5418,-3.5418,-3.5418,-3.5418,-3.5418,-3.5418,-3.5418,-3.5376,-3.5241,-3.5002,-3.4754,-3.4575,-3.4287,-3.3969,-3.3658,-3.3586,-3.3586,-3.3586,-3.3586,-3.3586,-3.3586,-3.3589,-3.3576,-3.3601,-3.3616,-3.3627,-3.3783,-3.4813,-3.5856,-3.6748,-3.7847,-3.8896,-3.9672,-3.9522,-3.9258,-3.8932,-3.8529,-3.7927,-3.7199,-3.6998,-3.6757,0.0,0.0,0.0,0.0,0.0,0.0,0.0,0.0,0.0,0.0,0.0,0.0,0.0,0.0,0.0,0.0,0.0,0.0,0.0,0.0,0.0,0.0,0.0,0.0,0.0,0.0,-2.9196,-2.983,-2.9898,-2.995,-3.0069,-2.9967,-2.995,-3.0069,-3.0078,-3.0232,-3.06,-3.0626,-3.0806,-3.1191,-3.12,-3.1319,-3.1638,-3.1638,-3.1638,-3.1638,-3.1638,-3.1638,-3.1638,-3.1638,-3.1638,-3.1638,-3.1638,-3.1638,-3.1638,-3.1638,-3.1268,-3.0797,-3.0677,-3.0403,-3.0338,-3.2364,-3.2972,-3.3123,-3.5182,-3.5883,-3.5863,-3.5707,-3.5645,-3.5603,-3.5438,-3.5418,-3.5418,-3.5418,-3.5418,-3.5418,-3.5418,-3.5418,-3.5418,-3.5418,-3.52,-3.4983,-3.4983,-3.4745,-3.4527,-3.4527,-3.4279,-3.4132,-3.4132,-3.4132,-3.41,-3.4087,-3.408,-3.4133,-3.4104,-3.4108,-3.4116,-3.4173,-3.5268,-3.628,-3.6936,-3.809,-3.9055,-3.9633,-3.9697,-3.9534,-3.917,-3.902,-3.8429,-3.7475,-3.7098,-3.6769,-3.6405,0.0,0.0,0.0,0.0,0.0,0.0,0.0,0.0,0.0,0.0,0.0,0.0,0.0,0.0,0.0,0.0,0.0,0.0,0.0,0.0,0.0,0.0,0.0,-2.8794,-2.9093,-2.9462,-2.9873,-2.9907,-3.0035,-3.0395,-3.0112,-3.0061,-3.042,-3.0446,-3.0617,-3.1011,-3.1028,-3.12,-3.1551,-3.1638,-3.1638,-3.1638,-3.1638,-3.1638,-3.1638,-3.1638,-3.1638,-3.1638,-3.1638,-3.1638,-3.1638,-3.1638,-3.1638,-3.1638,-3.1638,-3.1638,-3.1534,-3.1174,-3.0789,-3.071,-3.2855,-3.3643,-3.3964,-3.6075,-3.6804,-3.6732,-3.6277,-3.6092,-3.6038,-3.5593,-3.5428,-3.5428,-3.5428,-3.5428,-3.5428,-3.5428,-3.5428,-3.5428,-3.5428,-3.5428,-3.5418,-3.5418,-3.5418,-3.5418,-3.5418,-3.4714,-3.4113,-3.4113,-3.4113,-3.416,-3.4129,-3.4156,0.0,-3.4189,-3.4193,-3.4636,-3.5684,-3.6944,-3.7974,-3.8518,-3.9718,-4.0242,-3.976,-3.9697,-3.9697,-3.9697,-3.9182,-3.863,-3.804,-3.6983,-3.6417,-3.6417,0.0,0.0,0.0,0.0,0.0,0.0,0.0,0.0,0.0,0.0,0.0,0.0,0.0,0.0,0.0,0.0,0.0,0.0,0.0,0.0,0.0,0.0,-2.9162,-2.9162,-2.9248,-2.9556,-3.0206,-3.0061,-3.0035,-3.0395,-3.0343,-3.0438,-3.0823,-3.0857,-3.102,-3.1397,-3.1414,-3.1456,-3.163,-3.1638,-3.1638,-3.1638,-3.1638,-3.1638,-3.1638,-3.1638,-3.1638,-3.1638,-3.1638,-3.1638,-3.1638,-3.1638,-3.1638,-3.1638,-3.1638,-3.1638,-3.1551,-3.1456,-3.1661,-3.2212,-3.3541,-3.4819,-3.601,-3.6612,-3.6804,-3.6784,-3.6649,-3.6604,-3.6567,-3.6463,-3.639,-3.639,-3.639,-3.639,-3.639,-3.639,-3.6131,-3.5934,-3.5934,-3.5676,-3.5418,-3.5418,-3.5418,-3.5418,-3.5418,-3.5221,-3.5055,-3.5055,-3.5055,-3.5024,-3.5034,-3.5023,0.0,-3.6328,-3.641,-3.6417,-3.641,-3.746,-3.8112,-3.7976,-3.8656,-3.9453,-4.026,-3.9923,-3.9697,-3.9697,-3.9546,-3.9207,-3.8642,-3.7541,-3.6975,0.0,0.0,0.0,0.0,0.0,0.0,0.0,0.0,0.0,0.0,0.0,0.0,0.0,0.0,0.0,0.0,0.0,0.0,0.0,0.0,0.0,0.0,-2.9316,-2.9607,-2.9761,-2.9778,-2.9881,-3.0172,-3.0155,-3.0206,-3.0412,-3.0575,-3.0772,-3.0994,-3.1157,-3.1337,-3.1551,-3.1638,-3.1638,-3.1638,-3.1638,-3.1638,-3.1638,-3.1638,-3.1638,-3.1638,-3.1638,-3.1638,-3.1638,-3.1638,-3.1638,-3.1638,-3.1638,-3.1638,-3.1638,-3.1638,-3.1638,0.0,0.0,0.0,0.0,0.0,-3.6117,-3.7384,-3.7384,-3.7384,-3.7353,-3.7156,-3.7122,-3.7064,-3.6876,-3.6812,-3.6767,-3.6767,-3.6767,-3.6767,-3.6767,-3.6587,-3.639,-3.6393,-3.6204,-3.5955,-3.5955,-3.5955,-3.5945,-3.5697,-3.5686,0.0,-3.5428,-3.5418,-3.5418,-3.5418,-3.5418,-3.5862,-3.716,-3.7319,-3.7392,-3.7658,-3.88,-3.9302,-3.8815,-3.9592,0.0,0.0,0.0,-3.9936,-3.9697,-3.9471,0.0,0.0,0.0,-3.7541,-3.7556,0.0,0.0,0.0,-3.6621,-3.6405,0.0,0.0,0.0,0.0,0.0,0.0,0.0,0.0,0.0,0.0,0.0,0.0,0.0,0.0,0.0,0.0,-2.9667,-3.001,-3.0318,-3.0369,-3.0249,-2.9941,-3.0181,-3.0386,-3.042,-3.0789,-3.1028,-3.1071,-3.1379,-3.1638,-3.1638,0.0,0.0,0.0,0.0,-3.1638,-3.1638,-3.1638,-3.1638,-3.1638,-3.1638,-3.1638,-3.1638,-3.1638,-3.1638,-3.1638,-3.1638,-3.1638,-3.163,-3.17,-3.1912,-3.2254,-3.3076,-3.3484,-3.3831,-3.5899,-3.7348,-3.8181,-3.8181,0.0,0.0,-3.7705,-3.7579,-3.7514,-3.7067,-3.6927,-3.6977,-3.6977,-3.6977,-3.6977,-3.6977,-3.69,-3.6861,-3.6908,-3.6863,-3.679,-3.679,-3.679,-3.6654,-3.6246,-3.6204,-3.6038,-3.5614,-3.5438,-3.5418,-3.5418,-3.5521,-3.6048,-3.7348,-3.7623,-3.8146,-3.9284,0.0,0.0,-4.0434,-4.1377,-4.1622,-4.0764,-4.0588,-4.0275,-3.9722,-3.922,-3.9007,-3.9007,-3.8391,-3.8079,-3.8099,-3.8039,-3.8004,-3.7979,-3.7039,-3.6571,0.0,0.0,0.0,0.0,0.0,0.0,0.0,0.0,0.0,0.0,0.0,0.0,0.0,0.0,0.0,-2.9676,-2.9847,-2.9924,-2.9992,-3.0001,-2.9975,-2.9907,-2.9958,-3.0112,-3.0395,-3.0789,-3.114,-3.1439,-3.1525,-3.1638,-3.1638,-3.1638,-3.1638,-3.1638,-3.1638,-3.1638,-3.1638,-3.1638,-3.1638,-3.1638,0.0,0.0,-3.1638,-3.1638,-3.1638,-3.1638,-3.1638,-3.1638,-3.17,-3.2526,-3.3969,-3.549,-3.4805,-3.508,-3.6035,-3.7348,-3.7981,-3.8181,-3.8181,-3.8181,-3.8171,-3.8078,-3.8088,-3.8063,-3.7949,-3.7914,0.0,-3.7909,-3.7909,-3.7909,-3.7909,-3.7637,-3.7361,-3.7359,-3.7094,-3.6825,-3.6825,-3.6825,-3.676,-3.6675,-3.665,-3.6639,-3.6556,-3.5872,-3.5418,-3.5418,-3.6286,-3.7358,-3.8689,-3.9744,-4.0454,-4.0719,-4.0982,-4.1052,-4.0982,-4.0781,-4.1028,-4.1789,-4.1003,-4.0275,-3.9722,-3.9597,-3.9534,-3.9534,-3.8988,-3.8724,-3.8739,-3.8228,-3.8004,-3.7991,-3.7792,-3.7667,0.0,0.0,0.0,0.0,0.0,0.0,0.0,0.0,0.0,0.0,0.0,-2.9429,0.0,0.0,-2.9462,-2.9838,-2.9898,-2.9898,-2.9898,-2.9898,-2.9898,-2.9898,-3.0061,-3.0309,-3.0686,-3.1063,-3.1362,-3.1551,-3.1638,-3.1638,-3.1638,-3.1638,-3.1638,-3.1638,-3.1638,-3.1638,-3.1638,-3.1638,-3.1638,-3.1638,-3.1638,-3.1638,-3.1638,-3.1638,-3.1638,-3.1638,-3.1638,-3.1638,-3.17,-3.2727,-3.4521,-3.6451,-3.5899,-3.6384,-3.7415,-3.7971,-3.8181,-3.8181,-3.8181,-3.8181,-3.8181,-3.8181,-3.8181,-3.8181,-3.8181,-3.8181,-3.8181,-3.8181,-3.8181,-3.8181,-3.8181,-3.8006,-3.7822,-3.7822,-3.7637,-3.7529,-3.7529,-3.7529,-3.7437,-3.7172,-3.7155,-3.708,-3.6815,-3.6434,-3.6042,-3.5821,-3.6639,-3.7778,-3.9015,-4.0326,-4.1354,-4.2004,-4.2032,-4.2066,-4.2037,-4.1545,-4.1515,-4.2158,-4.1116,-4.0388,-4.0111,-3.9835,-3.9697,-3.9697,-3.9429,-3.9328,-3.9328,-3.8978,-3.8867,-3.8867,-3.8867,-3.8567,0.0,0.0,0.0,0.0,0.0,0.0,0.0,0.0,-3.0456,-3.104,-3.0663,-3.045,-3.0926,-3.0647,-3.0327,-3.0206,-3.0154,-2.9978,-2.9778,-2.9847,-2.9924,-2.9992,-3.0318,-3.0669,-3.0986,-3.1345,-3.1638,-3.1638,-3.1638,-3.1638,-3.1638,-3.1638,-3.1638,-3.1638,-3.1638,-3.1638,-3.1638,-3.1638,-3.1638,-3.1638,-3.1638,-3.1638,-3.1638,-3.1638,-3.1638,-3.1638,-3.1638,-3.1841,-3.2325,-3.3146,-3.4865,-3.6799,-3.6799,-3.7415,-3.8181,-3.8181,-3.8181,-3.8181,-3.8181,-3.8181,-3.8181,-3.8181,-3.8181,-3.8181,-3.8181,-3.8181,-3.8181,-3.8181,-3.8181,-3.8181,-3.8181,-3.8181,-3.8181,-3.8181,-3.8181,-3.8181,-3.8181,-3.8181,-3.8083,-3.7714,-3.7627,-3.7529,-3.7161,-3.6987,-3.6744,-3.6154,-3.7076,-3.8138,-3.9101,-4.0534,-4.1842,-4.288,-4.2974,-4.2974,-4.2974,-4.2627,-4.2326,-4.2213,-4.1329,-4.0789,-4.0676,-4.0149,-3.9848,-3.9848,-3.9747,-3.9697,-3.9697,-3.9697,-3.9697,-3.9697,-3.9697,-3.9206,-2.4804,-2.7105,-2.9759,-3.0139,-3.0684,-3.1353,0.0,0.0,-3.2008,-3.2891,-3.2915,-3.2936,-3.3305,-3.2702,-3.193,-3.1319,-3.0954,-3.0405,-2.9507,-2.9676,-3.0018,-3.0335,-3.0712,-3.0968,-3.1011,-3.1345,-3.1638,-3.1638,-3.1638,-3.1638,-3.1638,-3.1638,-3.1638,-3.1638,-3.1638,-3.1638,-3.1638,-3.1638,-3.1638,-3.1638,-3.1638,-3.1638,-3.1638,-3.1638,-3.1638,-3.1638,-3.1638,-3.2736,-3.453,-3.4668,-3.6044,-3.7981,-3.7981,-3.8114,-3.8181,-3.8181,-3.8181,-3.8181,-3.8181,-3.8181,-3.8181,-3.8181,-3.8181,-3.8181,-3.8181,-3.8181,-3.8181,-3.8181,-3.8181,-3.8181,-3.8181,-3.8181,-3.8181,-3.8181,-3.8181,-3.8181,-3.8181,-3.8181,-3.8181,-3.8104,-3.8094,-3.8094,-3.8073,-3.7714,-3.7108,-3.6227,-3.808,-3.9504,-3.9217,-4.1286,-4.2855,-4.2974,-4.2974,-4.2974,-4.2974,-4.2924,-4.2728,-4.2238,-4.2099,-4.1756,-4.1213,-4.0714,-4.0425,-4.0425,-3.9936,-3.9697,-3.9697,-3.9697,-3.9697,-3.9697,-3.9697,-3.9634,-2.8027,-2.9859,-3.1546,0.0,-3.1893,-3.2248,-3.2612,-3.2769,-3.2972,-3.3661,-3.37,-3.3621,-3.3809,-3.3222,-3.2531,0.0,-3.134,-3.0739,-3.0579,-3.036,-3.0343,-3.0729,-3.1105,-3.1337,-3.1337,-3.1474,-3.1638,-3.1638,-3.1638,-3.1638,-3.1638,-3.1638,-3.1638,-3.1638,-3.1638,-3.1638,-3.1638,-3.1638,-3.1638,-3.1638,-3.1638,-3.1638,-3.1638,-3.1638,-3.1912,-3.2526,-3.2526,-3.3762,-3.5831,-3.5831,-3.6799,-3.8181,-3.8181,-3.8181,-3.8181,-3.8181,-3.8181,-3.8181,-3.8181,-3.8181,-3.8181,-3.8181,-3.8181,-3.8181,-3.8181,-3.8181,-3.8181,-3.8181,-3.8181,-3.8181,-3.8181,-3.8181,-3.8181,-3.8181,-3.8181,-3.8181,-3.8181,-3.8181,-3.8181,-3.8181,-3.8181,-3.8181,-3.8181,-3.8006,-3.7651,-3.6975,-3.8642,-3.9812,-3.9622,-4.1564,-4.2974,-4.2974,-4.2974,-4.2974,-4.2974,-4.2974,-4.2873,-4.2703,-4.2389,-4.2112,-4.1819,-4.1291,-4.0852,-4.0526,-4.0287,-4.0011,-3.9697,-3.9697,-3.9697,-3.9697,-3.9697,-3.9697,-3.044,0.0,0.0,-3.2612,-3.2669,-3.27,-3.2882,-3.3254,-3.3758,-3.4225,-3.4248,-3.4278,-3.4288,-3.3916,-3.344,-3.2877,-3.2128,-3.17,-3.1835,-3.1247,-3.0984,-3.1444,-3.1547,-3.1638,-3.1638,-3.1638,-3.1638,-3.1638,-3.1638,-3.1638,-3.1638,-3.1638,-3.1638,-3.1638,-3.1638,-3.1638,-3.1638,-3.1638,-3.1638,-3.1638,-3.1638,-3.1638,-3.1638,-3.1638,-3.2184,-3.3206,-3.3206,-3.4452,-3.6519,-3.6519,-3.7136,-3.8181,-3.8181,-3.8181,-3.8181,-3.8181,-3.8181,-3.8181,-3.8181,-3.8181,-3.8181,-3.8181,-3.8181,-3.8181,-3.8181,-3.8181,-3.8181,-3.8181,-3.8181,-3.8181,-3.8181,-3.8181,-3.8181,-3.8181,-3.8181,-3.8181,-3.8181,-3.8181,-3.8181,-3.8181,-3.8181,-3.8181,-3.8181,-3.8181,-3.8231,-3.8256,-3.9442,-4.02,-3.9929,-4.1685,-4.2974,-4.2974,-4.2974,-4.2974,-4.2974,-4.2974,-4.2974,-4.2974,-4.2652,-4.2439,-4.2439,-4.1856,-4.1379,-4.0978,-4.0676,-4.0325,-3.9923,-3.9772,-3.9697,-3.9697,-3.9697,-3.9697,0.0,0.0,-3.1584,-3.2487,-3.2669,-3.284,-3.3254,-3.372,-3.4235,-3.4702,-3.5107,-3.5356,-3.5356,-3.5366,-3.4994,-3.3985,-3.3859,-3.3628,-3.3146,-3.2388,-3.2138,-3.2602,-3.2027,-3.1638,0.0,-3.1638,-3.1638,-3.1638,-3.1638,-3.1638,-3.1638,-3.1638,-3.1638,-3.1638,-3.1638,-3.1638,-3.1638,-3.1638,-3.1638,-3.1638,-3.1638,-3.1638,-3.1638,-3.1638,-3.2184,-3.3206,-3.3206,-3.4452,-3.6519,-3.6519,-3.7136,-3.8181,-3.8181,-3.8181,-3.8181,-3.8181,-3.8181,-3.8181,-3.8181,-3.8181,-3.8181,-3.8181,-3.8181,-3.8181,-3.8181,-3.8181,-3.8181,-3.8181,-3.8181,-3.8181,-3.8181,-3.8181,-3.8181,-3.8181,-3.8181,-3.8181,-3.8181,-3.8181,-3.8181,-3.8181,-3.8181,-3.8181,-3.8181,-3.8181,-3.8611,-3.9911,-4.084,-4.0975,-4.0054,-4.1695,-4.2974,-4.2974,-4.2974,-4.2974,-4.2974,-4.2974,-4.2974,-4.2974,-4.2961,-4.2949,-4.2949,-4.2476,-4.2175,-4.2162,-4.1053,-4.0513,-4.0488,-3.9961,-3.9697,-3.9697,-3.9697,-3.9697,-3.0898,0.0,-3.2305,-3.2612,-3.2944,-3.3203,-3.3348,-3.3969,-3.4629,-3.4785,-3.5117,-3.5418,-3.5418,-3.5418,-3.5294,-3.4922,-3.436,-3.4043,-3.444,-3.368,-3.3364,-3.4044,-3.3964,0.0,0.0,0.0,0.0,-3.1638,-3.1638,-3.1912,-3.2587,-3.2657,-3.2657,-3.2657,-3.2657,-3.2657,-3.2657,-3.1982,-3.2325,-3.3771,-3.3771,-3.3354,-3.2666,-3.3424,-3.4383,-3.5412,-3.5412,-3.6248,-3.7626,-3.7626,-3.7837,-3.8181,-3.8181,-3.8181,-3.8181,-3.8181,-3.8181,-3.8181,-3.8181,-3.8181,-3.8181,-3.8181,-3.8181,-3.8181,-3.8181,-3.8181,-3.8181,-3.8181,-3.8181,-3.8181,-3.8181,-3.8181,-3.8181,-3.8181,-3.8181,-3.8181,-3.8181,-3.8181,-3.8181,-3.8181,-3.8181,-3.8464,-3.9393,-3.9518,-4.0301,-4.2599,-4.2793,-4.2684,-4.2522,-4.3122,-4.3376,-4.3024,-4.2974,-4.2974,-4.2974,-4.2974,-4.2974,-4.2974,-4.2974,-4.2974,-4.2974,-4.2854,-4.2577,-4.2213,-4.1848,-4.1241,-4.0513,-4.0325,-4.0049,-3.9697,-3.9697,-3.9697,-3.1656,-3.219,-3.2711,-3.2923,-3.3172,-3.3461,-3.3793,-3.4455,-3.4993,-3.4993,-3.5355,-3.5614,-3.5449,-3.5418,-3.548,-3.5645,-3.5104,-3.4976,-3.5927,-3.5054,-3.4643,-3.5403,-3.5148,-3.4874,0.0,0.0,0.0,-3.2806,-3.2806,-3.3085,-3.3762,-3.3831,-3.3831,-3.3831,-3.3831,-3.3831,-3.3831,-3.3146,-3.3493,-3.4874,-3.4874,-3.453,-3.3831,-3.4599,-3.549,-3.6519,-3.6519,-3.7146,-3.8181,-3.8181,-3.8181,-3.8181,-3.8181,-3.8181,-3.8181,-3.8181,-3.8181,-3.8181,-3.8181,-3.8181,-3.8181,-3.8181,-3.8181,-3.8181,-3.8181,-3.8181,-3.8181,-3.8181,-3.8181,-3.8181,-3.8181,-3.8181,-3.8181,-3.8181,-3.8181,-3.8181,-3.8181,-3.8181,-3.8181,-3.8181,-3.8562,-3.9207,-4.0051,-4.1004,-4.2251,-4.4017,-4.4389,-4.4355,-4.4122,-4.3928,-4.3589,-4.3037,-4.2974,-4.2974,-4.2974,-4.2974,-4.2974,-4.2974,-4.2974,-4.2974,-4.2974,-4.2974,-4.2811,-4.2514,-4.2313,-4.1861,-4.1103,-4.0701,-4.0337,-3.9986,-3.9785,-3.9697,-3.2486,-3.2498,-3.283,-3.3265,-3.3399,-3.3706,-3.4608,-3.5117,-3.5449,-3.5428,-3.579,-3.5966,0.0,0.0,-3.5562,-3.6008,-3.6101,-3.6432,-3.7332,-3.6527,-3.609,0.0,0.0,0.0,0.0,0.0,0.0,-3.508,0.0,-3.4943,-3.5011,-3.5011,-3.5011,-3.5011,-3.5011,-3.5011,-3.5011,-3.5011,-3.5011,-3.4874,-3.5011,-3.5011,-3.5011,-3.5011,-3.5626,-3.6586,-3.6586,-3.7213,-3.8181,-3.8181,-3.8181,-3.8181,-3.8181,-3.8181,-3.8181,-3.8181,-3.8181,-3.8181,-3.8181,-3.8181,-3.8181,-3.8181,-3.8181,-3.8181,-3.8181,-3.8181,-3.8181,-3.8181,-3.8181,-3.8181,-3.8181,-3.8181,-3.8181,-3.8181,-3.8181,-3.8181,-3.8181,-3.8181,-3.8248,-3.8283,-3.9441,-4.0428,-4.0428,-4.2637,-4.4431,-4.4398,-4.5477,-4.5899,-4.4769,-4.4166,-4.3614,-4.3037,-4.2974,-4.2974,-4.2974,-4.2974,-4.2974,-4.2974,-4.2974,-4.2986,-4.3024,-4.3024,-4.3037,-4.3062,-4.2602,-4.2313,-4.225,-4.1153,-4.0601,-4.0501,-3.9986,-3.9722,-3.2553,-3.2669,-3.283,-3.3265,-3.3637,-3.41,-3.4691,-3.5376,-3.5832,-3.549,-3.579,-3.5966,0.0,0.0,0.0,-3.5583,-3.5883,0.0,-3.6898,-3.701,0.0,-3.7709,0.0,-3.7358,-3.7358,-3.7358,0.0,0.0,-3.584,-3.5285,-3.6035,-3.6103,-3.6103,-3.6103,-3.6103,-3.6103,-3.6103,-3.6934,-3.6529,-3.4943,-3.6596,-3.6934,-3.6103,-3.6934,-3.7492,-3.777,-3.777,-3.7904,-3.8181,-3.8181,-3.8181,-3.8181,-3.8181,-3.8181,-3.8181,-3.8181,-3.8181,-3.8181,-3.8181,-3.8181,-3.8181,-3.8181,-3.8181,-3.8181,-3.8181,-3.8181,-3.8181,-3.8181,-3.8181,-3.8181,-3.8181,-3.8181,-3.8181,-3.8181,-3.8181,-3.8181,-3.8181,-3.8181,-3.8476,-3.9519,-4.1634,-4.3224,-4.3224,-4.4658,-4.5782,-4.5805,-4.6047,-4.5899,-4.4769,-4.4505,-4.4053,-4.3074,-4.2974,-4.2974,-4.2974,-4.2974,-4.2974,-4.2974,-4.2974,-4.3162,-4.3576,-4.3589,-4.3777,-4.4192,-4.4066,-4.3589,-4.2828,-4.2484,-4.1718,-4.0513,-4.0375,-4.0086,-3.2668,-3.2871,-3.312,-3.3565,-3.409,-3.4608,-3.52,-3.5904,-3.6339,-3.608,-3.6235,0.0,-3.5811,0.0,0.0,0.0,0.0,0.0,-3.7043,-3.7508,-3.7891,0.0,-3.8181,0.0,-3.8181,-3.8181,-3.8181,0.0,-3.7079,-3.6596,-3.7213,-3.728,-3.728,-3.728,-3.728,-3.728,-3.728,-3.7904,-3.7569,-3.6384,-3.7626,-3.7837,-3.728,-3.7904,-3.8181,-3.8181,0.0,-3.8181,-3.8181,-3.8181,-3.8181,-3.8181,-3.8181,-3.8181,-3.8181,-3.8181,-3.8181,-3.8181,-3.8181,-3.8181,-3.8181,-3.8181,-3.8181,-3.8181,-3.8181,-3.8181,-3.8181,-3.8181,-3.8181,-3.8181,-3.8181,-3.8181,-3.8181,-3.8181,-3.8181,-3.8181,-3.8181,-3.8639,-3.9682,-4.1616,-4.3225,-4.4497,-4.5093,-4.5799,-4.6313,-4.6313,-4.6313,-4.5899,-4.4769,-4.4618,-4.4204,-4.3087,-4.2974,-4.2974,-4.2974,-4.2974,-4.2974,-4.2974,-4.2974,-4.3112,-4.3426,-4.3438,-4.3702,-4.4254,-4.4267,-4.4079,-4.3702,-4.3212,-4.2509,-4.1593,-4.1103,-4.0576,-3.283,-3.3047,-3.3492,-3.3958,-3.4474,-3.5065,-3.5904,-3.6473,-3.6804,-3.6804,0.0,-3.666,-3.6204,-3.5738,-3.5552,-3.5956,0.0,-3.6939,-3.7343,-3.785,-3.8181,-3.8181,-3.8181,-3.8181,-3.8181,-3.8181,-3.8181,-3.8181,-3.8181,-3.8181,-3.8181,-3.8181,-3.8181,-3.8181,-3.8181,-3.8181,-3.8181,-3.8181,-3.8181,-3.8181,-3.8181,-3.8181,-3.8181,-3.8181,-3.8181,-3.8181,-3.8181,-3.8181,-3.8181,-3.8181,-3.8181,-3.8181,-3.8181,-3.8181,-3.8181,-3.8181,-3.8181,-3.8181,-3.8181,-3.8181,-3.8181,-3.8181,-3.8181,-3.8181,-3.8181,-3.8181,-3.8181,-3.8181,-3.8181,-3.8181,-3.8181,-3.8181,-3.8181,-3.8181,-3.8181,-3.8248,-3.8437,-3.966,-4.1443,-4.3819,-4.4462,-4.491,-4.6105,-4.6313,-4.6313,-4.6313,-4.6228,-4.5827,-4.4748,-4.4618,-4.4166,-4.3087,-4.2974,-4.2974,-4.2974,-4.2974,-4.2974,-4.2974,-4.2974,-4.3011,-4.3087,-4.3087,-4.335,-4.3903,-4.3978,-4.4229,-4.4618,-4.3664,-4.3124,-4.2949,-4.1932,-4.1153,-3.269,-3.3047,-3.3492,-3.3958,-3.4474,-3.5065,-3.5904,-3.6473,0.0,0.0,-3.6804,-3.666,-3.6204,-3.5738,0.0,-3.5531,0.0,0.0,0.0,0.0,-3.8181,0.0,0.0,0.0,0.0,0.0,0.0,0.0,0.0,-3.8181,-3.8181,-3.8181,-3.8181,-3.8181,-3.8181,-3.8181,-3.8181,-3.8181,-3.8181,-3.8181,-3.8181,-3.8181,-3.8181,-3.8181,-3.8181,-3.8181,-3.8181,0.0,-3.8181,-3.8181,-3.8181,-3.8181,-3.8181,-3.8181,-3.8181,-3.8181,-3.8181,-3.8181,-3.8181,-3.8181,-3.8181,-3.8181,-3.8181,-3.8181,-3.8181,-3.8181,-3.8181,-3.8181,-3.8181,-3.8181,-3.8181,-3.8181,-3.8181,-3.8181,-3.8181,-3.8503,-3.9637,-4.182,-4.3745,-4.4204,-4.5219,-4.602,-4.6228,-4.6313,-4.6313,-4.6313,-4.591,-4.5415,-4.4714,-4.4568,-4.4162,-4.313,-4.2974,-4.2974,-4.2974,-4.2974,-4.2974,-4.2974,-4.2974,-4.3187,-4.3639,-4.3664,-4.3915,-4.4468,-4.4945,-4.5008,-4.4618,-4.443,-4.3865,-4.2961,-4.2363,-4.1718,-3.3006,-3.3399,-3.3903,-3.437,-3.4766,-3.5345,-3.6266,0.0,0.0,0.0,-3.7136,-3.6732,-3.6515,0.0,0.0,0.0,0.0,0.0,0.0,0.0,0.0,0.0,0.0,0.0,0.0,0.0,0.0,0.0,0.0,-3.8181,-3.8181,-3.8181,-3.8181,-3.8181,-3.8181,-3.8181,-3.8181,-3.8181,-3.8181,-3.8181,-3.8181,-3.8181,-3.8181,-3.8181,-3.8181,-3.8181,-3.8181,-3.8181,-3.8181,-3.8181,-3.8181,-3.8181,-3.8181,-3.8181,-3.8181,-3.8181,-3.8181,-3.8181,-3.8181,-3.8181,-3.8181,-3.8181,-3.8181,-3.8181,-3.8181,-3.8181,-3.8181,-3.8181,-3.8181,-3.8181,-3.8181,-3.8181,-3.8181,-3.8181,-3.8758,-3.9823,-4.1918,-4.3369,-4.4509,-4.522,-4.5866,-4.6313,-4.6313,-4.6313,-4.6215,-4.5922,-4.5689,-4.5171,-4.4323,-4.4174,-4.3903,-4.3092,-4.2974,-4.2974,-4.2974,-4.2974,-4.2974,-4.2974,-4.2974,-4.3099,-4.3363,-4.3376,-4.3627,-4.4179,-4.4468,-4.4756,-4.507,-4.448,-4.4066,-4.3815,-4.2974,-4.2283,-3.3254,-3.372,-3.4235,-3.4702,-3.5086,-3.5635,-3.6463,-3.6732,0.0,0.0,-3.7384,-3.6804,-3.6804,0.0,0.0,0.0,0.0,0.0,0.0,0.0,0.0,0.0,0.0,0.0,0.0,0.0,0.0,0.0,0.0,0.0,-3.8181,-3.8181,-3.8181,-3.8181,-3.8181,-3.8181,-3.8181,-3.8181,-3.8181,-3.8181,-3.8181,-3.8181,-3.8181,-3.8181,-3.8181,-3.8181,-3.8181,0.0,0.0,-3.8181,-3.8181,-3.8181,-3.8181,-3.8181,-3.8181,-3.8181,-3.8181,-3.8181,-3.8181,-3.8181,-3.8181,-3.8181,-3.8181,-3.8181,-3.8181,-3.8181,-3.8181,-3.8181,-3.8181,-3.8181,-3.8181,-3.8181,-3.8248,-3.857,-3.9451,-4.0957,-4.3681,-4.4275,-4.4681,-4.6059,-4.6313,-4.6313,-4.6313,-4.6213,-4.6015,-4.554,-4.5306,-4.4824,-4.3896,-4.3677,-4.3455,-4.3055,-4.2974,-4.2974,-4.2974,-4.2974,-4.2974,-4.2974,-4.2974,-4.2974,-4.2974,-4.2974,-4.3187,-4.3614,-4.374,-4.4242,-4.5121,-4.4229,-4.4028,-4.443,-4.3438,-4.2748,-3.3254,-3.372,-3.4235,-3.4702,-3.5086,-3.5552,-3.6059,0.0,0.0,-3.7457,-3.7156,-3.6804,-3.6804,-3.6039,0.0,0.0,0.0,0.0,0.0,0.0,0.0,0.0,0.0,0.0,0.0,0.0,0.0,0.0,0.0,0.0,-3.8181,-3.8181,-3.8181,-3.8181,-3.8181,-3.8181,-3.8181,-3.8181,-3.8181,-3.8181,-3.8181,-3.8181,-3.8181,-3.8181,-3.8181,-3.8181,-3.8181,0.0,0.0,-3.8181,-3.8181,-3.8181,-3.8181,-3.8181,-3.8181,-3.8181,-3.8181,-3.8181,-3.8181,-3.8181,-3.8181,-3.8181,-3.8181,-3.8181,-3.8181,-3.8181,-3.8181,-3.8181,-3.8181,-3.8181,-3.8181,-3.8181,-3.8503,-3.9703,-4.0138,-4.0957,-4.3681,-4.4309,-4.4691,-4.6024,-4.6313,-4.6313,-4.6313,-4.5899,-4.556,-4.5535,-4.4615,-4.3896,-4.3784,-4.3369,-4.3055,-4.3042,-4.2974,-4.2974,-4.2974,-4.2974,-4.2974,-4.2974,-4.2974,-4.2974,-4.2974,-4.2974,-4.2999,-4.3049,-4.3539,-4.3853,-4.3953,-4.3853,-4.3827,-4.3865,-4.3263,-4.2949,-3.3668,-3.3986,-3.4238,-3.4973,-3.5293,-3.5542,-3.6008,0.0,0.0,-3.7394,-3.7125,-3.6804,-3.6804,-3.6039,-3.5666,0.0,0.0,0.0,0.0,0.0,0.0,0.0,0.0,0.0,0.0,0.0,0.0,0.0,0.0,0.0,-3.8181,-3.8181,-3.8181,-3.8181,-3.8181,-3.8181,-3.8181,-3.8181,-3.8181,-3.8181,-3.8181,-3.8181,-3.8181,-3.8181,-3.8181,-3.8181,-3.8181,0.0,0.0,-3.8181,-3.8181,-3.8181,-3.8181,-3.8181,-3.8181,-3.8181,-3.8181,-3.8181,-3.8181,-3.8181,-3.8181,-3.8181,-3.8181,-3.8181,-3.8181,-3.8181,-3.8181,-3.8181,-3.8181,-3.8181,-3.8181,-3.8181,-3.8946,-4.1981,-4.2034,-4.2161,-4.4902,-4.5526,-4.5685,-4.6193,-4.6313,-4.6313,-4.6313,-4.5849,-4.5391,-4.5012,-4.4318,-4.3701,-4.3337,-4.3144,-4.2974,-4.2974,-4.2974,-4.2974,-4.2974,-4.2974,-4.2974,-4.2974,-4.2974,-4.2974,-4.2974,-4.2974,-4.2974,-4.2974,-4.3187,-4.3476,-4.3802,-4.3463,-4.3476,-4.379,-4.3237,-4.2854,-3.3906,-3.4132,-3.4279,-3.519,-3.5418,-3.5511,0.0,0.0,0.0,-3.7022,-3.6825,-3.6597,-3.6597,-3.5956,-3.5676,0.0,0.0,0.0,0.0,0.0,0.0,0.0,0.0,0.0,0.0,0.0,0.0,0.0,0.0,0.0,-3.8181,-3.8181,-3.8181,-3.8181,-3.8181,-3.8181,-3.8181,-3.8181,-3.8181,-3.8181,-3.8181,-3.8181,-3.8181,-3.8181,-3.8181,-3.8181,-3.8181,0.0,0.0,-3.8181,-3.8264,-3.8367,-3.8243,-3.8264,-3.8367,-3.8233,-3.8181,-3.8181,-3.8181,-3.8181,-3.8181,-3.8181,-3.8181,-3.8181,-3.8181,-3.8181,-3.8181,-3.8181,-3.8503,-3.8824,-3.8824,-3.9067,-4.0203,-4.3494,-4.3232,-4.2981,-4.5732,-4.5963,-4.5855,-4.6193,-4.6313,-4.6263,-4.61,-4.5598,-4.5032,-4.4425,-4.3908,-4.3449,-4.3062,-4.2974,-4.2974,-4.2974,-4.2974,-4.2974,-4.2974,-4.2974,-4.2974,-4.2974,-4.2974,-4.2974,-4.2974,-4.2974,-4.2974,-4.2974,-4.2974,-4.3175,-4.3551,-4.3162,-4.3175,-4.3539,-4.3162,-4.2597,-3.3824,-3.4132,-3.4279,-3.519,-3.5418,-3.5418,0.0,0.0,0.0,-3.6121,-3.6121,-3.6121,-3.6121,-3.5738,-3.5573,-3.6039,0.0,0.0,0.0,0.0,0.0,0.0,0.0,0.0,0.0,0.0,0.0,0.0,0.0,0.0,-3.8181,-3.8181,-3.8181,-3.8181,-3.8181,-3.8181,-3.8181,-3.8181,-3.8181,-3.8181,-3.8181,-3.8181,-3.8181,-3.8181,-3.8181,-3.8181,0.0,0.0,0.0,-3.8181,-3.844,-3.8734,-3.8357,-3.845,-3.8724,-3.8347,-3.8181,-3.8181,-3.8181,-3.8181,-3.8181,-3.8181,-3.8181,-3.8181,-3.8181,-3.8181,-3.8181,-3.8181,-3.9133,-4.0203,-4.0203,-4.1139,-4.2529,-4.3929,-4.3232,-4.2981,-4.5732,-4.5282,-4.4703,-4.6024,-4.6313,-4.6137,-4.5585,-4.502,-4.4422,-4.3869,-4.3357,-4.2986,-4.2974,-4.2974,-4.2974,-4.2974,-4.2974,-4.2974,-4.2974,-4.2974,-4.2974,-4.2974,-4.2974,-4.2974,-4.2974,-4.2974,-4.2974,-4.2974,-4.2974,-4.2974,-4.2986,-4.2974,-4.2974,-4.2986,-4.2974,-4.2396,-3.3989,-3.436,-3.4743,-3.5273,-3.5418,-3.5418,-3.5418,0.0,0.0,0.0,-3.6111,-3.6111,-3.6111,-3.5738,-3.5573,-3.6039,0.0,0.0,0.0,0.0,0.0,0.0,0.0,0.0,0.0,0.0,0.0,0.0,0.0,0.0,-3.8181,-3.8471,-3.8502,-3.8202,-3.8181,-3.8181,-3.8181,-3.8181,-3.8181,-3.8181,-3.8181,-3.8181,-3.8181,-3.8181,-3.8357,0.0,0.0,0.0,0.0,-3.9113,-3.8999,-3.8765,-3.8688,-3.8543,-3.8378,-3.8243,-3.8181,-3.8181,-3.8181,-3.8181,-3.8181,-3.8181,-3.8181,-3.8181,-3.8181,-3.8181,-3.8381,-3.932,-3.9888,-4.0646,-4.254,-4.2592,-4.2781,-4.5086,-4.4645,-4.4127,-4.5926,-4.5976,-4.5682,-4.5764,-4.5748,-4.5563,-4.4973,-4.4415,-4.3998,-4.3846,-4.3325,-4.2974,-4.2974,-4.2974,-4.2974,-4.2974,-4.2974,-4.2974,-4.2974,-4.2974,-4.2974,-4.2974,-4.2974,-4.2974,-4.2974,-4.2974,-4.2974,-4.2974,-4.2974,-4.2974,-4.2974,-4.2974,-4.2841,-4.2451,-4.1643,-4.1103,0.0,-3.4463,-3.493,-3.5314,-3.5418,0.0,0.0,0.0,0.0,0.0,0.0,0.0,0.0,0.0,0.0,0.0,0.0,0.0,0.0,0.0,0.0,0.0,0.0,0.0,0.0,0.0,0.0,0.0,0.0,0.0,-3.8688,-3.8957,-3.8978,-3.8699,-3.8699,-3.8699,-3.8699,-3.8699,-3.8699,-3.8699,-3.8699,-3.8699,-3.8699,-3.8699,-3.8843,0.0,0.0,0.0,0.0,-3.9282,-3.9148,-3.9003,-3.873,-3.8486,-3.8393,-3.8264,-3.8181,-3.8181,-3.8181,-3.8181,-3.8181,-3.8181,-3.8181,-3.8181,-3.8181,-3.857,-3.9133,-3.9953,-4.0957,-4.2161,-4.3879,-4.3991,-4.4189,-4.5866,-4.5671,-4.522,-4.5845,-4.5999,-4.5836,-4.5271,-4.5158,-4.4974,-4.4432,-4.4014,-4.3721,-4.353,-4.3229,-4.2974,-4.2974,-4.2974,-4.2974,-4.2974,-4.2974,-4.2974,-4.2974,-4.2974,-4.2974,-4.2974,-4.2974,-4.2974,-4.2974,-4.2974,-4.2974,-4.2974,-4.2974,-4.2974,-4.2974,-4.2828,-4.2384,-4.1831,-4.0927,-4.0513,0.0,0.0,0.0,0.0,0.0,0.0,0.0,0.0,0.0,0.0,0.0,0.0,0.0,0.0,0.0,0.0,0.0,0.0,0.0,0.0,0.0,0.0,0.0,0.0,0.0,0.0,0.0,0.0,0.0,0.0,-3.9644,-3.9706,-3.9716,-3.9716,-3.9758,-3.9668,-3.9468,-3.9468,-3.9468,-3.9468,-3.9468,-3.9468,-3.9468,-3.9468,-3.9488,0.0,0.0,0.0,0.0,-3.9013,-3.9065,-3.9344,-3.8564,-3.8445,-3.8728,-3.8367,-3.8181,-3.8181,-3.8181,-3.8181,-3.8181,-3.8181,-3.8181,-3.8181,-3.8181,-3.9133,-4.0203,-4.0322,-4.2224,-4.4312,-4.4448,-4.5342,-4.6313,-4.6313,-4.6276,-4.6112,-4.5598,-4.546,-4.5259,-4.4681,-4.4568,-4.4392,-4.384,-4.374,-4.3564,-4.3049,-4.2974,-4.2974,-4.2974,-4.2974,-4.2974,-4.2974,-4.2974,-4.2974,-4.2974,-4.2974,-4.2974,-4.2974,-4.2974,-4.2974,-4.2974,-4.2974,-4.2974,-4.2974,-4.2936,-4.2924,-4.2924,-4.2376,-4.1781,-4.1213,-4.0714,-4.0463,-3.3938,0.0,-3.493,-3.5314,-3.5418,0.0,0.0,0.0,0.0,0.0,0.0,0.0,0.0,0.0,0.0,0.0,0.0,0.0,0.0,0.0,0.0,0.0,0.0,0.0,0.0,0.0,0.0,0.0,0.0,-4.1849,-4.1229,-4.1528,-4.1733,-4.1733,-4.209,-4.1396,-3.9547,-3.9468,-3.9468,-3.9468,-3.9468,-3.9468,-3.9468,-3.9468,-3.9734,0.0,0.0,0.0,-4.0034,-3.9499,-3.9168,-3.892,-3.8714,-3.8564,-3.8357,-3.8233,-3.8181,-3.8181,-3.8181,-3.8181,-3.8181,-3.8181,-3.8181,-3.8181,-3.8181,-3.9133,-4.0387,-4.146,-4.2981,-4.4571,-4.5537,-4.6059,-4.6313,-4.6313,-4.5987,-4.5648,-4.551,-4.5146,-4.4669,-4.4104,-4.4003,-4.3815,-4.3263,-4.3175,-4.3124,-4.2999,-4.2974,-4.2974,-4.2974,-4.2974,-4.2974,-4.2974,-4.2974,-4.2974,-4.2974,-4.2974,-4.2974,-4.2974,-4.2974,-4.2974,-4.2974,-4.2974,-4.2974,-4.2974,-4.2627,-4.2401,-4.2401,-4.1379,-4.084,-4.0701,-4.0149,-3.9885,-3.3886,-3.4463,-3.493,-3.5314,-3.5418,-3.5418,0.0,0.0,0.0,0.0,0.0,0.0,0.0,0.0,0.0,0.0,0.0,0.0,0.0,0.0,0.0,0.0,0.0,0.0,0.0,0.0,0.0,0.0,0.0,-4.2977,-4.2918,-4.3152,-4.3398,-4.37,-4.3677,-4.3213,-4.2105,-4.2094,-4.2094,-4.2094,-4.1214,-4.0854,-4.0774,-3.9896,-3.9612,0.0,0.0,0.0,-3.9809,-3.9344,-3.9003,-3.8765,-3.8626,-3.8398,-3.8181,-3.8181,-3.8181,-3.8181,-3.8181,-3.8181,-3.8181,-3.8181,-3.8181,-3.8304,-3.8946,-4.0073,-4.1267,-4.2022,-4.3681,-4.5403,-4.612,-4.6125,-4.5937,-4.5937,-4.5497,-4.502,-4.4769,-4.4468,-4.4079,-4.3526,-4.3426,-4.3325,-4.3024,-4.2974,-4.2974,-4.2974,-4.2974,-4.2974,-4.2974,-4.2974,-4.2974,-4.2974,-4.2974,-4.2974,-4.2974,-4.2974,-4.2974,-4.2974,-4.2974,-4.2974,-4.2974,-4.2974,-4.2861,-4.2665,-4.2057,-4.1656,-4.1404,-4.0802,-4.0388,-4.0136,-3.9835,-3.9697,-3.3824,-3.4531,-3.5079,-3.5355,-3.5418,-3.5418,0.0,0.0,0.0,0.0,0.0,0.0,0.0,0.0,0.0,0.0,0.0,0.0,0.0,0.0,0.0,0.0,0.0,0.0,0.0,0.0,0.0,0.0,0.0,-4.3838,-4.4591,-4.4637,-4.4833,-4.5272,-4.4868,-4.4911,-4.5608,-4.5149,-4.4946,-4.4946,-4.3319,-4.2461,-4.2245,-4.0578,-3.9664,-3.9537,0.0,0.0,-3.9323,-3.8869,-3.8683,-3.8641,-3.8326,-3.8181,-3.8181,-3.8181,-3.8181,-3.8181,-3.8181,-3.8181,-3.8248,-3.8437,-3.8503,-3.8758,-4.0073,-4.146,-4.2506,-4.2436,-4.4204,-4.6188,-4.6188,-4.5773,-4.5359,-4.5359,-4.492,-4.4367,-4.3903,-4.374,-4.3539,-4.3074,-4.2974,-4.2974,-4.2974,-4.2974,-4.2974,-4.2974,-4.2974,-4.2974,-4.2974,-4.2974,-4.2974,-4.2974,-4.2974,-4.2974,-4.2974,-4.2974,-4.2974,-4.2974,-4.2974,-4.2936,-4.2848,-4.2848,-4.2597,-4.2099,-4.1492,-4.0924,-4.0513,-4.0438,-4.0149,-3.9697,-3.9697,-3.9697,-3.3824,-3.4933,-3.5779,-3.5456,-3.5418,-3.5418,0.0,0.0,0.0,0.0,0.0,0.0,0.0,0.0,0.0,0.0,0.0,0.0,0.0,0.0,0.0,0.0,0.0,0.0,0.0,0.0,0.0,0.0,0.0,-4.6226,-4.5601,-4.5572,-4.5608,-4.5679,-4.5608,-4.6187,-4.7442,-4.5084,-4.3837,-4.3837,-4.3559,-4.2805,-4.1697,-4.1429,-4.0661,-3.9447,0.0,-3.8889,-3.8848,-3.8471,-3.8285,-3.8285,-3.8212,-3.8181,-3.8181,-3.8181,-3.8181,-3.8181,-3.8181,-3.8181,-3.8381,-3.9506,-3.9888,-4.0138,-4.146,-4.2855,-4.3895,-4.3342,-4.4352,-4.561,-4.561,-4.5183,-4.4756,-4.4756,-4.433,-4.3903,-4.3815,-4.3426,-4.3074,-4.2999,-4.2974,-4.2974,-4.2974,-4.2974,-4.2974,-4.2974,-4.2974,-4.2974,-4.2974,-4.2974,-4.2974,-4.2974,-4.2974,-4.2974,-4.2974,-4.2974,-4.2974,-4.2974,-4.2974,-4.2828,-4.2351,-4.2338,-4.202,-4.148,-4.0927,-4.0601,-4.0513,-4.0049,-3.9772,-3.9697,-3.9697,-3.9697,-3.4684,-3.5572,-3.6198,-3.721,-3.744,-3.744,-3.744,0.0,0.0,0.0,0.0,0.0,0.0,0.0,0.0,0.0,0.0,0.0,0.0,0.0,0.0,0.0,0.0,0.0,0.0,0.0,0.0,0.0,0.0,0.0,-4.6499,-4.6524,-4.6659,-4.693,-4.6672,-4.6786,-4.7493,-4.5843,-4.5336,-4.5878,-4.4887,-4.4103,-4.3456,-4.2402,-4.1188,-3.9883,0.0,-3.9119,-3.8471,-3.8274,-3.8181,-3.8181,-3.8181,-3.8181,-3.8181,-3.8181,-3.8181,-3.8181,-3.8181,-3.8692,-3.9386,-4.0008,-4.0699,-4.1524,-4.2907,-4.3541,-4.3904,-4.4424,-4.4985,-4.5409,-4.5095,-4.4606,-4.4179,-4.4179,-4.3765,-4.3363,-4.3363,-4.3162,-4.2974,-4.2974,-4.2974,-4.2974,-4.2974,-4.2974,-4.2974,-4.2974,-4.2974,-4.2974,-4.2974,-4.2974,-4.2974,-4.2974,-4.2974,-4.2974,-4.2974,-4.2974,-4.2974,-4.2974,-4.2753,-4.2476,-4.2213,-4.158,-4.1153,-4.0849,-4.035,-4.0074,-4.0074,-3.9823,-3.9697,-3.9697,-3.9697,-3.9697,-3.5854,-3.674,-3.7424,-3.9232,0.0,-3.9216,-3.9216,0.0,0.0,0.0,0.0,0.0,0.0,0.0,0.0,0.0,0.0,0.0,0.0,0.0,0.0,0.0,0.0,0.0,0.0,0.0,0.0,0.0,0.0,0.0,-4.6916,-4.688,-4.7129,-4.7518,-4.7154,-4.688,-4.688,-4.6389,-4.6589,-4.7531,-4.608,-4.5239,-4.484,-4.3345,-4.1959,-4.0646,-4.0646,-3.9888,-3.8692,-3.8692,-3.8503,-3.8181,-3.8181,-3.8181,-3.8181,-3.8181,-3.8374,-3.8677,-3.866,-3.9572,-4.0699,-4.1022,-4.1763,-4.2732,-4.4132,-4.4148,-4.3878,-4.4814,-4.5095,-4.4995,-4.4543,-4.4016,-4.3614,-4.3614,-4.3288,-4.2974,-4.2974,-4.2974,-4.2974,-4.2974,-4.2974,-4.2974,-4.2974,-4.2974,-4.2974,-4.2974,-4.2974,-4.2974,-4.2974,-4.2974,-4.2974,-4.2974,-4.2974,-4.2924,-4.2798,-4.2785,-4.2735,-4.2597,-4.2195,-4.1907,-4.1835,-4.0965,-4.0463,-4.0325,-3.991,-3.9697,-3.9697,-3.9697,-3.9697,-3.9697,-3.9697,-3.9697,-3.711,-3.8784,-4.0209,-4.0841,0.0,0.0,-3.9216,-4.0106,0.0,-4.0973,0.0,0.0,0.0,0.0,0.0,0.0,0.0,0.0,0.0,0.0,0.0,0.0,0.0,0.0,0.0,0.0,0.0,0.0,0.0,0.0,-4.6376,-4.6376,-4.6389,-4.6426,-4.6389,-4.6376,-4.6376,-4.5824,-4.5849,-4.6426,-4.6255,-4.5526,-4.436,-4.4201,-4.3357,-4.2086,-4.2086,-4.1267,-4.0073,-4.0073,-3.932,-3.8181,-3.8181,-3.8181,-3.8181,-3.8181,-3.8998,-4.0071,-4.005,-4.0957,-4.2276,-4.3556,-4.3668,-4.3602,-4.4975,-4.5016,-4.4452,-4.4009,-4.3915,-4.3915,-4.3865,-4.3451,-4.3037,-4.3037,-4.3011,-4.2974,-4.2974,-4.2974,-4.2974,-4.2974,-4.2974,-4.2974,-4.2974,-4.2974,-4.2974,-4.2974,-4.2974,-4.2974,-4.2974,-4.2974,-4.2974,-4.2974,-4.2974,-4.2828,-4.2313,-4.2263,-4.1995,-4.1438,-4.1363,-4.1112,-4.0651,-4.0563,-4.0275,-3.976,-3.971,-3.9697,-3.9697,-3.9697,-3.9697,-3.9697,-3.9697,-3.9697,-3.8416,-3.9607,-4.0708,-4.1958,0.0,0.0,0.0,0.0,0.0,-4.2275,-4.2681,0.0,0.0,0.0,0.0,0.0,0.0,0.0,0.0,0.0,0.0,0.0,0.0,0.0,0.0,0.0,0.0,0.0,0.0,0.0,-4.6313,-4.6313,-4.6313,-4.6313,-4.6313,-4.615,-4.5799,-4.5598,-4.5409,-4.5259,-4.5259,-4.501,-4.4512,-4.4512,-4.3758,-4.2487,-4.2805,-4.2191,-4.0957,-4.1336,-4.1139,-4.0603,-3.9751,-3.994,-4.0602,-3.9757,-4.0287,-4.1457,-4.1452,-4.2339,-4.3559,-4.3682,-4.4196,-4.4732,-4.4869,-4.4548,-4.4039,-4.3878,-4.3551,-4.3288,-4.3288,-4.3137,-4.2974,-4.2974,-4.2974,-4.2974,-4.2974,-4.2974,-4.2974,-4.2974,-4.2974,-4.2974,-4.2974,-4.2974,-4.2974,-4.2974,-4.2974,-4.2974,-4.2974,-4.2974,-4.2974,-4.2974,-4.2728,-4.2439,-4.2225,-4.153,-4.1053,-4.084,-4.0774,-4.0727,-4.0526,-4.0187,-3.991,-3.9697,-3.9697,-3.9697,-3.9697,-3.9697,-3.9697,-3.9697,-3.9697,-3.9697,-3.9819,-4.0697,-4.1404,0.0,0.0,0.0,0.0,0.0,0.0,0.0,0.0,0.0,0.0,0.0,0.0,0.0,0.0,0.0,0.0,0.0,0.0,0.0,0.0,0.0,0.0,0.0,0.0,0.0,0.0,0.0,0.0,-4.6313,-4.6225,-4.605,-4.605,-4.5786,-4.5221,-4.5045,-4.4756,-4.4367,-4.4192,-4.4279,-4.4618,-4.4618,-4.4082,-4.3246,-4.3611,-4.3035,-4.1815,-4.2339,-4.2458,-4.2086,-4.1222,-4.1394,-4.2092,-4.1176,-4.169,-4.2838,-4.2666,-4.3493,-4.4549,-4.3952,-4.4351,-4.4882,-4.446,-4.3996,-4.357,-4.3564,-4.3263,-4.2974,-4.2974,-4.2974,-4.2974,-4.2974,-4.2974,-4.2974,-4.2974,-4.2974,-4.2974,-4.2974,-4.2974,-4.2974,-4.2974,-4.2974,-4.2974,-4.2974,-4.2974,-4.2974,-4.2974,-4.2974,-4.2911,-4.2791,-4.2439,-4.2074,-4.1668,-4.0953,-4.0438,-4.0275,-4.0262,-4.0262,-4.0262,-3.9885,-3.9697,-3.9697,-3.9697,-3.9697,-3.9697,-3.9697,-3.9697,-3.9697,-3.9697,-3.9697,-4.1339,-4.2189,-4.2747,0.0,0.0,0.0,0.0,0.0,0.0,0.0,0.0,0.0,0.0,0.0,0.0,0.0,0.0,0.0,0.0,0.0,0.0,0.0,0.0,0.0,0.0,0.0,0.0,0.0,0.0,0.0,0.0,-4.6301,-4.605,-4.5497,-4.5485,-4.5196,-4.4618,-4.4079,-4.3802,-4.379,-4.3237,-4.3551,-4.4606,-4.4606,-4.4606,-4.4606,-4.4618,-4.3835,-4.2664,-4.3192,-4.2942,-4.223,-4.2218,-4.2228,-4.2218,-4.221,-4.3075,-4.4219,-4.3614,-4.4338,-4.5384,-4.4807,-4.4242,-4.3815,-4.3801,-4.3432,-4.2974,-4.2974,-4.2974,-4.2974,-4.2974,-4.2974,-4.2974,-4.2974,-4.2974,-4.2974,-4.2974,-4.2974,-4.2974,-4.2974,-4.2974,-4.2974,-4.2974,-4.2974,-4.2974,-4.2974,-4.2974,-4.2974,-4.2974,-4.2974,-4.2816,-4.2263,-4.22,-4.1747,-4.0614,-4.0513,-4.0275,-3.9722,-3.9697,-3.9697,-3.9697,-3.9697,-3.9697,-3.9697,-3.9697,-3.9697,-3.9697,-3.9697,-3.9697,-3.9697,-3.9697,-3.9697,-4.1291,-4.2129,0.0,0.0,0.0,0.0,0.0,0.0,0.0,0.0,0.0,0.0,0.0,0.0,0.0,0.0,0.0,0.0,0.0,0.0,0.0,0.0,0.0,0.0,0.0,0.0,0.0,0.0,0.0,0.0,0.0,-4.5736,-4.5472,-4.4895,-4.4882,-4.4606,-4.4053,-4.3878,-4.3601,-4.3225,-4.3062,-4.315,-4.3463,-4.3463,-4.3463,-4.3489,-4.3878,-4.3811,-4.3491,-4.4036,-4.4081,-4.3808,-4.2844,-4.3071,-4.379,-4.2814,-4.3311,-4.4472,-4.433,-4.4506,-4.4794,-4.4229,-4.3928,-4.3727,-4.3376,-4.3137,-4.2974,-4.2974,-4.2974,-4.2974,-4.2974,-4.2974,-4.2974,-4.2974,-4.2974,-4.2974,-4.2974,-4.2974,-4.2974,-4.2974,-4.2974,-4.2974,-4.2974,-4.2974,-4.2974,-4.2974,-4.2974,-4.2836,-4.2502,-4.2451,-4.2183,-4.1643,-4.1229,-4.0877,-4.0538,-4.0162,-3.9873,-3.9697,-3.9697,-3.9697,-3.9697,-3.9697,-3.9697,-3.9697,-3.9697,-3.9697,-3.9697,-3.9697,-3.9697,-3.9697,-3.9697,-3.9697,-4.1099,0.0,0.0,0.0,0.0,0.0,0.0,0.0,0.0,0.0,0.0,0.0,0.0,0.0,0.0,0.0,0.0,0.0,0.0,0.0,0.0,0.0,0.0,0.0,0.0,0.0,0.0,0.0,0.0,0.0,0.0,-4.5146,-4.4882,-4.4317,-4.4292,-4.4028,-4.3476,-4.3476,-4.3313,-4.2974,-4.2974,-4.2974,-4.2974,-4.2974,-4.2974,-4.2999,-4.3325,-4.3589,-4.3827,-4.4166,-4.4427,-4.4514,-4.373,-4.3883,-4.45,-4.3709,-4.3929,-4.4593,-4.438,-4.4292,-4.4204,-4.3652,-4.3476,-4.3413,-4.3074,-4.2974,-4.2974,-4.2974,-4.2974,-4.2974,-4.2974,-4.2974,-4.2974,-4.2974,-4.2974,-4.2974,-4.2974,-4.2974,-4.2974,-4.2974,-4.2974,-4.2974,-4.2974,-4.2974,-4.2974,-4.2974,-4.2841,-4.259,-4.225,-4.1969,-4.1618,-4.1012,-4.0714,-4.0425,-4.0212,-3.9885,-3.9697,-3.9697,-3.9697,-3.9697,-3.9697,-3.9697,-3.9697,-3.9697,-3.9697,-3.9697,-3.9697,-3.9697,-3.9697,-3.9697,-3.9697,-3.9697,0.0,0.0,0.0,0.0,0.0,0.0,0.0,0.0,0.0,0.0,0.0,0.0,0.0,0.0,0.0,0.0,0.0,0.0,0.0,0.0,0.0,0.0,0.0,0.0,0.0,0.0,0.0,0.0,0.0,0.0,0.0,-4.4556,-4.4292,-4.374,-4.3727,-4.3489,-4.2986,-4.2974,-4.2974,-4.2974,-4.2974,-4.2974,-4.2974,-4.2974,-4.2974,-4.2974,-4.2974,-4.3263,-4.3727,-4.3727,-4.4026,-4.4477,-4.444,-4.4457,-4.4465,-4.445,-4.4468,-4.4405,-4.3903,-4.3727,-4.3639,-4.3137,-4.2974,-4.2974,-4.2974,-4.2974,-4.2974,-4.2974,-4.2974,-4.2974,-4.2974,-4.2974,-4.2974,-4.2974,-4.2974,-4.2974,-4.2974,-4.2974,-4.2974,-4.2974,-4.2974,-4.2974,-4.2974,-4.2974,-4.2961,-4.2911,-4.2489,-4.2125,-4.2062,-4.158,-4.1,-4.0501,-4.0438,-4.0237,-3.9735,-3.9697,-3.9697,-3.9697,-3.9697,-3.9697,-3.9697,-3.9697,-3.9697,-3.9697,-3.9697,-3.9697,-3.9697,-3.9697,-3.9697,-3.9697,-3.9697,-3.9697,0.0,0.0,0.0,0.0,0.0,0.0,0.0,0.0,0.0,0.0,0.0,0.0,0.0,0.0,0.0,0.0,0.0,0.0,0.0,0.0,0.0,0.0,0.0,0.0,0.0,0.0,0.0,0.0,0.0,0.0,-4.4003,-4.3978,-4.3727,-4.3175,-4.3162,-4.3099,-4.2974,-4.2974,-4.2974,0.0,-4.2974,-4.2974,-4.2974,-4.2974,-4.2974,-4.2974,-4.2974,-4.3049,-4.3162,-4.3162,-4.325,-4.3344,-4.335,-4.3356,-4.3319,-4.3369,-4.3325,-4.3313,-4.32,-4.3162,-4.3137,-4.3024,-4.2974,-4.2974,-4.2974,-4.2974,-4.2974,-4.2974,-4.2974,-4.2974,-4.2974,-4.2974,-4.2974,-4.2974,-4.2974,-4.2974,-4.2974,-4.2974,-4.2974,-4.2974,-4.2974,-4.2974,-4.2974,-4.2974,-4.2891,-4.2451,-4.1869,-4.1354,-4.0927,-4.0764,-4.0488,-3.9936,-3.9873,-3.9823,-3.9697,-3.9697,-3.9697,-3.9697,-3.9697,-3.9697,-3.9697,-3.9697,-3.9697,-3.9697,-3.9697,-3.9697,-3.9697,-3.9697,-3.9697,-3.9697,-3.9697,-3.9697,0.0,0.0,0.0,0.0,0.0,0.0,0.0,0.0,0.0,0.0,0.0,0.0,0.0,0.0,0.0,0.0,0.0,0.0,0.0,0.0,0.0,0.0,0.0,0.0,0.0,0.0,0.0,0.0,0.0,-4.4104,-4.3815,-4.3551,-4.3275,-4.2986,-4.2974,-4.2974,-4.2974,-4.2974,-4.2974,-4.2974,-4.2974,-4.2974,-4.2974,-4.2974,-4.2974,-4.2974,-4.2974,-4.2974,-4.2974,-4.2974,-4.2974,-4.2974,-4.2974,-4.2974,-4.2974,-4.2974,-4.2974,-4.2974,-4.2974,-4.2974,-4.2974,-4.2974,-4.2974,-4.2974,-4.2974,-4.2974,-4.2974,-4.2974,-4.2974,-4.2974,-4.2974,-4.2974,-4.2974,-4.2974,-4.2974,-4.2974,-4.2974,-4.2974,-4.2974,-4.2974,-4.2974,-4.2974,-4.2974,-4.2816,-4.2396,-4.1844,-4.1291,-4.084,-4.0551,-4.0287,-4.0011,-3.9722,-3.9697,-3.9697,-3.9697,-3.9697,-3.9697,-3.9697,-3.9697,-3.9697,-3.9697,-3.9697,-3.9697,-3.9697,-3.9697,-3.9697,-3.9697,-3.9697,-3.9697,-3.9697,-3.9697,-3.9697,0.0,0.0,0.0,0.0,0.0,0.0,0.0,0.0,0.0,0.0,0.0,0.0,0.0,0.0,0.0,0.0,0.0,0.0,0.0,0.0,0.0,0.0,0.0,0.0,0.0,0.0,0.0,0.0,0.0,-4.394,-4.394,-4.3514,-4.3212,-4.3124,-4.3124,-4.3124,-4.3124,-4.3124,-4.3162,-4.3263,-4.3162,-4.3124,-4.3112,-4.3024,-4.2974,-4.2974,-4.2974,-4.2974,-4.2974,-4.2974,-4.2974,-4.2974,-4.2974,-4.2974,-4.2974,-4.2974,-4.2974,-4.2974,-4.2974,-4.2974,-4.2974,-4.2974,-4.2974,-4.2974,-4.2974,-4.2974,-4.2974,-4.2974,-4.2974,-4.2974,-4.2974,-4.2974,-4.2974,-4.2974,-4.2974,-4.2974,-4.2974,-4.2974,-4.2974,-4.2974,-4.2898,-4.2798,-4.271,-4.2233,-4.1718,-4.1266,-4.0727,-4.0375,-4.0375,-3.9973,-3.9697,-3.9697,-3.9697,-3.9697,-3.9697,-3.9697,-3.9697,-3.9697,-3.9697,-3.9697,-3.9697,-3.9697,-3.9697,-3.9697,-3.9697,-3.9697,-3.9697,-3.9697,-3.9697,-3.9697,-3.9697,-3.9697,0.0,0.0,0.0,0.0,0.0,0.0,0.0,0.0,0.0,0.0,0.0,0.0,0.0,0.0,0.0,0.0,0.0,0.0,0.0,0.0,0.0,0.0,0.0,0.0,0.0,0.0,0.0,0.0,-4.4844,-4.4518,-4.4518,-4.4443,-4.4179,-4.3702,-4.3689,-4.3689,-4.3689,-4.3689,-4.3928,-4.4405,-4.3915,-4.3689,-4.3677,-4.3187,-4.2974,-4.2974,-4.2974,-4.2974,-4.2974,-4.2974,-4.2974,-4.2974,-4.2974,-4.2974,-4.2974,-4.2974,-4.2974,-4.2974,-4.2974,-4.2974,-4.2974,-4.2974,-4.2974,-4.2974,-4.2974,-4.2974,-4.2974,-4.2974,-4.2974,-4.2974,-4.2974,-4.2974,-4.2974,-4.2974,-4.2974,-4.2974,-4.2974,-4.2974,-4.2974,-4.2974,-4.264,-4.212,-4.1643,-4.1103,-4.0714,-4.0639,-4.0162,-3.9798,-3.9798,-3.9735,-3.9697,-3.9697,-3.9697,-3.9697,-3.9697,-3.9697,-3.9697,-3.9697,-3.9697,-3.9697,-3.9697,-3.9697,-3.9697,-3.9697,-3.9697,-3.9697,-3.9697,-3.9697,-3.9697,-3.9697,-3.9697,-3.9697,0.0,0.0,0.0,0.0,0.0,0.0,0.0,0.0,0.0,0.0,0.0,0.0,0.0,0.0,0.0,0.0,0.0,0.0,0.0,0.0,0.0,0.0,0.0,0.0,0.0,0.0,0.0,0.0,-4.5422,-4.5108,-4.5108,-4.4794,-4.4505,-4.4267,-4.4267,-4.4267,-4.4267,-4.4267,-4.438,-4.4618,-4.438,-4.4267,-4.4242,-4.3689,-4.3275,-4.2974,-4.2974,-4.2974,-4.2974,-4.2974,-4.2974,-4.2974,-4.2974,-4.2974,-4.2974,-4.2974,-4.2974,-4.2974,-4.2974,-4.2974,-4.2974,-4.2974,-4.2974,-4.2974,-4.2974,-4.2974,-4.2974,-4.2974,-4.2974,-4.2974,-4.2974,-4.2974,-4.2974,-4.2974,-4.2974,-4.2974,-4.2974,-4.2974,-4.2886,-4.2627,-4.207,-4.153,-4.0978,-4.0676,-4.0413,-4.0111,-3.9848,-3.9697,-3.9697,-3.9697,-3.9697,-3.9697,-3.9697,-3.9697,-3.9697,-3.9697,-3.9697,-3.9697,-3.9697,-3.9697,-3.9697,-3.9697,-3.9697,-3.9697,-3.9697,-3.9697,-3.9697,-3.9697,-3.9697,-3.9697,-3.9697,-3.9697,0.0,0.0,0.0,0.0,0.0,0.0,0.0,0.0,0.0,0.0,0.0,0.0,0.0,0.0,0.0,0.0,0.0,0.0,0.0,0.0,0.0,0.0,0.0,0.0,0.0,0.0,0.0,0.0,-4.5937,-4.5698,-4.5698,-4.5284,-4.4982,-4.4844,-4.4844,-4.4844,-4.4844,-4.4844,-4.4769,-4.4618,-4.448,-4.4418,-4.4392,-4.384,-4.3363,-4.2974,-4.2974,-4.2974,-4.2974,-4.2974,-4.2974,-4.2974,-4.2974,-4.2974,-4.2974,-4.2974,-4.2974,-4.2974,-4.2974,-4.2974,-4.2974,-4.2974,-4.2974,-4.2974,-4.2974,-4.2974,-4.2974,-4.2974,-4.2974,-4.2974,-4.2974,-4.2974,-4.2974,-4.2974,-4.2873,-4.2828,-4.2828,-4.2828,-4.2615,-4.1869,-4.1404,-4.0953,-4.04,-4.0312,-4.0174,-3.976,-3.9697,-3.9697,-3.9697,-3.9697,-3.9697,-3.9697,-3.9697,-3.9697,-3.9697,-3.9697,-3.9697,-3.9697,-3.9697,-3.9697,-3.9697,-3.9697,-3.9697,-3.9697,-3.9697,-3.9697,-3.9697,-3.9697,-3.9697,-3.9697,-3.9981,-4.007,0.0,0.0,0.0,0.0,0.0,0.0,0.0,0.0,0.0,0.0,0.0,0.0,0.0,0.0,0.0,0.0,0.0,0.0,0.0,0.0,0.0,0.0,0.0,0.0,0.0,0.0,0.0,0.0,-4.6288,-4.6276,-4.6276,-4.6238,-4.5987,-4.546,-4.5447,-4.5447,-4.5447,-4.5447,-4.5171,-4.4618,-4.4091,-4.384,-4.3827,-4.3275,-4.2999,-4.2974,-4.2974,-4.2974,-4.2974,-4.2974,-4.2974,-4.2974,-4.2974,-4.2974,-4.2974,-4.2974,-4.2974,-4.2974,-4.2974,-4.2974,-4.2974,-4.2974,-4.2974,-4.2974,-4.2974,-4.2974,-4.2974,-4.2974,-4.2974,-4.2974,-4.2974,-4.2974,-4.2974,-4.2974,-4.2627,-4.225,-4.225,-4.225,-4.1936,-4.0802,-4.0576,-4.0388,-3.9835,-3.9735,-3.9722,-3.9697,-3.9697,-3.9697,-3.9697,-3.9697,-3.9697,-3.9697,-3.9697,-3.9697,-3.9697,-3.9697,-3.9697,-3.9697,-3.9697,-3.9697,-3.9697,-3.9697,-3.9697,-3.9697,-3.9697,-3.9697,-3.9697,-3.9697,-3.9697,-3.9749,-4.0693,-4.1119,0.0,0.0,0.0,0.0,0.0,0.0,0.0,0.0,0.0,0.0,0.0,0.0,0.0,0.0,0.0,0.0,0.0,0.0,0.0,0.0,0.0,0.0,0.0,0.0,0.0,0.0,0.0,0.0,0.0,-4.5384,-4.5761,-4.5786,-4.5698,-4.5497,-4.5485,-4.5309,-4.4932,-4.4932,-4.4832,-4.4618,-4.443,-4.433,-4.4317,-4.3765,-4.3501,-4.3489,-4.3137,-4.2974,-4.2974,-4.2974,-4.2974,-4.2974,-4.2974,-4.2974,-4.2974,-4.2974,-4.2974,-4.2974,-4.2974,-4.2974,-4.2974,-4.2974,-4.2974,-4.2974,-4.2974,-4.2974,-4.2974,-4.2974,-4.2974,-4.2974,-4.2974,-4.2974,-4.2886,-4.259,-4.2032,-4.153,-4.1178,-4.1103,-4.099,-4.0588,-4.0224,-3.9923,-3.9722,-3.9697,-3.9697,-3.9697,-3.9697,-3.9697,-3.9697,-3.9697,-3.9697,-3.9697,-3.9697,-3.9697,-3.9697,-3.9697,-3.9697,-3.9697,-3.9697,-3.9697,-3.9697,-3.9697,-3.9697,-3.9697,-3.9697,-3.9697,-3.9697,-3.9697,-4.0032,-4.0642,-4.1032,-4.1568,0.0,0.0,0.0,0.0,0.0,0.0,0.0,0.0,0.0,0.0,0.0,0.0,0.0,0.0,0.0,0.0,0.0,0.0,0.0,0.0,0.0,0.0,0.0,0.0,0.0,0.0,0.0,0.0,0.0,0.0,-4.4631,-4.4644,-4.4644,-4.4644,-4.4832,-4.4644,-4.4079,-4.4254,-4.4254,-4.4066,-4.4066,-4.4066,-4.4053,-4.3689,-4.3526,-4.3501,-4.3137,-4.2974,-4.2974,-4.2974,-4.2974,-4.2974,-4.2974,-4.2974,-4.2974,-4.2974,-4.2974,-4.2974,-4.2974,-4.2974,-4.2974,-4.2974,-4.2974,-4.2974,-4.2974,-4.2974,-4.2974,-4.2974,-4.2974,-4.2936,-4.2803,-4.2559,-4.2283,-4.1731,-4.1329,-4.0862,-4.0362,-4.0388,-4.0463,-4.0275,-3.9936,-3.9697,-3.9697,-3.9697,-3.9697,-3.9697,-3.9697,-3.9697,-3.9697,-3.9697,-3.9697,-3.9697,-3.9697,-3.9697,-3.9697,-3.9697,-3.9697,-3.9697,-3.9697,-3.9697,-3.9697,-3.9697,-3.9697,-3.9697,-3.9697,-3.9697,-3.9697,-3.9697,-4.0032,-4.0693,-4.1032,-4.1843,0.0,0.0,0.0,0.0,0.0,0.0,0.0,0.0,0.0,0.0,0.0,0.0,0.0,0.0,0.0,0.0,0.0,0.0,0.0,0.0,0.0,0.0,0.0,0.0,0.0,0.0,0.0,0.0,-4.3727,-4.3501,-4.2974,-4.2949,-4.2949,-4.2949,-4.3451,-4.3476,-4.2936,-4.3463,-4.3463,-4.2936,-4.2949,-4.2961,-4.2974,-4.2974,-4.2974,-4.2974,-4.2974,-4.2974,-4.2974,-4.2974,-4.2974,-4.2974,-4.2974,-4.2974,-4.2974,-4.2974,-4.2974,-4.2974,-4.2974,-4.2974,-4.2974,-4.2974,-4.2974,-4.2974,-4.2974,-4.2974,-4.2974,-4.2974,-4.2974,-4.2823,-4.2326,-4.1718,-4.1125,-4.0639,-4.0501,-4.0337,-3.981,-4.0111,-4.0337,-3.9798,-3.9697,-3.9697,-3.9697,-3.9697,-3.9697,-3.9697,-3.9697,-3.9697,-3.9697,-3.9697,-3.9697,-3.9697,-3.9697,-3.9697,-3.9697,-3.9697,-3.9697,-3.9697,-3.9697,-3.9697,-3.9697,-3.9697,-3.9697,-3.9697,-3.9697,-3.9697,-3.9697,-3.9697,-3.9749,-3.9839,-4.0818,-4.2089,-4.0453,0.0,0.0,0.0,0.0,0.0,0.0,0.0,0.0,0.0,0.0,0.0,0.0,0.0,0.0,0.0,0.0,0.0,0.0,0.0,0.0,0.0,0.0,0.0,0.0,0.0,0.0,0.0,-4.1965,-4.2133,-4.2426,-4.2439,-4.2439,-4.2439,-4.2145,-4.1944,-4.1794,-4.1944,-4.191,-4.1788,-4.2203,-4.2399,-4.2413,-4.2843,-4.2974,-4.2974,-4.2974,-4.2974,-4.2974,-4.2974,-4.2974,-4.2974,-4.2974,-4.2974,-4.2974,-4.2974,-4.2974,-4.2974,-4.2974,-4.2974,-4.2974,-4.2974,-4.2974,-4.2974,-4.2974,-4.2974,-4.2974,-4.2974,-4.274,-4.2313,-4.1706,-4.1166,-4.0701,-4.0551,-4.0212,-3.9885,-3.9722,-3.9823,-3.9873,-3.9722,-3.9697,-3.9697,-3.9697,-3.9697,-3.9697,-3.9697,-3.9697,-3.9697,-3.9697,-3.9697,-3.9697,-3.9697,-3.9697,-3.9697,-3.9697,-3.9697,-3.9697,-3.9697,-3.9697,-3.9697,-3.9697,-3.9697,-3.9697,-3.9697,-3.9697,-3.9697,-3.9697,-3.9697,-4.0465,-4.1963,-4.3277,-4.3887,0.0,0.0,0.0,0.0,0.0,0.0,-4.0257,-4.0248,0.0,0.0,0.0,0.0,0.0,0.0,0.0,0.0,0.0,0.0,0.0,0.0,0.0,0.0,0.0,0.0,0.0,-4.1288,-4.1188,-4.0962,-4.099,-4.1141,-4.1455,-4.1467,-4.1467,-4.1467,-4.1166,-4.099,-4.099,-4.1175,-4.1297,-4.1301,-4.1664,-4.1793,-4.1848,-4.2161,-4.2278,-4.2298,-4.2278,-4.2421,-4.269,-4.269,-4.2828,-4.2974,-4.2974,-4.2974,-4.2974,-4.2974,-4.2974,-4.2974,-4.2974,-4.2974,-4.2974,-4.2974,-4.2974,-4.2974,-4.2974,-4.2811,-4.269,-4.269,-4.207,-4.1404,-4.1078,-4.0588,-4.0174,-4.0174,-3.9923,-3.9697,-3.9697,-3.9697,-3.9697,-3.9697,-3.9697,-3.9697,-3.9697,-3.9697,-3.9697,-3.9697,-3.9697,-3.9697,-3.9697,-3.9697,-3.9697,-3.9697,-3.9697,-3.9697,-3.9697,-3.9697,-3.9697,-3.9697,-3.9697,-3.9697,-3.9697,-3.9697,-3.9697,-3.9697,-3.9471,-3.9424,-3.9548,-3.9424,-4.0041,-4.1397,-4.3069,-4.3512,0.0,0.0,0.0,0.0,0.0,0.0,-4.0685,-4.0949,-4.1132,0.0,0.0,0.0,0.0,0.0,0.0,0.0,0.0,0.0,0.0,0.0,0.0,0.0,0.0,0.0,-4.11,-4.11,-4.0899,-4.0463,-4.0488,-4.0538,-4.0614,-4.0614,-4.0614,-4.0614,-4.0551,-4.0513,-4.0513,-4.0887,-4.11,-4.11,-4.1175,-4.1193,-4.1193,-4.1259,-4.1309,-4.1322,-4.1309,-4.1605,-4.2125,-4.2125,-4.2476,-4.2974,-4.2974,-4.2974,-4.2974,-4.2974,-4.2974,-4.2974,-4.2974,-4.2974,-4.2974,-4.2898,-4.2886,-4.2873,-4.2811,-4.2446,-4.2099,-4.2049,-4.1266,-4.0501,-4.0438,-4.0061,-3.9697,-3.9697,-3.9697,-3.9697,-3.9697,-3.9697,-3.9697,-3.9697,-3.9697,-3.9697,-3.9697,-3.9697,-3.9697,-3.9697,-3.9697,-3.9697,-3.9697,-3.9697,-3.9697,-3.9697,-3.9697,-3.9697,-3.9697,-3.9697,-3.9697,-3.9697,-3.9697,-3.9672,-3.9597,-3.9597,-3.9572,-3.9509,-3.9019,-3.8915,-3.9151,-3.915,-3.9321,-3.9662,-4.158,-4.2139,0.0,0.0,0.0,0.0,0.0,0.0,-4.1551,-4.2008,-4.2452,0.0,0.0,0.0,0.0,0.0,0.0,0.0,0.0,0.0,0.0,0.0,0.0,0.0,0.0,0.0,0.0,-4.0011,-3.9973,-3.986,-4.0275,-4.0714,-4.11,-4.1125,-4.1125,-4.1125,-4.0752,-4.0513,-4.0513,-4.0187,-4.0011,-4.0023,-4.0445,-4.0655,-4.0639,-4.1097,-4.1298,-4.1284,-4.13,-4.1351,-4.1505,-4.1505,-4.2082,-4.2974,-4.2974,-4.2974,-4.2974,-4.2974,-4.2974,-4.2974,-4.2974,-4.2974,-4.2898,-4.2514,-4.2376,-4.2288,-4.1794,-4.158,-4.1404,-4.0953,-4.0676,-4.0413,-3.9973,-3.9772,-3.9697,-3.9697,-3.9697,-3.9697,-3.9697,-3.9697,-3.9697,-3.9697,-3.9697,-3.9697,-3.9697,-3.9697,-3.9697,-3.9697,-3.9697,-3.9697,-3.9697,-3.9697,-3.9697,-3.9697,-3.9697,-3.9697,-3.9697,-3.9697,-3.9697,-3.9697,-3.9697,-3.9496,-3.9044,-3.9032,-3.8818,-3.8341,-3.8228,-3.7988,-3.7615,-3.9641,-4.074,-4.1138,-4.2323,-4.2579,0.0,0.0,0.0,-4.1488,0.0,0.0,0.0,-4.2159,-4.2543,0.0,0.0,0.0,0.0,0.0,0.0,0.0,0.0,0.0,0.0,0.0,0.0,0.0,0.0,0.0,0.0,-4.0173,-4.0655,-4.1196,-4.1505,-4.2059,-4.2879,-4.2706,-4.2554,-4.2554,-4.2003,-4.146,-4.091,-4.0377,-4.0127,-4.0119,-4.0074,-4.007,-4.0134,-4.0404,-4.0518,-4.0513,-4.0513,-4.0676,-4.0874,-4.0874,-4.1417,-4.2158,-4.2158,-4.2158,-4.2158,-4.2158,-4.2158,-4.2158,-4.2158,-4.2158,-4.212,-4.1844,-4.1743,-4.1693,-4.1363,-4.11,-4.0814,-4.0262,-4.0111,-4.0036,-3.9772,-3.9697,-3.9697,-3.9697,-3.9697,-3.9697,-3.9697,-3.9697,-3.9697,-3.9697,-3.9697,-3.9697,-3.9697,-3.9697,-3.9697,-3.9697,-3.9697,-3.9697,-3.9697,-3.9697,-3.9697,-3.9697,-3.9697,-3.9697,-3.9697,-3.9433,-3.9283,-3.9283,-3.9019,-3.873,-3.8454,-3.8442,-3.8178,-3.76,-3.76,-3.7554,-3.7505,-3.9241,-4.0181,-4.0382,-4.134,-4.1906,0.0,0.0,0.0,0.0,0.0,-4.2811,0.0,0.0,0.0,0.0,0.0,0.0,0.0,0.0,0.0,0.0,0.0,0.0,0.0,0.0,0.0,0.0,0.0,0.0,0.0,-4.0693,-4.162,-4.2614,-4.2876,-4.3497,-4.4505,-4.4132,-4.3967,-4.4085,-4.3376,-4.2605,-4.1777,-4.1011,-4.0631,-4.0628,-4.0105,-3.9863,-3.9863,-3.9761,-3.9697,-3.9697,-3.9697,-3.9948,-4.0362,-4.0362,-4.0626,-4.0987,-4.12,-4.1288,-4.1288,-4.1288,-4.1288,-4.1288,-4.1288,-4.1288,-4.1263,-4.1163,-4.1062,-4.0962,-4.0962,-4.0714,-4.0262,-3.9823,-3.9697,-3.9697,-3.9697,-3.9697,-3.9697,-3.9697,-3.9697,-3.9697,-3.9697,-3.9697,-3.9697,-3.9697,-3.9697,-3.9697,-3.9697,-3.9697,-3.9697,-3.9697,-3.9697,-3.9697,-3.9697,-3.9597,-3.9534,-3.9534,-3.9433,-3.9371,-3.9371,-3.8969,-3.8705,-3.8705,-3.8266,-3.7952,-3.7852,-3.7751,-3.7475,-3.7036,-3.7023,-3.7308,-3.7808,-3.8554,-3.9121,-3.9505,-4.0432,-4.1339,0.0,0.0,0.0,0.0,-4.2546,0.0,0.0,0.0,-4.382,-4.3747,0.0,0.0,0.0,0.0,0.0,0.0,0.0,0.0,0.0,0.0,0.0,0.0,0.0,0.0,0.0,-4.1119,-4.1492,-4.213,-4.3018,-4.3764,-4.4377,-4.4371,-4.459,-4.5218,-4.3715,-4.3088,-4.3478,-4.195,-4.1235,-4.1195,-4.0692,-4.04,-4.04,-3.994,-3.9697,-3.9697,-3.9697,-3.9722,-3.9785,-3.9785,-3.9823,-3.9986,-4.0912,-4.1288,-4.1288,-4.1288,-4.1288,-4.1288,-4.1288,-4.1288,-4.12,-4.0777,-4.0275,-3.9885,-3.9885,-3.9835,-3.9772,-3.971,-3.9697,-3.9697,-3.9697,-3.9697,-3.9697,-3.9697,-3.9697,-3.9697,-3.9697,-3.9697,-3.9697,-3.9697,-3.9697,-3.9697,-3.9697,-3.9697,-3.9697,-3.9697,-3.9697,-3.9697,-3.9697,-3.927,-3.9007,-3.9007,-3.8504,-3.8203,-3.8203,-3.814,-3.8103,-3.8103,-3.804,-3.7789,-3.7299,-3.6857,-3.6568,-3.6505,-3.6505,-3.6926,-3.7808,-3.79,-3.881,-4.0475,-4.1437,-4.1995,0.0,0.0,0.0,0.0,0.0,0.0,-4.2476,0.0,-4.2992,0.0,0.0,0.0,0.0,0.0,0.0,0.0,0.0,0.0,0.0,0.0,0.0,0.0,0.0,0.0,0.0,0.0,0.0,0.0,-4.3308,-4.3754,-4.4631,-4.4809,-4.4967,-4.5279,-4.4364,-4.3847,-4.374,-4.2131,-4.1489,-4.1835,-4.1219,-4.0948,-4.0923,-4.0422,-4.0142,-4.0162,-3.9835,-3.9697,-3.9697,-3.9697,-3.9697,-3.9735,-4.0212,-4.0388,-4.0388,-4.0388,-4.0388,-4.0388,-4.0388,-4.0388,-4.0337,-4.0111,-3.9885,-3.9697,-3.9697,-3.9697,-3.9697,-3.9697,-3.9697,-3.9697,-3.9697,-3.9697,-3.9697,-3.9697,-3.9697,-3.9697,-3.9697,-3.9697,-3.9697,-3.9697,-3.9433,-3.922,-3.922,-3.922,-3.922,-3.922,-3.8931,-3.8718,-3.8718,-3.8517,-3.8366,-3.8366,-3.8153,-3.8002,-3.8002,-3.7713,-3.7525,-3.7525,-3.7224,-3.6996,-3.6769,-3.6531,-3.6405,-3.6405,-3.6405,-3.6581,-3.6989,-3.8056,-3.9033,-3.9812,-4.0802,-4.1535,-4.4428,0.0,0.0,0.0,0.0,0.0,0.0,0.0,0.0,0.0,0.0,0.0,0.0,0.0,0.0,0.0,0.0,0.0,0.0,0.0,0.0,0.0,0.0,0.0,0.0,0.0,0.0,-4.3516,-4.346,-4.3761,-4.4588,-4.4781,-4.4935,-4.5091,-4.429,-4.3686,-4.3482,-4.1717,-4.1068,-4.1527,-4.1064,-4.0844,-4.0873,-4.0448,-4.0289,-4.0275,-3.9873,-3.9697,-3.9697,-3.9697,-3.9697,-3.9697,-3.9697,-3.9697,-3.9697,-3.9697,-3.9697,-3.9697,-3.9697,-3.9697,-3.9697,-3.9697,-3.9697,-3.9697,-3.9697,-3.9697,-3.9697,-3.9697,-3.9697,-3.9697,-3.9697,-3.9697,-3.9697,-3.9697,-3.9697,-3.9697,-3.9697,-3.9572,-3.9471,-3.9471,-3.9019,-3.863,-3.863,-3.863,-3.863,-3.863,-3.8278,-3.8002,-3.8002,-3.7877,-3.7789,-3.7789,-3.7651,-3.755,-3.755,-3.7186,-3.696,-3.696,-3.6631,-3.6405,-3.6405,-3.6405,-3.6405,-3.6405,-3.6405,-3.6628,-3.7163,-3.8541,-3.9475,-4.0014,-4.0703,-4.1395,0.0,0.0,0.0,-4.3173,0.0,0.0,0.0,0.0,-4.2107,0.0,0.0,0.0,0.0,0.0,0.0,0.0,0.0,0.0,0.0,0.0,0.0,0.0,0.0,0.0,0.0,0.0,0.0,-4.2427,-4.3399,-4.3979,-4.4023,-4.4008,-4.4298,-4.4878,-4.2935,-4.2201,-4.2803,-4.0783,-3.9754,-3.981,-3.9774,-3.9726,-3.9741,-3.9717,-3.9745,-3.9722,-3.9697,-3.9697,-3.9697,-3.9697,-3.9697,-3.9697,-3.9697,-3.9697,-3.9697,-3.9697,-3.9697,-3.9697,-3.9697,-3.9697,-3.9697,-3.9697,-3.9697,-3.9697,-3.9697,-3.9697,-3.9697,-3.9697,-3.9697,-3.9697,-3.9697,-3.9697,-3.9697,-3.9697,-3.9697,-3.9697,-3.9697,-3.927,-3.8944,-3.8944,-3.8429,-3.804,-3.804,-3.804,-3.804,-3.804,-3.8015,-3.8002,-3.8002,-3.7538,-3.7211,-3.7211,-3.6782,-3.6455,-3.6455,-3.6443,-3.643,-3.643,-3.6417,-3.6405,-3.6405,-3.6405,-3.6405,-3.6405,-3.6405,-3.7302,-3.9121,-3.9166,-4.0158,-4.2009,-4.2051,-4.2051,0.0,0.0,-4.3972,-4.3705,0.0,0.0,0.0,0.0,0.0,0.0,0.0,0.0,0.0,0.0,0.0,0.0,0.0,0.0,0.0,0.0,0.0,0.0,0.0,0.0,0.0,0.0,0.0,-4.218,-4.2548,-4.2731,-4.2731,-4.3108,-4.3427,-4.3631,-4.2705,-4.2468,-4.3045,-4.1084,-4.0274,-4.0633,-3.9983,-3.9728,-3.971,-3.971,-3.9695,-3.968,-3.9719,-3.9697,-3.9697,-3.9697,-3.9697,-3.9697,-3.9697,-3.9697,-3.9697,-3.9697,-3.9697,-3.9697,-3.9697,-3.9697,-3.9697,-3.9697,-3.9697,-3.9697,-3.9697,-3.9697,-3.9697,-3.9697,-3.9697,-3.9697,-3.9697,-3.9697,-3.9697,-3.9697,-3.9421,-3.9145,-3.9145,-3.8693,-3.8304,-3.8304,-3.7852,-3.7462,-3.7462,-3.7161,-3.7048,-3.7412,-3.7149,-3.6923,-3.6923,-3.6807,-3.6681,-3.6681,-3.6518,-3.6405,-3.6405,-3.6405,-3.6405,-3.6405,-3.6405,-3.6405,-3.6405,-3.6405,-3.6405,-3.6405,-3.6405,-3.7036,-3.8283,-3.8899,-3.9869,-4.1113,-4.1773,-4.2092,-4.588,-4.4969,0.0,-4.3978,-4.3031,0.0,-4.2092,0.0,-4.2092,0.0,0.0,0.0,0.0,0.0,0.0,0.0,0.0,0.0,0.0,-4.2092,0.0,0.0,0.0,0.0,0.0,0.0,-4.2092,-4.2092,-4.2092,-4.2092,0.0,0.0,-4.2673,-4.2673,-4.2065,-4.1772,-4.1758,-4.022,-3.9437,-3.9447,-3.899,-3.8815,-3.883,-3.9006,-3.912,-3.9092,-3.9104,-3.9207,-3.9396,-3.9396,-3.9521,-3.9697,-3.9697,-3.9697,-3.9697,-3.9697,-3.9697,-3.9697,-3.9697,-3.9697,-3.9697,-3.9697,-3.9697,-3.9697,-3.9697,-3.9697,-3.9697,-3.9697,-3.9697,-3.9697,-3.9697,-3.9546,-3.9396,-3.9396,-3.8969,-3.8567,-3.8567,-3.8115,-3.7713,-3.7713,-3.7262,-3.6933,-3.6933,-3.6644,-3.6531,-3.6835,-3.6631,-3.6405,-3.6405,-3.6405,-3.6405,-3.6405,-3.6405,-3.6405,-3.6405,-3.6405,-3.6405,-3.6405,-3.6405,-3.6405,-3.6405,-3.6405,-3.6405,-3.6405,-3.6722,-3.7176,-3.7808,-3.9077,-4.0029,-4.0646,-4.1633,-4.2092]}]]